GFSMA_con_mucape_000.txt.gz
CAPE
0 1 3 2 3 3 1 3 2 3 3 2 0 0 0 0 0 0 0 0 0 0 0 0 0 0 0 0 1 10 23 154 245 220 135 136 147 152 151 108 107 113 90
0 1 1 2 2 5 3 2 2 2 1 2 1 5 4 5 2 1 2 0 0 0 0 0 0 0 0 0 0 17 21 116 235 408 423 238 200 189 193 208 185 188 202
0 0 1 1 17 6 4 15 6 7 9 11 13 10 12 8 4 3 3 1 0 0 0 0 0 0 0 0 0 36 93 109 113 224 400 468 364 246 241 231 247 263 278
0 0 3 8 5 4 7 8 7 7 10 11 12 7 13 9 6 2 1 0 0 0 0 0 0 0 9 25 36 52 182 120 132 136 213 386 537 406 369 356 325 317 361
0 2 1 0 0 0 0 1 1 1 3 6 10 8 5 5 4 5 6 2 0 0 0 0 0 0 0 0 26 115 420 339 248 247 222 195 256 495 461 454 477 493 504
0 0 0 0 0 0 0 0 0 0 0 1 1 1 5 0 4 14 26 28 43 16 6 0 0 0 0 0 3 18 82 468 430 323 384 364 386 370 481 534 572 614 627
0 0 0 0 0 0 0 0 0 0 0 0 0 0 0 0 0 1 35 3 17 51 83 100 87 57 40 27 15 27 40 88 187 403 540 545 478 453 551 557 528 629 791
0 0 0 0 0 0 0 0 0 0 0 0 0 0 0 0 0 0 0 0 1 0 46 106 119 119 142 175 112 107 97 80 146 201 431 542 800 936 861 777 786 711 749
0 0 0 0 0 0 0 0 0 0 0 0 0 0 0 0 0 0 0 0 1 0 7 21 9 27 90 149 142 104 61 115 143 251 303 318 591 600 1016 1285 1274 1200 1055
0 0 0 0 0 0 0 0 0 0 0 0 0 0 0 0 0 0 0 0 0 1 0 6 6 2 3 26 130 109 141 205 291 371 404 433 409 455 578 877 1405 1452 1338
0 0 0 0 0 0 0 0 0 0 0 0 0 0 0 0 0 0 0 0 0 0 0 3 9 16 8 43 180 178 119 159 196 287 417 460 521 420 377 678 1210 1504 1414
0 0 0 0 0 0 0 0 0 0 0 0 0 0 0 0 0 0 0 0 0 0 0 0 1 24 64 158 141 96 25 5 4 22 57 272 406 413 462 595 333 144 320
0 0 0 0 0 0 0 0 0 0 0 0 0 0 0 0 0 0 0 0 0 0 7 4 7 29 21 12 17 18 2 0 0 0 83 82 103 159 157 124 131 41 44
0 0 0 0 0 0 0 0 0 0 0 0 0 0 0 0 0 0 0 7 0 4 1 0 0 6 8 12 9 38 1 0 0 6 0 0 1 132 115 93 149 153 99
0 0 0 0 0 0 0 0 0 0 0 0 0 0 0 0 0 0 0 19 5 0 0 0 0 0 0 0 18 15 2 4 49 15 15 7 0 134 66 47 24 137 170
0 0 0 0 0 0 0 0 0 0 0 0 0 0 0 0 0 0 0 0 2 51 0 0 0 2 0 21 37 21 21 53 62 4 16 7 54 0 0 0 75 165 190
0 0 0 0 0 0 0 0 0 0 0 0 0 0 0 0 0 0 0 1 0 23 33 23 37 9 4 17 17 25 60 66 43 43 67 103 27 74 45 47 17 31 99
0 0 0 0 0 0 0 0 0 0 0 0 0 0 0 0 0 0 0 0 0 33 74 0 39 35 23 36 77 75 46 34 41 38 22 54 103 93 81 59 63 17 9
0 0 0 0 0 0 0 0 0 0 0 0 0 0 0 0 0 0 0 0 50 49 60 62 54 61 54 45 35 24 51 73 59 69 41 21 81 77 91 99 81 37 18
0 0 0 0 0 0 0 0 0 0 0 0 0 0 0 0 0 0 0 0 44 57 37 72 86 76 71 18 48 53 43 56 75 63 36 51 63 83 78 83 81 57 57
0 0 0 0 0 0 0 0 0 0 0 0 0 0 0 0 0 0 28 54 55 49 81 95 89 71 49 49 45 51 60 59 53 83 141 113 102 105 58 17 32 37 64
0 0 0 0 0 0 0 0 0 0 0 0 0 0 0 0 0 0 46 59 52 72 99 130 83 0 0 4 54 65 73 73 0 70 77 63 12 29 27 51 17 114 94
0 0 0 0 0 0 0 0 0 0 0 0 0 0 0 0 0 0 15 54 67 70 44 37 0 0 0 0 71 57 73 71 53 66 76 14 21 0 0 37 0 21 50
0 0 0 0 0 0 0 0 0 0 0 0 0 0 0 0 0 35 66 102 0 0 17 26 0 0 98 75 72 71 14 0 34 55 38 0 0 0 0 0 0 1 5
0 0 0 0 0 0 0 0 0 0 0 0 0 0 0 0 0 16 92 0 0 0 0 0 0 0 0 0 0 0 0 0 0 0 0 0 0 0 0 0 0 0 1
0 0 0 0 0 0 0 0 0 0 0 0 0 0 0 0 7 73 48 0 0 0 0 0 0 0 0 0 0 0 0 0 0 0 0 0 0 0 3 2 0 9 4

GFSMA_con_mucape_003.txt.gz
CAPE
99 82 56 47 53 51 32 44 42 35 33 15 12 10 11 11 12 14 9 0 0 1 0 0 4 12 9 2 0 12 48 64 95 124 194 224 133 131 130 84 65 94 104
112 105 113 83 76 46 46 29 25 41 15 28 16 14 17 17 15 16 14 9 0 0 0 0 0 7 42 47 36 42 10 58 66 87 163 313 348 200 204 207 157 120 141
65 73 72 55 82 70 43 21 18 7 8 5 5 5 3 1 6 4 6 9 11 7 10 16 3 0 6 79 137 339 189 85 83 100 121 211 417 479 363 317 309 266 208
8 28 24 6 0 0 0 0 0 0 0 0 0 1 1 0 0 0 0 2 17 9 8 25 36 29 13 14 66 204 398 346 260 168 221 207 274 411 704 631 477 454 429
0 0 0 0 0 0 0 0 0 0 0 0 0 0 0 0 0 0 0 10 40 68 51 62 31 33 37 39 43 72 139 532 343 331 344 337 338 366 428 526 572 625 622
0 0 0 0 0 0 0 0 0 0 0 0 0 0 0 0 0 0 38 2 10 28 8 30 153 132 91 87 152 178 194 194 312 491 546 504 485 464 474 472 484 570 659
0 0 0 0 0 0 0 0 0 0 0 0 0 0 0 0 0 0 0 27 11 0 0 0 46 145 179 209 171 245 248 250 302 287 286 425 436 727 738 659 558 546 743
0 0 0 0 0 0 0 0 0 0 0 0 0 0 0 0 0 0 0 0 0 0 1 20 12 0 3 20 66 132 271 295 369 318 401 293 230 200 278 984 1070 953 832
0 0 0 0 0 0 0 0 0 0 0 0 0 0 0 0 0 0 0 0 0 0 0 0 0 0 0 0 0 0 51 147 153 187 225 291 371 350 259 530 617 1430 1354
0 0 0 0 0 0 0 0 0 0 0 0 0 0 0 0 0 0 0 0 0 0 0 0 0 0 0 0 0 0 66 139 99 137 239 202 240 331 417 580 741 877 1124
0 0 0 0 0 0 0 0 0 0 0 0 0 0 0 0 0 0 0 0 0 0 0 0 0 0 0 8 46 177 133 41 10 22 28 93 221 423 366 343 242 281 950
0 0 0 0 0 0 0 0 0 0 0 0 0 0 0 0 0 0 0 0 0 0 8 0 17 33 32 44 38 41 53 37 20 14 12 74 63 205 39 32 35 54 86
0 0 0 0 0 0 0 0 0 0 0 0 0 0 0 0 0 0 0 0 0 0 0 0 0 5 1 17 5 12 31 14 77 19 4 24 54 2 16 9 24 7 106
0 0 0 0 0 0 0 0 0 0 0 0 0 0 0 0 0 0 0 0 0 0 0 0 2 0 0 7 0 57 0 153 148 19 21 24 8 40 20 0 2 3 0
0 0 0 0 0 0 0 0 0 0 0 0 0 0 0 0 0 0 0 0 0 0 0 0 0 0 15 0 39 2 0 16 83 43 45 109 129 94 28 6 42 0 0
0 0 0 0 0 0 0 0 0 0 0 0 0 0 0 0 0 0 0 0 0 0 0 0 0 0 14 35 25 41 35 77 64 62 53 123 120 90 134 77 43 30 4
0 0 0 0 0 0 0 0 0 0 0 0 0 0 0 0 0 0 0 0 0 0 0 0 27 16 2 5 11 9 33 33 36 46 50 97 140 125 145 131 87 80 71
0 0 0 0 0 0 0 0 0 0 0 0 0 0 0 0 0 0 0 0 0 0 0 0 0 0 1 7 11 16 1 13 15 44 64 132 158 125 91 112 124 72 91
0 0 0 0 0 0 0 0 0 0 0 0 0 0 0 0 0 0 0 0 0 0 4 0 0 6 16 17 12 2 6 2 25 70 44 54 72 142 160 89 91 92 81
0 0 0 0 0 0 0 0 0 0 0 0 0 0 0 0 0 0 0 0 0 0 0 0 0 0 0 8 12 0 0 0 1 13 13 20 58 104 147 85 44 32 43
0 0 0 0 0 0 0 0 0 0 0 0 0 0 0 0 0 0 0 0 0 0 0 0 0 0 0 0 0 0 0 0 0 12 15 9 29 37 7 31 39 101 112
0 0 0 0 0 0 0 0 0 0 0 0 0 0 0 0 0 0 0 0 55 1 0 0 0 0 0 0 0 0 0 0 0 0 36 0 5 14 0 15 36 79 104
0 0 0 0 0 0 0 0 0 0 0 0 0 0 0 0 0 0 0 0 57 70 53 12 0 0 0 0 0 0 0 0 0 0 0 0 0 0 26 0 0 0 0
0 0 0 0 0 0 0 0 0 0 0 0 0 0 0 0 0 0 0 0 39 0 0 18 0 0 0 0 0 0 0 0 0 0 0 0 0 0 0 0 0 0 0
0 0 0 0 0 0 0 0 0 0 0 0 0 0 0 0 0 86 29 0 0 0 0 0 0 0 0 0 0 0 0 0 0 0 0 0 0 0 0 0 0 0 0
0 0 0 0 0 0 0 0 0 0 0 0 0 0 0 0 54 90 21 0 0 0 0 0 0 0 0 0 0 0 0 0 0 0 0 0 0 0 0 0 0 0 0

GFSMA_con_mucape_009.txt.gz
CAPE
71 202 120 123 99 43 7 5 1 0 0 0 0 0 0 0 0 0 0 0 13 63 76 92 181 290 270 184 184 290 361 464 293 281 329 276 251 249 404 548 492 431 322
131 196 162 100 63 3 2 0 0 0 0 0 0 0 0 0 0 0 0 0 0 1 40 18 70 167 121 129 165 220 227 435 343 287 292 386 306 280 284 356 371 437 406
320 146 66 12 0 0 0 0 0 0 0 0 0 0 0 0 0 0 0 0 0 0 0 0 2 3 113 40 102 176 185 183 202 243 183 169 241 285 328 331 332 399 430
24 0 0 0 0 0 0 0 0 0 0 0 0 0 0 0 0 0 0 0 0 0 0 1 4 7 3 0 0 0 13 122 90 88 128 148 188 164 195 279 358 356 359
0 0 0 0 0 0 0 0 0 0 0 0 0 0 0 0 0 0 0 0 0 0 0 0 1 0 0 0 0 0 0 0 0 0 5 32 81 201 132 154 109 213 355
0 0 0 0 0 0 0 0 0 0 0 0 0 0 0 0 0 0 0 0 0 0 0 0 0 0 0 0 0 0 0 0 0 0 0 1 0 12 95 91 168 124 190
0 0 0 0 0 0 0 0 0 0 0 0 0 0 0 0 0 0 0 0 0 0 0 0 0 0 0 0 0 0 0 0 0 1 3 14 26 31 34 78 95 99 110
0 0 0 0 0 0 0 0 0 0 0 0 0 0 0 0 0 0 0 0 0 0 0 0 0 0 0 0 0 0 0 0 0 1 14 28 35 34 32 54 80 86 98
0 0 0 0 0 0 0 0 0 0 0 0 0 0 0 0 0 0 0 0 0 0 0 0 0 0 0 0 0 0 0 0 0 0 7 23 31 44 72 102 93 98 110
0 0 0 0 0 0 0 0 0 0 0 0 0 0 0 0 0 0 0 0 0 0 0 0 0 0 0 0 0 0 0 0 0 5 20 47 46 65 101 114 138 111 96
0 0 0 0 0 0 0 0 0 0 0 0 0 0 0 0 0 0 0 0 0 0 0 0 0 0 0 0 0 0 0 0 0 3 24 55 72 72 94 106 109 108 17
0 0 0 0 0 0 0 0 0 0 0 0 0 0 0 0 0 0 0 0 0 0 0 0 0 0 0 0 0 0 0 1 2 9 38 72 87 95 121 104 72 29 1
0 0 0 0 0 0 0 0 0 0 0 0 0 0 0 0 0 0 0 0 0 0 0 0 0 0 0 0 0 0 0 0 20 44 76 101 98 92 101 121 124 106 90
0 0 0 0 0 0 0 0 0 0 0 0 0 0 0 0 0 0 0 0 0 0 0 0 0 0 0 0 0 0 0 0 15 32 61 99 91 101 89 103 112 96 84
0 0 0 0 0 0 0 0 0 0 0 0 0 0 0 0 0 0 0 0 0 0 0 0 0 0 0 0 0 0 0 0 14 44 52 74 91 96 92 99 88 85 94
0 0 0 0 0 0 0 0 0 0 0 0 0 0 0 0 0 0 0 0 0 0 0 0 0 0 0 0 0 0 0 2 10 36 59 71 71 74 60 67 92 78 88
0 0 0 0 0 0 0 0 0 0 0 0 0 0 0 0 0 0 0 0 0 0 0 0 0 0 0 0 0 0 0 0 0 47 76 59 52 54 53 53 64 75 81
0 0 0 0 0 0 0 0 0 0 0 0 0 0 0 0 0 0 0 0 0 0 0 0 0 0 0 0 0 0 0 0 20 31 39 42 45 45 42 49 63 81 76
0 0 0 0 0 0 0 0 0 0 0 0 0 0 0 0 0 0 0 0 0 0 0 0 0 0 0 0 0 0 0 0 0 0 0 0 0 0 67 41 10 55 70
0 0 0 0 0 0 0 0 0 0 0 0 0 0 0 0 0 0 0 0 0 0 0 0 0 0 0 0 0 0 0 0 0 0 0 0 0 29 0 0 0 23 56
0 0 0 0 0 0 0 0 0 0 0 0 0 0 0 0 0 0 0 0 0 0 0 0 0 0 0 0 0 0 0 0 0 0 0 0 0 0 0 0 0 0 0
0 0 0 0 0 0 0 0 0 0 0 0 0 0 0 0 0 0 0 0 0 1 0 0 0 0 0 0 0 0 0 0 0 0 0 0 0 0 0 0 0 0 0
0 0 0 0 0 0 0 0 0 0 0 0 0 0 0 0 0 0 0 0 3 105 90 3 0 0 0 0 0 0 0 0 0 0 0 0 0 0 0 0 0 0 0
0 0 0 0 0 0 0 0 0 0 0 0 0 0 0 0 0 0 0 0 1 1 0 0 0 0 0 0 0 0 0 0 0 0 0 0 0 0 0 0 0 0 0
0 0 0 0 0 0 0 0 0 0 0 0 0 0 0 0 0 0 0 0 0 0 0 0 0 0 0 0 0 0 0 0 0 0 0 0 0 0 0 0 0 0 0
0 0 0 0 0 0 0 0 0 0 0 0 0 0 0 0 0 25 30 0 0 0 0 0 0 0 0 0 0 0 0 0 0 0 0 0 0 0 0 0 0 0 0

GFSMA_con_mucape_012.txt.gz
CAPE
49 83 110 113 62 68 3 2 1 0 0 0 0 0 0 0 0 0 0 0 0 0 0 0 0 0 19 56 67 120 145 117 118 141 130 151 173 178 195 261 308 331 350
120 258 85 132 67 2 1 0 0 0 0 0 0 0 0 0 0 0 0 0 0 0 0 0 0 0 0 1 2 5 20 12 10 0 0 13 58 82 106 164 272 292 398
203 238 143 58 1 0 0 0 0 0 0 0 0 0 0 0 0 0 0 0 0 0 0 0 0 0 0 0 0 0 0 0 0 0 0 3 0 7 4 1 59 125 226
46 0 0 0 0 0 0 0 0 0 0 0 0 0 0 0 0 0 0 0 0 0 0 0 0 0 0 0 0 0 0 0 0 0 0 0 0 0 0 4 57 128 83
6 2 0 0 0 0 0 0 0 0 0 0 0 0 0 0 0 0 0 0 0 0 0 0 0 0 0 0 0 0 0 0 0 0 0 2 2 0 0 0 0 17 55
0 0 0 0 0 0 0 0 0 0 0 0 0 0 0 0 0 0 0 0 0 0 0 0 0 0 0 0 0 0 0 0 0 0 0 0 8 7 2 0 0 0 50
0 0 0 0 0 0 0 0 0 0 0 0 0 0 0 0 0 0 0 0 0 0 0 0 0 0 0 0 0 0 0 0 0 0 0 1 10 13 18 23 27 19 32
0 0 0 0 0 0 0 0 0 0 0 0 0 0 0 0 0 0 0 0 0 0 0 0 0 0 0 0 0 0 0 0 0 0 1 6 13 20 24 30 45 67 80
0 0 0 0 0 0 0 0 0 0 0 0 0 0 0 0 0 0 0 0 0 0 0 0 0 0 0 0 0 0 0 0 0 0 5 18 20 29 43 59 59 53 72
0 0 0 0 0 0 0 0 0 0 0 0 0 0 0 0 0 0 0 0 0 0 0 0 0 0 0 0 0 0 0 0 0 0 22 30 29 37 44 63 76 82 69
0 0 0 0 0 0 0 0 0 0 0 0 0 0 0 0 0 0 0 0 0 0 0 0 0 0 0 0 0 0 0 0 0 0 0 32 51 67 81 89 99 109 121
0 0 0 0 0 0 0 0 0 0 0 0 0 0 0 0 0 0 0 0 0 0 0 0 0 0 0 0 0 0 0 0 0 0 0 62 63 67 91 109 125 122 122
0 0 0 0 0 0 0 0 0 0 0 0 0 0 0 0 0 0 0 0 0 0 0 0 0 0 0 0 0 0 0 0 0 0 0 57 60 57 73 96 117 153 141
0 0 0 0 0 0 0 0 0 0 0 0 0 0 0 0 0 0 0 0 0 0 0 0 0 0 0 0 0 0 0 0 0 0 39 63 56 57 64 89 108 122 110
0 0 0 0 0 0 0 0 0 0 0 0 0 0 0 0 0 0 0 0 0 0 0 0 0 0 0 0 0 0 0 0 0 0 47 60 68 83 95 102 131 104 89
0 0 0 0 0 0 0 0 0 0 0 0 0 0 0 0 0 0 0 0 0 0 0 0 0 0 0 0 0 0 0 0 0 24 56 59 65 74 98 83 84 111 131
0 0 0 0 0 0 0 0 0 0 0 0 0 0 0 0 0 0 0 0 0 0 0 0 0 0 0 0 0 0 0 0 0 38 60 69 71 77 87 88 79 85 95
0 0 0 0 0 0 0 0 0 0 0 0 0 0 0 0 0 0 0 0 0 0 0 0 0 0 0 0 0 0 0 0 0 2 2 4 47 32 63 70 72 81 91
0 0 0 0 0 0 0 0 0 0 0 0 0 0 0 0 0 0 0 0 0 0 0 0 0 0 0 0 0 0 0 0 0 0 0 0 0 0 0 84 75 64 0
0 0 0 0 0 0 0 0 0 0 0 0 0 0 0 0 0 0 0 0 0 0 0 0 0 0 0 0 0 0 0 0 0 0 0 0 0 0 0 0 0 0 0
0 0 0 0 0 0 0 0 0 0 0 0 0 0 0 0 0 0 0 0 0 0 0 0 0 0 0 0 0 0 0 0 0 0 0 0 0 0 0 0 0 0 0
0 0 0 0 0 0 0 0 0 0 0 0 0 0 0 0 0 0 0 0 1 0 0 0 0 0 0 0 0 0 0 0 0 0 0 0 0 0 0 0 0 0 0
0 0 0 0 0 0 0 0 0 0 0 0 0 0 0 0 0 0 0 0 0 28 75 1 0 0 0 0 0 0 0 0 0 0 0 0 0 0 0 0 0 0 0
0 0 0 0 0 0 0 0 0 0 0 0 0 0 0 0 0 0 0 0 0 0 0 0 0 0 0 0 0 0 0 0 0 0 0 0 0 0 0 0 0 0 0
0 0 0 0 0 0 0 0 0 0 0 0 0 0 0 0 0 0 0 0 0 0 0 0 0 0 0 0 0 0 0 0 0 0 0 0 0 0 0 0 0 0 0
0 0 0 0 0 0 0 0 0 0 0 0 0 0 0 0 0 74 0 0 0 0 0 0 0 0 0 0 0 0 0 0 0 0 0 0 0 0 0 0 0 0 0

GFSMA_con_mucape_015.txt.gz
CAPE
14 23 61 80 55 31 4 1 0 0 0 0 0 0 0 0 0 0 0 0 0 0 0 0 0 0 0 0 0 6 0 0 0 0 0 0 0 0 15 59 90 118 168
49 93 149 24 6 2 0 0 0 0 0 0 0 0 0 0 0 0 0 0 0 0 0 0 0 0 0 0 0 0 0 0 0 0 0 0 0 0 0 0 0 0 18
65 106 24 58 1 0 0 0 0 0 0 0 0 0 0 0 0 0 0 0 0 0 0 0 0 0 0 0 0 0 0 0 0 0 0 0 0 0 0 0 0 0 0
64 27 0 0 0 0 0 0 0 0 0 0 0 0 0 0 0 0 0 0 0 0 0 0 0 0 0 0 0 0 0 0 0 0 0 0 0 0 0 0 0 0 0
6 6 1 0 0 0 0 0 0 0 0 0 0 0 0 0 0 0 0 0 0 0 0 0 0 0 0 0 0 0 0 0 0 0 0 0 0 1 2 1 1 0 0
4 0 0 0 0 0 0 0 0 0 0 0 0 0 0 0 0 0 0 0 0 0 0 0 0 0 0 0 0 0 0 0 0 0 0 0 0 1 4 6 8 7 6
0 0 0 0 0 0 0 0 0 0 0 0 0 0 0 0 0 0 0 0 0 0 0 0 0 0 0 0 0 0 0 0 0 0 0 0 1 4 10 10 14 14 18
0 0 0 0 0 0 0 0 0 0 0 0 0 0 0 0 0 0 0 0 0 0 0 0 0 0 0 0 0 0 0 0 0 0 0 0 1 14 16 17 18 21 29
0 0 0 0 0 0 0 0 0 0 0 0 0 0 0 0 0 0 0 0 0 0 0 0 0 0 0 0 0 0 0 0 0 0 0 15 18 24 25 24 29 32 32
0 0 0 0 0 0 0 0 0 0 0 0 0 0 0 0 0 0 0 0 0 0 0 0 0 0 0 0 0 0 0 0 0 0 0 23 25 31 34 43 50 52 49
0 0 0 0 0 0 0 0 0 0 0 0 0 0 0 0 0 0 0 0 0 0 0 0 0 0 0 0 0 0 0 0 0 0 0 2 37 54 53 61 58 63 62
0 0 0 0 0 0 0 0 0 0 0 0 0 0 0 0 0 0 0 0 0 0 0 0 0 0 0 0 0 0 0 0 0 0 0 1 51 58 63 74 72 68 68
0 0 0 0 0 0 0 0 0 0 0 0 0 0 0 0 0 0 0 0 0 0 0 0 0 0 0 0 0 0 0 0 0 0 0 53 55 62 62 63 75 87 82
0 0 0 0 0 0 0 0 0 0 0 0 0 0 0 0 0 0 0 0 0 0 0 0 0 0 0 0 0 0 0 0 0 0 0 54 60 53 0 0 71 82 96
0 0 0 0 0 0 0 0 0 0 0 0 0 0 0 0 0 0 0 0 0 0 0 0 0 0 0 0 0 0 0 0 0 4 51 63 8 8 59 72 83 91 94
0 0 0 0 0 0 0 0 0 0 0 0 0 0 0 0 0 0 0 0 0 0 0 0 0 0 0 0 0 0 0 0 24 62 74 69 72 62 71 80 95 105 119
0 0 0 0 0 0 0 0 0 0 0 0 0 0 0 0 0 0 0 0 0 0 0 0 0 0 0 0 0 0 0 0 0 63 54 35 40 48 23 75 76 106 113
0 0 0 0 0 0 0 0 0 0 0 0 0 0 0 0 0 0 0 0 0 0 0 0 0 0 0 0 0 0 0 1 0 0 0 1 51 0 66 80 83 83 94
0 0 0 0 0 0 0 0 0 0 0 0 0 0 0 0 0 0 0 0 0 0 0 0 0 0 0 0 0 0 0 0 0 0 0 0 0 0 56 0 0 71 76
0 0 0 0 0 0 0 0 0 0 0 0 0 0 0 0 0 0 0 0 0 0 0 0 0 0 0 0 0 0 0 0 0 0 0 0 0 0 0 0 0 0 0
0 0 0 0 0 0 0 0 0 0 0 0 0 0 0 0 0 0 0 0 0 0 0 0 0 0 0 0 0 0 0 0 0 0 0 0 0 0 0 0 0 0 0
0 0 0 0 0 0 0 0 0 0 0 0 0 0 0 0 0 0 0 0 0 0 0 0 0 0 0 0 0 0 0 0 0 0 0 0 0 0 0 0 0 0 0
0 0 0 0 0 0 0 0 0 0 0 0 0 0 0 0 0 0 0 0 0 0 0 0 0 0 0 0 0 0 0 0 0 0 0 0 0 0 0 0 0 0 0
0 0 0 0 0 0 0 0 0 0 0 0 0 0 0 0 0 0 0 0 0 0 0 0 0 0 0 0 0 0 0 0 0 0 0 0 0 0 0 0 0 0 0
0 0 0 0 0 0 0 0 0 0 0 0 0 0 0 0 0 0 0 0 0 0 0 0 0 0 0 0 0 0 0 0 0 0 0 0 0 0 0 0 0 0 0
0 0 0 0 0 0 0 0 0 0 0 0 0 0 0 0 0 0 0 0 0 0 0 0 0 0 0 0 0 0 0 0 0 0 0 0 0 0 0 0 0 0 0

GFSMA_con_mucape_018.txt.gz
CAPE
7 29 5 25 21 5 3 0 0 0 0 0 0 0 0 0 0 0 0 0 0 0 0 0 0 0 0 0 0 0 0 0 0 0 0 0 0 0 0 0 0 0 0
116 2 49 15 8 3 2 0 0 0 0 0 0 0 0 0 0 0 0 0 0 0 0 0 0 0 0 0 0 0 0 0 0 0 0 0 0 0 0 0 0 0 0
28 81 49 29 8 0 0 0 0 0 0 0 0 0 0 0 0 0 0 0 0 0 0 0 0 0 0 0 0 0 0 0 0 0 0 0 0 0 0 0 0 0 0
67 45 10 5 4 0 0 0 0 0 0 0 0 0 0 0 0 0 0 0 0 0 0 0 0 0 0 0 0 0 0 0 0 0 0 0 0 0 0 0 0 0 0
27 11 11 0 0 0 0 0 0 0 0 0 0 0 0 0 0 0 0 0 0 0 0 0 0 0 0 0 0 0 0 0 0 0 0 0 0 0 0 1 3 2 2
0 2 0 0 0 0 0 0 0 0 0 0 0 0 0 0 0 0 0 0 0 0 0 0 0 0 0 0 0 0 0 0 0 0 0 0 0 0 1 6 7 9 11
1 0 0 0 0 0 0 0 0 0 0 0 0 0 0 0 0 0 0 0 0 0 0 0 0 0 0 0 0 0 0 0 0 0 0 0 0 2 3 6 12 15 13
0 0 0 0 0 0 0 0 0 0 0 0 0 0 0 0 0 0 0 0 0 0 0 0 0 0 0 0 0 0 0 0 0 0 0 0 4 16 22 24 25 23 23
0 0 0 0 0 0 0 0 0 0 0 0 0 0 0 0 0 0 0 0 0 0 0 0 0 0 0 0 0 0 0 0 0 0 0 0 18 27 30 33 34 35 39
0 0 0 0 0 0 0 0 0 0 0 0 0 0 0 0 0 0 0 0 0 0 0 0 0 0 0 0 0 0 0 0 0 0 0 0 8 34 47 54 61 57 60
0 0 0 0 0 0 0 0 0 0 0 0 0 0 0 0 0 0 0 0 0 0 0 0 0 0 0 0 0 0 0 0 0 0 0 2 44 54 58 67 71 79 60
0 0 0 0 0 0 0 0 0 0 0 0 0 0 0 0 0 0 0 0 0 0 0 0 0 0 0 0 0 0 0 0 0 0 0 0 67 70 83 89 85 86 77
0 0 0 0 0 0 0 0 0 0 0 0 0 0 0 0 0 0 0 0 0 0 0 0 0 0 0 0 0 0 0 0 0 0 0 0 9 67 78 87 95 98 92
0 0 0 0 0 0 0 0 0 0 0 0 0 0 0 0 0 0 0 0 0 0 0 0 0 0 0 0 0 0 0 0 0 0 0 51 54 64 76 75 86 86 85
0 0 0 0 0 0 0 0 0 0 0 0 0 0 0 0 0 0 0 0 0 0 0 0 0 0 0 0 0 0 0 0 38 58 60 64 68 74 78 98 94 81 76
0 0 0 0 0 0 0 0 0 0 0 0 0 0 0 0 0 0 0 0 0 0 0 0 0 0 0 0 0 0 0 0 28 40 74 68 79 92 100 98 82 83 85
0 0 0 0 0 0 0 0 0 0 0 0 0 0 0 0 0 0 0 0 0 0 0 0 0 0 0 0 0 0 0 0 0 78 82 83 79 89 89 90 91 96 110
0 0 0 0 0 0 0 0 0 0 0 0 0 0 0 0 0 0 0 0 0 0 0 0 0 0 0 0 0 0 0 0 0 0 14 49 66 69 79 83 91 96 88
0 0 0 0 0 0 0 0 0 0 0 0 0 0 0 0 0 0 0 0 0 0 0 0 0 0 0 0 0 0 0 0 0 0 0 0 0 0 0 72 59 62 61
0 0 0 0 0 0 0 0 0 0 0 0 0 0 0 0 0 0 0 0 0 0 0 0 0 0 0 0 0 0 0 0 0 0 0 0 0 0 0 0 0 0 0
0 0 0 0 0 0 0 0 0 0 0 0 0 0 0 0 0 0 0 0 0 0 0 0 0 0 0 0 0 0 0 0 0 0 0 0 0 0 0 0 0 0 0
0 0 0 0 0 0 0 0 0 0 0 0 0 0 0 0 0 0 0 0 0 0 0 0 0 0 0 0 0 0 0 0 0 0 0 0 0 0 0 0 0 0 0
0 0 0 0 0 0 0 0 0 0 0 0 0 0 0 0 0 0 0 0 0 0 0 0 0 0 0 0 0 0 0 0 0 0 0 0 0 0 0 0 0 0 0
0 0 0 0 0 0 0 0 0 0 0 0 0 0 0 0 0 0 0 0 0 0 0 0 0 0 0 0 0 0 0 0 0 0 0 0 0 0 0 0 0 0 0
0 0 0 0 0 0 0 0 0 0 0 0 0 0 0 0 0 0 0 0 0 0 0 0 0 0 0 0 0 0 0 0 0 0 0 0 0 0 0 0 0 0 0
0 0 0 0 0 0 0 0 0 0 0 0 0 0 0 0 0 0 0 0 0 0 0 0 0 0 0 0 0 0 0 0 0 0 0 0 0 0 0 0 0 0 0

GFSMA_con_mucape_021.txt.gz
CAPE
1 16 5 5 4 3 1 0 0 0 0 0 0 0 0 0 0 0 0 0 0 0 0 0 0 0 0 0 0 0 0 0 0 0 0 0 0 0 0 0 0 0 0
4 3 3 5 7 4 2 0 0 0 0 0 0 0 0 0 0 0 0 0 0 0 0 0 0 0 0 0 0 0 0 0 0 0 0 0 0 0 0 0 0 0 0
36 2 8 6 4 1 0 0 0 0 0 0 0 0 0 0 0 0 0 0 0 0 0 0 0 0 0 0 0 0 0 0 0 0 0 0 0 0 0 0 0 0 0
42 17 7 5 4 0 0 0 0 0 0 0 0 0 0 0 0 0 0 0 0 0 0 0 0 0 0 0 0 0 0 0 0 0 0 0 0 0 0 0 0 0 0
22 16 5 2 0 0 0 0 0 0 0 0 0 0 0 0 0 0 0 0 0 0 0 0 0 0 0 0 0 0 0 0 0 0 0 0 0 0 1 2 2 3 5
54 4 0 0 0 0 0 0 0 0 0 0 0 0 0 0 0 0 0 0 0 0 0 0 0 0 0 0 0 0 0 0 0 0 0 0 0 0 0 5 6 7 12
34 0 0 0 0 0 0 0 0 0 0 0 0 0 0 0 0 0 0 0 0 0 0 0 0 0 0 0 0 0 0 0 0 0 0 0 0 0 6 14 16 23 24
39 0 0 0 0 0 0 0 0 0 0 0 0 0 0 0 0 0 0 0 0 0 0 0 0 0 0 0 0 0 0 0 0 0 0 0 0 0 17 23 26 33 34
0 0 0 0 0 0 0 0 0 0 0 0 0 0 0 0 0 0 0 0 0 0 0 0 0 0 0 0 0 0 0 0 0 0 0 0 0 17 29 35 39 46 48
0 0 0 0 0 0 0 0 0 0 0 0 0 0 0 0 0 0 0 0 0 0 0 0 0 0 0 0 0 0 0 0 0 0 0 0 31 38 46 54 62 69 69
0 0 0 0 0 0 0 0 0 0 0 0 0 0 0 0 0 0 0 0 0 0 0 0 0 0 0 0 0 0 0 0 0 0 0 2 45 58 69 78 83 83 95
0 0 0 0 0 0 0 0 0 0 0 0 0 0 0 0 0 0 0 0 0 0 0 0 0 0 0 0 0 0 0 0 0 0 0 48 82 96 107 109 100 103 99
0 0 0 0 0 0 0 0 0 0 0 0 0 0 0 0 0 0 0 0 0 0 0 0 0 0 0 0 0 0 0 0 0 0 0 67 73 81 79 100 117 129 137
0 0 0 0 0 0 0 0 0 0 0 0 0 0 0 0 0 0 0 0 0 0 0 0 0 0 0 0 0 0 0 0 0 0 0 60 58 54 68 88 105 107 126
0 0 0 0 0 0 0 0 0 0 0 0 0 0 0 0 0 0 0 0 0 0 0 0 0 0 0 0 0 0 0 0 0 0 0 1 8 59 85 87 90 100 106
0 0 0 0 0 0 0 0 0 0 0 0 0 0 0 0 0 0 0 0 0 0 0 0 0 0 0 0 0 0 0 0 0 0 0 41 72 78 68 86 111 105 93
0 0 0 0 0 0 0 0 0 0 0 0 0 0 0 0 0 0 0 0 0 0 0 0 0 0 0 0 0 0 0 0 0 0 0 0 0 22 21 69 82 94 99
0 0 0 0 0 0 0 0 0 0 0 0 0 0 0 0 0 0 0 0 0 0 0 0 0 0 0 0 0 0 0 0 0 0 0 0 0 0 0 0 0 5 90
0 0 0 0 0 0 0 0 0 0 0 0 0 0 0 0 0 0 0 0 0 0 0 0 0 0 0 0 0 0 0 0 0 0 0 0 0 0 0 0 0 0 0
0 0 0 0 0 0 0 0 0 0 0 0 0 0 0 0 0 0 0 0 0 0 0 0 0 0 0 0 0 0 0 0 0 0 0 0 0 0 0 0 0 0 0
0 0 0 0 0 0 0 0 0 0 0 0 0 0 0 0 0 0 0 0 0 0 0 0 0 0 0 0 0 0 0 0 0 0 0 0 0 0 0 0 0 0 0
0 0 0 0 0 0 0 0 0 0 0 0 0 0 0 0 0 0 0 0 0 0 0 0 0 0 0 0 0 0 0 0 0 0 0 0 0 0 0 0 0 0 0
0 0 0 0 0 0 0 0 0 0 0 0 0 0 0 0 0 0 0 0 0 0 0 0 0 0 0 0 0 0 0 0 0 0 0 0 0 0 0 0 0 0 0
0 0 0 0 0 0 0 0 0 0 0 0 0 0 0 0 0 0 0 0 0 0 0 0 0 0 0 0 0 0 0 0 0 0 0 0 0 0 0 0 0 0 0
0 0 0 0 0 0 0 0 0 0 0 0 0 0 0 0 0 0 0 0 0 0 0 0 0 0 0 0 0 0 0 0 0 0 0 0 0 0 0 0 0 0 0
0 0 0 0 0 0 0 0 0 0 0 0 0 0 0 0 0 0 0 0 0 0 0 0 0 0 0 0 0 0 0 0 0 0 0 0 0 0 0 0 0 0 0

GFSMA_con_mucape_024.txt.gz
CAPE
37 12 2 0 5 2 1 1 0 0 0 0 0 0 0 0 0 0 0 0 0 0 0 0 0 0 0 0 0 0 0 0 0 0 0 0 0 0 0 0 0 0 0
9 1 0 5 2 4 2 1 0 0 0 0 0 0 0 0 0 0 0 0 0 0 0 0 0 0 0 0 0 0 0 0 0 0 0 0 0 0 0 0 0 0 0
1 1 2 4 3 2 1 0 0 0 0 0 0 0 0 0 0 0 0 0 0 0 0 0 0 0 0 0 0 0 0 0 0 0 0 0 0 0 0 0 0 0 0
11 5 6 1 5 1 0 0 0 0 0 0 0 0 0 0 0 0 0 0 0 0 0 0 0 0 0 0 0 0 0 0 0 0 0 0 0 0 0 0 0 0 0
24 20 2 0 0 0 0 0 0 0 0 0 0 0 0 0 0 0 0 0 0 0 0 0 0 0 0 0 0 0 0 0 0 0 0 0 0 0 3 3 4 2 2
57 23 6 1 0 0 0 0 0 0 0 0 0 0 0 0 0 0 0 0 0 0 0 0 0 0 0 0 0 0 0 0 0 0 0 0 0 0 2 9 10 9 13
113 18 5 0 0 0 0 0 0 0 0 0 0 0 0 0 0 0 0 0 0 0 0 0 0 0 0 0 0 0 0 0 0 0 0 0 0 0 0 13 14 13 24
141 106 8 0 0 0 0 0 0 0 0 0 0 0 0 0 0 0 0 0 0 0 0 0 0 0 0 0 0 0 0 0 0 0 0 0 0 0 0 27 27 29 32
84 6 0 0 0 0 0 0 0 0 0 0 0 0 0 0 0 0 0 0 0 0 0 0 0 0 0 0 0 0 0 0 0 0 0 0 0 0 27 37 45 50 56
178 43 0 0 0 0 0 0 0 0 0 0 0 0 0 0 0 0 0 0 0 0 0 0 0 0 0 0 0 0 0 0 0 0 0 0 0 0 43 53 62 72 76
35 5 0 0 0 0 0 0 0 0 0 0 0 0 0 0 0 0 0 0 0 0 0 0 0 0 0 0 0 0 0 0 0 0 0 0 0 56 67 68 74 81 77
19 0 0 0 0 0 0 0 0 0 0 0 0 0 0 0 0 0 0 0 0 0 0 0 0 0 0 0 0 0 0 0 0 0 0 0 0 72 87 102 104 108 109
0 0 0 0 0 0 0 0 0 0 0 0 0 0 0 0 0 0 0 0 0 0 0 0 0 0 0 0 0 0 0 0 0 0 0 0 0 25 71 92 108 109 123
0 0 0 0 0 0 0 0 0 0 0 0 0 0 0 0 0 0 0 0 0 0 0 0 0 0 0 0 0 0 0 0 0 0 0 0 0 0 46 79 98 108 117
0 0 0 0 0 0 0 0 0 0 0 0 0 0 0 0 0 0 0 0 0 0 0 0 0 0 0 0 0 0 0 0 0 0 0 0 0 67 76 74 89 87 97
0 0 0 0 0 0 0 0 0 0 0 0 0 0 0 0 0 0 0 0 0 0 0 0 0 0 0 0 0 0 0 0 0 0 0 0 0 0 0 0 0 40 46
0 0 0 0 0 0 0 0 0 0 0 0 0 0 0 0 0 0 0 0 0 0 0 0 0 0 0 0 0 0 0 0 0 0 0 0 0 0 0 0 0 0 0
0 0 0 0 0 0 0 0 0 0 0 0 0 0 0 0 0 0 0 0 0 0 0 0 0 0 0 0 0 0 0 0 0 0 0 0 0 0 0 0 0 0 0
0 0 0 0 0 0 0 0 0 0 0 0 0 0 0 0 0 0 0 0 0 0 0 0 0 0 0 0 0 0 0 0 0 0 0 0 0 0 0 0 0 0 0
0 0 0 0 0 0 0 0 0 0 0 0 0 0 0 0 0 0 0 0 0 0 0 0 0 0 0 0 0 0 0 0 0 0 0 0 0 0 0 0 0 0 0
0 0 0 0 0 0 0 0 0 0 0 0 0 0 0 0 0 0 0 0 0 0 0 0 0 0 0 0 0 0 0 0 0 0 0 0 0 0 0 0 0 0 0
0 0 0 0 0 0 0 0 0 0 0 0 0 0 0 0 0 0 0 0 0 0 0 0 0 0 0 0 0 0 0 0 0 0 0 0 0 0 0 0 0 0 0
0 0 0 0 0 0 0 0 0 0 0 0 0 0 0 0 0 0 0 0 0 0 0 0 0 0 0 0 0 0 0 0 0 0 0 0 0 0 0 0 0 0 0
0 0 0 0 0 0 0 0 0 0 0 0 0 0 0 0 0 0 0 0 0 0 0 0 0 0 0 0 0 0 0 0 0 0 0 0 0 0 0 0 0 0 0
0 0 0 0 0 0 0 0 0 0 0 0 0 0 0 0 0 0 0 0 0 0 0 0 0 0 0 0 0 0 0 0 0 0 0 0 0 0 0 0 0 0 0
0 0 0 0 0 0 0 0 0 0 0 0 0 0 0 0 0 0 0 0 0 0 0 0 0 0 0 0 0 0 0 0 0 0 0 0 0 0 0 0 0 0 0

GFSMA_con_mucape_027.txt.gz
CAPE
4 15 25 0 0 0 0 0 0 0 0 0 0 0 0 0 0 0 0 0 0 0 0 0 0 0 0 0 0 0 0 0 0 0 0 0 0 0 0 0 0 0 1
79 20 0 0 0 0 0 0 0 0 0 0 0 0 0 0 0 0 0 0 0 0 0 0 0 0 0 0 0 0 0 0 0 0 0 0 0 0 0 0 0 0 0
48 0 0 0 3 1 0 0 0 0 0 0 0 0 0 0 0 0 0 0 0 0 0 0 0 0 0 0 0 0 0 0 0 0 0 0 0 0 0 0 0 0 0
7 0 0 1 3 2 0 0 0 0 0 0 0 0 0 0 0 0 0 0 0 0 0 0 0 0 0 0 0 0 0 0 0 0 0 0 0 0 0 0 1 0 0
1 0 3 6 1 0 0 0 0 0 0 0 0 0 0 0 0 0 0 0 0 0 0 0 0 0 0 0 0 0 0 0 0 0 0 0 0 0 0 2 5 5 4
9 2 12 2 0 0 0 0 0 0 0 0 0 0 0 0 0 0 0 0 0 0 0 0 0 0 0 0 0 0 0 0 0 0 0 0 0 0 0 0 9 12 15
47 43 38 2 0 0 0 0 0 0 0 0 0 0 0 0 0 0 0 0 0 0 0 0 0 0 0 0 0 0 0 0 0 0 0 0 0 0 0 12 18 21 25
65 101 49 8 0 0 0 0 0 0 0 0 0 0 0 0 0 0 0 0 0 0 0 0 0 0 0 0 0 0 0 0 0 0 0 0 0 0 0 19 27 34 34
157 144 43 4 0 0 0 0 0 0 0 0 0 0 0 0 0 0 0 0 0 0 0 0 0 0 0 0 0 0 0 0 0 0 0 0 0 0 0 0 33 38 41
198 94 35 5 0 0 0 0 0 0 0 0 0 0 0 0 0 0 0 0 0 0 0 0 0 0 0 0 0 0 0 0 0 0 0 0 0 0 0 1 50 57 65
241 104 65 4 0 0 0 0 0 0 0 0 0 0 0 0 0 0 0 0 0 0 0 0 0 0 0 0 0 0 0 0 0 0 0 0 0 0 0 0 29 71 76
212 42 4 5 0 0 0 0 0 0 0 0 0 0 0 0 0 0 0 0 0 0 0 0 0 0 0 0 0 0 0 0 0 0 0 0 0 0 0 80 82 78 94
168 125 30 1 0 0 0 0 0 0 0 0 0 0 0 0 0 0 0 0 0 0 0 0 0 0 0 0 0 0 0 0 0 0 0 0 0 0 0 33 87 96 87
166 2 2 0 0 0 0 0 0 0 0 0 0 0 0 0 0 0 0 0 0 0 0 0 0 0 0 0 0 0 0 0 0 0 0 0 0 0 0 0 0 79 92
111 2 1 0 0 0 0 0 0 0 0 0 0 0 0 0 0 0 0 0 0 0 0 0 0 0 0 0 0 0 0 0 0 0 0 0 0 0 0 0 0 0 0
9 2 0 0 0 0 0 0 0 0 0 0 0 0 0 0 0 0 0 0 0 0 0 0 0 0 0 0 0 0 0 0 0 0 0 0 0 0 0 0 0 0 0
13 6 0 0 0 0 0 0 0 0 0 0 0 0 0 0 0 0 0 0 0 0 0 0 0 0 0 0 0 0 0 0 0 0 0 0 0 0 0 0 0 0 0
2 70 0 0 0 0 0 0 0 0 0 0 0 0 0 0 0 0 0 0 0 0 0 0 0 0 0 0 0 0 0 0 0 0 0 0 0 0 0 0 0 0 0
13 10 0 0 0 0 0 0 0 0 0 0 0 0 0 0 0 0 0 0 0 0 0 0 0 0 0 0 0 0 0 0 0 0 0 0 0 0 0 0 0 0 0
36 0 0 0 0 0 0 0 0 0 0 0 0 0 0 0 0 0 0 0 0 0 0 0 0 0 0 0 0 0 0 0 0 0 0 0 0 0 0 0 0 0 0
0 0 0 0 0 0 0 0 0 0 0 0 0 0 0 0 0 0 0 0 0 0 0 0 0 0 0 0 0 0 0 0 0 0 0 0 0 0 0 0 0 0 0
0 0 0 0 0 0 0 0 0 0 0 0 0 0 0 0 0 0 0 0 0 0 0 0 0 0 0 0 0 0 0 0 0 0 0 0 0 0 0 0 0 0 0
0 0 0 0 0 0 0 0 0 0 0 0 0 0 0 0 0 0 0 0 0 0 0 0 0 0 0 0 0 0 0 0 0 0 0 0 0 0 0 0 0 0 0
0 0 0 0 0 0 0 0 0 0 0 0 0 0 0 0 0 0 0 0 0 0 0 0 0 0 0 0 0 0 0 0 0 0 0 0 0 0 0 0 0 0 0
0 0 0 0 0 0 0 0 0 0 0 0 0 0 0 0 0 0 0 0 0 0 0 0 0 0 0 0 0 0 0 0 0 0 0 0 0 0 0 0 0 0 0
0 0 0 0 0 0 0 0 0 0 0 0 0 0 0 0 0 0 0 0 0 0 0 0 0 0 0 0 0 0 0 0 0 0 0 0 0 0 0 0 0 0 0

GFSMA_con_mucape_030.txt.gz
CAPE
0 0 2 2 0 0 0 0 0 0 0 0 0 0 0 0 0 0 0 0 0 0 0 0 0 0 0 0 0 0 0 0 0 0 0 0 0 0 0 0 0 0 0
0 2 10 0 0 0 0 0 0 0 0 0 0 0 0 0 0 0 0 0 0 0 0 0 0 0 0 0 0 0 0 0 0 0 0 0 0 0 0 0 0 0 0
26 23 44 0 0 0 0 0 0 0 0 0 0 0 0 0 0 0 0 0 0 0 0 0 0 0 0 0 0 0 0 0 0 0 0 0 0 0 0 0 0 0 1
104 79 0 0 0 2 1 0 0 0 0 0 0 0 0 0 0 0 0 0 0 0 0 0 0 0 0 0 0 0 0 0 0 0 0 0 0 0 0 0 0 1 4
145 0 0 0 0 0 0 0 0 0 0 0 0 0 0 0 0 0 0 0 0 0 0 0 0 0 0 0 0 0 0 0 0 0 0 0 0 0 0 0 0 6 8
111 11 0 0 2 0 0 0 0 0 0 0 0 0 0 0 0 0 0 0 0 0 0 0 0 0 0 0 0 0 0 0 0 0 0 0 0 0 0 0 3 11 14
148 47 2 0 0 0 0 0 0 0 0 0 0 0 0 0 0 0 0 0 0 0 0 0 0 0 0 0 0 0 0 0 0 0 0 0 0 0 0 2 19 19 22
225 94 52 44 0 0 0 0 0 0 0 0 0 0 0 0 0 0 0 0 0 0 0 0 0 0 0 0 0 0 0 0 0 0 0 0 0 0 0 0 0 0 27
296 146 113 126 10 0 0 0 0 0 0 0 0 0 0 0 0 0 0 0 0 0 0 0 0 0 0 0 0 0 0 0 0 0 0 0 0 0 0 0 0 0 40
389 253 177 158 40 0 1 0 0 0 0 0 0 0 0 0 0 0 0 0 0 0 0 0 0 0 0 0 0 0 0 0 0 0 0 0 0 0 0 0 0 0 0
471 338 293 180 70 23 8 0 0 0 0 0 0 0 0 0 0 0 0 0 0 0 0 0 0 0 0 0 0 0 0 0 0 0 0 0 0 0 0 0 0 0 0
485 349 471 87 163 49 19 0 0 0 0 0 0 0 0 0 0 0 0 0 0 0 0 0 0 0 0 0 0 0 0 0 0 0 0 0 0 0 0 0 12 81 84
448 306 281 72 21 3 0 0 0 0 0 0 0 0 0 0 0 0 0 0 0 0 0 0 0 0 0 0 0 0 0 0 0 0 0 0 0 0 0 67 79 82 89
422 225 156 134 83 0 0 0 0 0 0 0 0 0 0 0 0 0 0 0 0 0 0 0 0 0 0 0 0 0 0 0 0 0 0 0 0 0 0 0 71 75 70
359 220 171 49 0 1 0 0 0 0 0 0 0 0 0 0 0 0 0 0 0 0 0 0 0 0 0 0 0 0 0 0 0 0 0 0 0 0 0 0 0 0 0
374 237 102 37 2 0 0 0 0 0 0 0 0 0 0 0 0 0 0 0 0 0 0 0 0 0 0 0 0 0 0 0 0 0 0 0 0 0 0 0 0 0 0
173 177 112 2 4 0 0 0 0 0 0 0 0 0 0 0 0 0 0 0 0 0 0 0 0 0 0 0 0 0 0 0 0 0 0 0 0 0 0 0 0 0 0
51 118 0 0 6 0 0 0 0 0 0 0 0 0 0 0 0 0 0 0 0 0 0 0 0 0 0 0 0 0 0 0 0 0 0 0 0 0 0 0 0 0 0
51 48 1 1 10 0 0 0 0 0 0 0 0 0 0 0 0 0 0 0 0 0 0 0 0 0 0 0 0 0 0 0 0 0 0 0 0 0 0 0 0 0 0
29 17 7 10 3 0 0 0 0 0 0 0 0 0 0 0 0 0 0 0 0 0 0 0 0 0 0 0 0 0 0 0 0 0 0 0 0 0 0 0 0 0 0
29 10 0 0 0 0 0 0 0 0 0 0 0 0 0 0 0 0 0 0 0 0 0 0 0 0 0 0 0 0 0 0 0 0 0 0 0 0 0 0 0 0 0
0 0 4 0 0 0 0 0 0 0 0 0 0 0 0 0 0 0 0 0 0 0 0 0 0 0 0 0 0 0 0 0 0 0 0 0 0 0 0 0 0 0 0
4 0 0 0 0 0 0 0 0 0 0 0 0 0 0 0 0 0 0 0 0 0 0 0 0 0 0 0 0 0 0 0 0 0 0 0 0 0 0 0 0 0 0
0 0 0 0 0 0 0 0 0 0 0 0 0 0 0 0 0 0 0 0 0 0 0 0 0 0 0 0 0 0 0 0 0 0 0 0 0 0 0 0 0 0 0
0 0 0 0 0 0 0 0 0 0 0 0 0 0 0 0 0 0 0 0 0 0 0 0 0 0 0 0 0 0 0 0 0 0 0 0 0 0 0 0 0 0 0
0 0 0 0 0 0 0 0 0 0 0 0 0 0 0 0 0 0 0 0 0 0 0 0 0 0 0 0 0 0 0 0 0 0 0 0 0 0 0 0 0 0 0

GFSMA_con_mucape_033.txt.gz
CAPE
0 0 0 0 0 0 0 0 0 0 0 0 0 0 0 0 0 0 0 0 0 0 0 0 0 0 0 0 0 0 0 0 0 0 0 0 0 0 0 0 0 0 0
0 0 1 10 0 0 0 0 0 0 0 0 0 0 0 0 0 0 0 0 0 0 0 0 0 0 0 0 0 0 0 0 0 0 0 0 0 0 0 0 0 0 1
0 0 22 0 0 0 0 0 0 0 0 0 0 0 0 0 0 0 0 0 0 0 0 0 0 0 0 0 0 0 0 0 0 0 0 0 0 0 0 0 0 2 2
2 1 25 19 0 0 0 0 0 0 0 0 0 0 0 0 0 0 0 0 0 0 0 0 0 0 0 0 0 0 0 0 0 0 0 0 0 0 0 0 0 0 6
50 49 69 49 0 0 0 0 0 0 0 0 0 0 0 0 0 0 0 0 0 0 0 0 0 0 0 0 0 0 0 0 0 0 0 0 0 0 0 0 0 0 7
151 114 154 16 0 0 0 0 0 0 0 0 0 0 0 0 0 0 0 0 0 0 0 0 0 0 0 0 0 0 0 0 0 0 0 0 0 0 0 0 0 3 12
247 229 108 29 12 7 0 0 0 0 0 0 0 0 0 0 0 0 0 0 0 0 0 0 0 0 0 0 0 0 0 0 0 0 0 0 0 0 0 0 0 0 17
370 291 115 47 20 10 1 0 0 0 0 0 0 0 0 0 0 0 0 0 0 0 0 0 0 0 0 0 0 0 0 0 0 0 0 0 0 0 0 0 0 0 0
397 383 229 74 35 13 7 0 0 0 0 0 0 0 0 0 0 0 0 0 0 0 0 0 0 0 0 0 0 0 0 0 0 0 0 0 0 0 0 0 0 0 0
527 479 305 152 98 52 6 1 0 0 0 0 0 0 0 0 0 0 0 0 0 0 0 0 0 0 0 0 0 0 0 0 0 0 0 0 0 0 0 0 0 0 0
554 544 338 224 142 104 38 7 9 0 0 0 0 0 0 0 0 0 0 0 0 0 0 0 0 0 0 0 0 0 0 0 0 0 0 0 0 0 0 0 0 0 0
446 444 370 298 240 354 268 49 8 4 0 0 0 0 0 0 0 0 0 0 0 0 0 0 0 0 0 0 0 0 0 0 0 0 0 0 0 0 0 0 0 0 0
247 228 309 344 341 189 50 73 22 2 0 0 0 0 0 0 0 0 0 0 0 0 0 0 0 0 0 0 0 0 0 0 0 0 0 0 0 0 0 0 0 70 72
190 226 276 538 403 156 72 27 34 0 0 0 0 0 0 0 0 0 0 0 0 0 0 0 0 0 0 0 0 0 0 0 0 0 0 0 0 0 0 0 68 72 79
212 241 444 430 201 154 78 6 13 0 0 0 0 0 0 0 0 0 0 0 0 0 0 0 0 0 0 0 0 0 0 0 0 0 0 0 0 0 0 0 51 45 60
115 40 314 335 230 108 28 4 0 0 0 0 0 0 0 0 0 0 0 0 0 0 0 0 0 0 0 0 0 0 0 0 0 0 0 0 0 0 0 0 0 0 0
141 199 300 207 140 57 6 1 6 0 0 0 0 0 0 0 0 0 0 0 0 0 0 0 0 0 0 0 0 0 0 0 0 0 0 0 0 0 0 0 0 0 0
261 331 256 113 157 9 5 2 0 0 0 0 0 0 0 0 0 0 0 0 0 0 0 0 0 0 0 0 0 0 0 0 0 0 0 0 0 0 0 0 0 0 0
329 326 171 14 13 7 2 3 3 0 0 0 0 0 0 0 0 0 0 0 0 0 0 0 0 0 0 0 0 0 0 0 0 0 0 0 0 0 0 0 0 0 0
159 170 104 49 16 14 3 9 1 0 0 0 0 0 0 0 0 0 0 0 0 0 0 0 0 0 0 0 0 0 0 0 0 0 0 0 0 0 0 0 0 0 0
118 107 53 3 0 0 0 0 0 0 0 0 0 0 0 0 0 0 0 0 0 0 0 0 0 0 0 0 0 0 0 0 0 0 0 0 0 0 0 0 0 0 0
85 4 25 2 1 0 0 0 0 0 0 0 0 0 0 0 0 0 0 0 0 0 0 0 0 0 0 0 0 0 0 0 0 0 0 0 0 0 0 0 0 0 0
1 5 0 0 0 0 0 0 1 0 0 0 0 0 0 0 0 0 0 0 0 0 0 0 0 0 0 0 0 0 0 0 0 0 0 0 0 0 0 0 0 0 0
0 0 0 0 0 0 0 1 0 0 0 0 0 0 0 0 0 0 0 0 0 0 0 0 0 0 0 0 0 0 0 0 0 0 0 0 0 0 0 0 0 0 0
0 0 0 0 0 0 0 0 0 0 0 0 0 0 0 0 0 0 0 0 0 0 0 0 0 0 0 0 0 0 0 0 0 0 0 0 0 0 0 0 0 0 0
0 0 2 0 0 0 0 0 0 0 0 0 0 0 0 0 0 0 0 0 0 0 0 0 0 0 0 0 0 0 0 0 0 0 0 0 0 0 0 0 0 0 0

GFSMA_con_mucape_036.txt.gz
CAPE
68 129 24 1 0 0 0 0 0 0 0 0 0 0 0 0 0 0 0 0 0 0 0 0 0 0 0 0 0 0 0 0 0 0 0 0 0 0 0 0 0 0 0
29 144 19 0 0 0 0 0 0 0 0 0 0 0 0 0 0 0 0 0 0 0 0 0 0 0 0 0 0 0 0 0 0 0 0 0 0 0 0 1 0 1 1
28 117 0 1 25 0 0 0 0 0 0 0 0 0 0 0 0 0 0 0 0 0 0 0 0 0 0 0 0 0 0 0 0 0 0 0 0 0 0 0 0 6 5
4 0 0 10 48 18 0 0 0 0 0 0 0 0 0 0 0 0 0 0 0 0 0 0 0 0 0 0 0 0 0 0 0 0 0 0 0 0 0 0 0 0 0
30 0 2 39 41 56 0 0 0 0 0 0 0 0 0 0 0 0 0 0 0 0 0 0 0 0 0 0 0 0 0 0 0 0 0 0 0 0 0 0 0 0 0
192 43 18 54 72 75 2 0 0 0 0 0 0 0 0 0 0 0 0 0 0 0 0 0 0 0 0 0 0 0 0 0 0 0 0 0 0 0 0 0 0 0 0
388 233 48 49 74 58 0 0 0 0 0 0 0 0 0 0 0 0 0 0 0 0 0 0 0 0 0 0 0 0 0 0 0 0 0 0 0 0 0 0 0 0 0
455 316 127 84 115 25 0 0 0 0 0 0 0 0 0 0 0 0 0 0 0 0 0 0 0 0 0 0 0 0 0 0 0 0 0 0 0 0 0 0 0 0 0
535 405 191 204 203 32 3 0 0 0 0 0 0 0 0 0 0 0 0 0 0 0 0 0 0 0 0 0 0 0 0 0 0 0 0 0 0 0 0 0 0 0 0
506 442 358 303 311 139 30 4 0 0 0 0 0 0 0 0 0 0 0 0 0 0 0 0 0 0 0 0 0 0 0 0 0 0 0 0 0 0 0 0 0 0 0
480 478 387 358 419 233 85 105 23 9 3 7 6 0 0 0 0 0 0 0 0 0 0 0 0 0 0 0 0 0 0 0 0 0 0 0 0 0 0 0 0 0 0
502 432 475 391 398 318 200 273 211 48 13 29 3 1 0 0 0 0 0 0 0 0 0 0 0 0 0 0 0 0 0 0 0 0 0 0 0 0 0 0 0 0 0
453 401 406 385 269 237 208 194 143 61 13 18 15 7 0 0 0 0 0 0 0 0 0 0 0 0 0 0 0 0 0 0 0 0 0 0 0 0 0 0 0 0 0
290 230 247 246 263 267 284 236 113 16 29 40 22 0 0 0 0 0 0 0 0 0 0 0 0 0 0 0 0 0 0 0 0 0 0 0 0 0 0 0 0 0 0
145 151 207 187 123 255 270 205 156 11 13 3 1 0 0 0 0 0 0 0 0 0 0 0 0 0 0 0 0 0 0 0 0 0 0 0 0 0 0 0 0 0 0
161 146 146 91 78 82 357 175 185 61 9 12 7 4 0 0 0 0 0 0 0 0 0 0 0 0 0 0 0 0 0 0 0 0 0 0 0 0 0 0 0 0 0
167 184 136 113 228 27 203 198 145 0 1 5 5 0 0 0 0 0 0 0 0 0 0 0 0 0 0 0 0 0 0 0 0 0 0 0 0 0 0 0 0 0 0
193 233 131 62 238 125 90 119 0 0 3 7 9 0 0 0 0 0 0 0 0 0 0 0 0 0 0 0 0 0 0 0 0 0 0 0 0 0 0 0 0 0 0
196 57 9 25 210 11 28 0 20 0 0 0 1 0 0 0 0 0 0 0 0 0 0 0 0 0 0 0 0 0 0 0 0 0 0 0 0 0 0 0 0 0 0
42 10 23 139 60 62 13 5 0 0 1 0 0 0 0 0 0 0 0 0 0 0 0 0 0 0 0 0 0 0 0 0 0 0 0 0 0 0 0 0 0 0 0
15 68 146 42 6 3 5 1 0 1 0 0 0 0 0 0 0 0 0 0 0 0 0 0 0 0 0 0 0 0 0 0 0 0 0 0 0 0 0 0 0 0 0
65 23 11 11 10 2 0 0 0 0 0 0 0 0 0 0 0 0 0 0 0 0 0 0 0 0 0 0 0 0 0 0 0 0 0 0 0 0 0 0 0 0 0
7 65 21 10 0 0 0 0 0 0 0 0 0 0 0 0 0 0 0 0 0 0 0 0 0 0 0 0 0 0 0 0 0 0 0 0 0 0 0 0 0 0 0
0 24 0 0 0 0 0 0 0 0 0 0 0 0 0 0 0 0 0 0 0 0 0 0 0 0 0 0 0 0 0 0 0 0 0 0 0 0 0 0 0 0 0
0 0 0 0 0 0 0 0 0 0 0 0 0 0 0 0 0 0 0 0 0 0 0 0 0 0 0 0 0 0 0 0 0 0 0 0 0 0 0 0 0 0 0
0 0 0 0 0 0 0 0 0 0 0 0 0 0 0 0 0 0 0 0 0 0 0 0 0 0 0 0 0 0 0 0 0 0 0 0 0 0 0 0 0 0 0

GFSMA_con_mucape_039.txt.gz
CAPE
172 91 72 13 9 1 0 0 0 0 0 0 0 0 0 0 0 0 0 0 0 0 0 0 0 0 0 0 0 0 0 0 0 0 0 0 0 0 0 0 0 0 0
132 109 123 44 0 0 0 0 0 0 0 0 0 0 0 0 0 0 0 0 0 0 0 0 0 0 0 0 0 0 0 0 0 0 0 0 0 0 0 0 1 2 1
10 86 159 94 0 6 0 0 0 0 0 0 0 0 0 0 0 0 0 0 0 0 0 0 0 0 0 0 0 0 0 0 0 0 0 0 0 0 0 0 0 0 0
24 24 68 114 3 30 9 0 0 0 0 0 0 0 0 0 0 0 0 0 0 0 0 0 0 0 0 0 0 0 0 0 0 0 0 0 0 0 0 0 0 0 0
11 7 47 79 4 63 33 16 0 0 0 0 0 0 0 0 0 0 0 0 0 0 0 0 0 0 0 0 0 0 0 0 0 0 0 0 0 0 0 0 0 0 0
146 108 17 3 1 64 41 24 0 0 0 0 0 0 0 0 0 0 0 0 0 0 0 0 0 0 0 0 0 0 0 0 0 0 0 0 0 0 0 0 0 0 0
292 234 86 22 11 59 44 48 0 0 0 0 0 0 0 0 0 0 0 0 0 0 0 0 0 0 0 0 0 0 0 0 0 0 0 0 0 0 0 0 0 0 0
444 361 205 168 85 58 67 83 1 0 0 0 0 0 0 0 0 0 0 0 0 0 0 0 0 0 0 0 0 0 0 0 0 0 0 0 0 0 0 0 0 0 0
675 479 337 233 222 98 100 113 1 0 0 0 0 0 0 0 0 0 0 0 0 0 0 0 0 0 0 0 0 0 0 0 0 0 0 0 0 0 0 0 0 0 0
918 633 446 228 208 159 142 165 42 6 0 0 0 0 0 0 0 0 0 0 0 0 0 0 0 0 0 0 0 0 0 0 0 0 0 0 0 0 0 0 0 0 0
849 796 542 294 188 193 169 219 104 86 14 12 2 0 0 7 0 0 0 0 0 0 0 0 0 0 0 0 0 0 0 0 0 0 0 0 0 0 0 0 0 0 0
660 734 686 435 260 289 239 233 126 128 65 98 22 3 2 11 4 5 0 0 0 0 0 0 0 0 0 0 0 0 0 0 0 0 0 0 0 0 0 0 0 0 0
622 540 506 439 305 261 271 297 273 222 121 49 31 30 5 6 3 1 0 0 0 0 0 0 0 0 0 0 0 0 0 0 0 0 0 0 0 0 0 0 0 0 0
491 471 379 401 332 273 251 249 177 213 166 52 64 23 4 9 6 7 0 0 0 0 0 0 0 0 0 0 0 0 0 0 0 0 0 0 0 0 0 0 0 0 0
394 456 396 337 310 205 138 96 129 127 172 44 41 18 1 0 0 4 0 0 0 0 0 0 0 0 0 0 0 0 0 0 0 0 0 0 0 0 0 0 0 0 0
300 358 264 163 116 92 64 81 94 78 89 116 107 72 5 0 1 0 0 0 0 0 0 0 0 0 0 0 0 0 0 0 0 0 0 0 0 0 0 0 0 0 0
214 244 155 89 62 65 69 68 99 56 63 120 121 39 0 0 0 0 0 0 0 0 0 0 0 0 0 0 0 0 0 0 0 0 0 0 0 0 0 0 0 0 0
155 232 169 68 76 107 71 73 40 55 27 49 44 0 0 2 2 0 0 0 0 0 0 0 0 0 0 0 0 0 0 0 0 0 0 0 0 0 0 0 0 0 0
101 170 204 108 63 54 100 78 57 28 13 30 1 0 0 0 0 0 0 0 0 0 0 0 0 0 0 0 0 0 0 0 0 0 0 0 0 0 0 0 0 0 0
198 152 231 113 71 157 151 28 20 12 9 6 0 0 0 0 0 0 0 0 0 0 0 0 0 0 0 0 0 0 0 0 0 0 0 0 0 0 0 0 0 0 0
63 76 99 112 93 27 8 17 21 16 1 0 0 0 0 0 0 0 0 0 0 0 0 0 0 0 0 0 0 0 0 0 0 0 0 0 0 0 0 0 0 0 0
70 72 37 90 55 54 56 6 0 0 0 0 0 0 0 0 0 0 0 0 0 0 0 0 0 0 0 0 0 0 0 0 0 0 0 0 0 0 0 0 0 0 0
43 56 49 38 26 8 0 0 0 0 0 0 0 0 0 0 0 0 0 0 0 0 0 0 0 0 0 0 0 0 0 0 0 0 0 0 0 0 0 0 0 0 0
6 4 18 18 1 5 0 0 0 0 0 0 0 0 0 0 0 0 0 0 0 0 0 0 0 0 0 0 0 0 0 0 0 0 0 0 0 0 0 0 0 0 0
0 4 0 0 0 0 0 0 0 0 0 0 0 0 0 0 0 0 0 0 0 0 0 0 0 0 0 0 0 0 0 0 0 0 0 0 0 0 0 0 0 0 0
0 0 0 0 0 0 0 0 0 0 0 0 0 0 0 0 0 0 0 0 0 0 0 0 0 0 0 0 0 0 0 0 0 0 0 0 0 0 0 0 0 0 0

GFSMA_con_mucape_042.txt.gz
CAPE
173 179 170 64 67 54 0 0 0 0 0 0 0 0 0 0 0 0 0 0 0 0 0 0 0 0 0 0 0 0 0 0 0 0 0 0 0 0 0 1 1 2 1
184 206 129 73 35 11 0 0 0 0 0 0 0 0 0 0 0 0 0 0 0 0 0 0 0 0 0 0 0 0 0 0 0 0 0 0 0 0 0 0 0 0 1
105 154 99 94 28 7 0 0 0 0 0 0 0 0 0 0 0 0 0 0 0 0 0 0 0 0 0 0 0 0 0 0 0 0 0 0 0 0 0 0 0 0 0
11 94 114 93 89 2 0 0 0 0 0 0 0 0 0 0 0 0 0 0 0 0 0 0 0 0 0 0 0 0 0 0 0 0 0 0 0 0 0 0 0 0 0
28 12 48 99 123 20 16 7 4 0 0 0 0 0 0 0 0 0 0 0 0 0 0 0 0 0 0 0 0 0 0 0 0 0 0 0 0 0 0 0 0 0 0
38 15 21 30 76 46 9 36 8 0 0 0 0 0 0 0 0 0 0 0 0 0 0 0 0 0 0 0 0 0 0 0 0 0 0 0 0 0 0 0 0 0 0
186 101 75 55 38 78 4 34 24 6 0 0 0 0 0 0 0 0 0 0 0 0 0 0 0 0 0 0 0 0 0 0 0 0 0 0 0 0 0 0 0 0 0
444 299 149 128 80 48 9 20 40 26 0 0 0 0 0 0 0 0 0 0 0 0 0 0 0 0 0 0 0 0 0 0 0 0 0 0 0 0 0 0 0 0 0
664 453 351 257 138 108 83 46 63 57 13 0 0 0 0 0 0 0 0 0 0 0 0 0 0 0 0 0 0 0 0 0 0 0 0 0 0 0 0 0 0 0 0
911 680 631 443 196 143 125 87 62 71 66 34 9 0 0 0 0 0 0 0 0 0 0 0 0 0 0 0 0 0 0 0 0 0 0 0 0 0 0 0 0 0 0
886 786 718 644 357 225 129 129 133 71 87 44 42 30 11 3 0 0 0 0 0 0 0 0 0 0 0 0 0 0 0 0 0 0 0 0 0 0 0 0 0 0 0
631 699 630 606 522 341 310 147 152 116 151 81 85 49 39 69 5 0 0 1 2 0 0 0 0 0 0 0 0 0 0 0 0 0 0 0 0 0 0 0 0 0 0
496 627 603 517 555 492 419 235 143 142 95 120 82 76 83 17 10 7 3 0 0 0 0 0 0 0 0 0 0 0 0 0 0 0 0 0 0 0 0 0 0 0 0
310 484 668 587 494 415 430 319 141 98 108 151 89 121 110 50 4 14 2 0 5 0 0 0 0 0 0 0 0 0 0 0 0 0 0 0 0 0 0 0 0 0 0
314 259 334 501 561 396 344 268 200 94 116 112 140 134 46 3 16 1 3 0 0 0 0 0 0 0 0 0 0 0 0 0 0 0 0 0 0 0 0 0 0 0 0
292 310 217 221 329 466 337 216 158 112 119 126 97 88 14 7 2 1 9 12 0 1 0 2 0 0 0 0 0 0 0 0 0 0 0 0 0 0 0 0 0 0 0
56 110 142 201 220 268 305 300 84 84 100 92 130 25 8 2 17 1 0 2 0 0 0 3 0 0 0 0 0 0 0 0 0 0 0 0 0 0 0 0 0 0 0
0 15 67 132 188 135 101 89 64 82 108 64 37 1 0 1 6 7 3 0 0 0 0 0 0 0 0 0 0 0 0 0 0 0 0 0 0 0 0 0 0 0 0
0 3 9 52 24 41 86 97 104 97 77 14 1 2 17 0 0 10 0 0 0 0 0 0 0 0 0 0 0 0 0 0 0 0 0 0 0 0 0 0 0 0 0
153 119 178 68 88 81 124 87 16 3 25 45 0 14 1 4 0 0 0 0 0 0 0 0 0 0 0 0 0 0 0 0 0 0 0 0 0 0 0 0 0 0 0
97 110 86 88 86 86 82 10 24 5 14 0 0 10 8 0 0 0 0 0 0 0 0 0 0 0 0 0 0 0 0 0 0 0 0 0 0 0 0 0 0 0 0
127 146 76 38 62 22 2 9 0 7 12 10 6 0 0 0 0 0 0 0 0 0 0 0 0 0 0 0 0 0 0 0 0 0 0 0 0 0 0 0 0 0 0
50 13 19 28 15 10 14 4 7 3 4 0 0 0 0 0 0 0 0 0 0 0 0 0 0 0 0 0 0 0 0 0 0 0 0 0 0 0 0 0 0 0 0
11 20 5 0 18 16 0 3 0 0 0 0 0 0 0 0 0 0 0 0 0 0 0 0 0 0 0 0 0 0 0 0 0 0 0 0 0 0 0 0 0 0 0
0 0 0 0 0 0 0 0 0 0 0 0 0 0 0 0 0 0 0 0 0 0 0 0 0 0 0 0 0 0 0 0 0 0 0 0 0 0 0 0 0 0 0
0 0 0 0 0 0 0 0 0 0 0 0 0 0 0 0 0 0 0 0 0 0 0 0 0 0 0 0 0 0 0 0 0 0 0 0 0 0 0 0 0 0 0

GFSMA_con_mucape_045.txt.gz
CAPE
87 102 143 83 113 76 19 0 0 0 0 0 0 0 0 0 0 0 0 0 0 0 0 0 0 0 0 0 0 0 0 0 0 0 0 0 0 0 0 1 0 1 2
88 97 111 99 60 31 14 0 0 0 0 0 0 0 0 0 0 0 0 0 0 0 0 0 0 0 0 0 0 0 0 0 0 0 0 0 0 0 0 0 0 1 1
71 111 106 108 46 0 9 0 0 0 0 0 0 0 0 0 0 0 0 0 0 0 0 0 0 0 0 0 0 0 0 0 0 0 0 0 0 0 0 0 0 0 0
37 97 105 118 50 9 0 0 0 0 0 0 0 0 0 0 0 0 0 0 0 0 0 0 0 0 0 0 0 0 0 0 0 0 0 0 0 0 0 0 0 0 0
77 46 60 75 60 48 6 0 0 0 0 0 0 0 0 0 0 0 0 0 0 0 0 0 0 0 0 0 0 0 0 0 0 0 0 0 0 0 0 0 0 0 0
217 100 33 24 64 75 63 1 0 0 0 0 0 0 0 0 0 0 0 0 0 0 0 0 0 0 0 0 0 0 0 0 0 0 0 0 0 0 0 0 0 0 0
589 310 99 21 20 70 94 42 0 3 5 0 0 0 0 0 0 0 0 0 0 0 0 0 0 0 0 0 0 0 0 0 0 0 0 0 0 0 0 0 0 0 0
779 586 402 127 73 36 24 77 1 11 13 9 0 0 0 0 0 0 0 0 0 0 0 0 0 0 0 0 0 0 0 0 0 0 0 0 0 0 0 0 0 0 7
927 751 647 358 134 80 67 69 30 1 22 23 8 0 0 0 0 0 0 0 0 0 0 0 0 0 0 0 0 0 0 0 0 0 0 0 0 0 0 0 0 0 12
817 847 753 613 312 131 100 90 59 35 15 23 44 4 15 6 2 0 0 0 0 0 0 0 0 0 0 0 0 0 0 0 0 0 0 0 0 0 0 0 0 0 0
446 719 702 711 519 387 217 142 88 57 46 39 26 30 10 3 7 14 1 0 0 0 0 0 0 0 0 0 0 0 0 0 0 0 0 0 0 0 0 0 0 0 0
503 567 551 690 658 562 393 278 209 140 90 72 96 55 36 22 42 27 4 9 0 0 0 0 0 0 0 0 0 0 0 0 0 0 0 0 0 0 0 0 0 0 0
382 392 494 560 638 604 509 362 272 212 162 106 107 78 89 73 68 43 16 22 9 2 0 0 0 0 0 0 0 0 0 0 0 0 0 0 0 0 0 0 0 0 0
276 285 336 350 389 582 468 322 265 180 260 149 92 148 83 60 54 42 52 50 19 0 0 4 6 0 0 0 0 0 0 0 0 0 0 0 0 0 0 0 0 0 0
259 341 269 254 214 280 475 416 310 187 166 211 98 200 96 82 58 60 54 8 10 0 0 3 1 1 1 0 0 0 0 0 0 0 0 0 0 0 0 0 0 0 0
78 87 190 215 274 276 428 462 366 274 250 198 84 129 110 65 24 22 24 26 0 0 6 1 1 0 0 1 0 0 0 0 0 0 0 0 0 0 0 0 0 0 0
16 42 53 79 231 282 275 270 296 263 216 213 167 156 135 101 8 12 0 3 24 0 0 0 2 0 0 0 0 0 0 0 0 0 0 0 0 0 0 0 0 0 0
45 41 25 29 4 6 151 265 220 150 259 223 261 102 71 42 84 14 0 4 0 0 0 0 0 0 0 0 0 0 0 0 0 0 0 0 0 0 0 0 0 0 0
109 65 6 2 3 5 84 93 67 111 170 93 112 15 6 64 1 11 1 0 0 0 0 0 0 0 0 0 0 0 0 0 0 0 0 0 0 0 0 0 0 0 0
91 131 36 4 3 41 110 94 120 123 105 28 52 10 0 0 4 9 0 0 0 0 0 0 0 0 0 0 0 0 0 0 0 0 0 0 0 0 0 0 0 0 0
100 114 81 109 112 135 55 47 29 50 43 43 2 0 0 0 0 0 0 0 0 0 0 0 0 0 0 0 0 0 0 0 0 0 0 0 0 0 0 0 0 0 0
206 198 111 148 135 50 29 84 65 41 9 0 26 0 0 0 0 0 0 0 0 0 0 0 0 0 0 0 0 0 0 0 0 0 0 0 0 0 0 0 0 0 0
79 131 146 91 76 43 5 10 0 2 5 0 1 0 0 0 0 0 0 0 0 0 0 0 0 0 0 0 0 0 0 0 0 0 0 0 0 0 0 0 0 0 0
39 44 21 24 5 4 8 3 0 0 0 0 0 0 0 0 0 0 0 0 0 0 0 0 0 0 0 0 0 0 0 0 0 0 0 0 0 0 0 0 0 0 0
12 1 0 1 0 0 0 0 0 0 0 0 0 0 0 0 0 0 0 0 0 0 0 0 0 0 0 0 0 0 0 0 0 0 0 0 0 0 0 0 0 0 0
0 0 0 0 0 0 0 0 0 0 0 0 0 0 0 0 0 0 0 0 0 0 0 0 0 0 0 0 0 0 0 0 0 0 0 0 0 0 0 0 0 0 0

GFSMA_con_mucape_048.txt.gz
CAPE
139 167 172 115 39 85 106 91 2 0 0 0 0 0 0 0 0 0 2 0 4 0 0 0 0 0 0 0 0 0 0 0 0 0 0 0 0 0 0 1 0 0 0
105 138 160 175 126 69 80 40 0 0 0 0 0 0 0 0 0 0 0 0 0 0 0 0 0 0 0 0 0 0 0 0 0 0 0 0 0 0 0 0 0 0 0
77 79 109 167 178 120 47 27 0 0 0 0 0 0 0 0 0 0 0 0 0 0 0 0 0 0 0 0 0 0 0 0 0 0 0 0 0 0 0 0 0 0 0
78 77 107 164 204 158 37 0 0 0 0 0 0 0 0 0 0 0 0 0 0 0 0 0 0 0 0 0 0 0 0 0 0 0 0 0 0 0 0 0 0 0 0
133 93 99 121 174 150 42 0 0 0 0 0 0 0 0 0 0 0 0 0 0 0 0 0 0 0 0 0 0 0 0 0 0 0 0 0 0 0 0 0 0 0 0
287 246 95 103 127 131 79 0 0 0 0 0 0 0 0 0 0 0 0 0 0 0 0 0 0 0 0 0 0 0 0 0 0 0 0 0 0 0 0 0 0 0 0
331 406 266 103 110 123 116 9 17 0 0 0 0 0 0 0 0 0 0 0 0 0 0 0 0 0 0 0 0 0 0 0 0 0 0 0 0 0 0 0 0 0 0
385 344 442 285 142 135 125 82 8 22 0 0 0 0 0 0 0 0 0 0 0 0 0 0 0 0 0 0 0 0 0 0 0 0 0 0 0 0 0 0 0 0 0
484 461 404 466 364 169 163 135 42 23 33 0 0 0 0 0 0 0 0 0 0 0 0 0 0 0 0 0 0 0 0 0 0 0 0 0 0 0 0 0 0 0 0
554 427 457 433 343 275 142 90 84 57 24 10 0 3 0 0 0 0 0 0 0 0 0 0 0 0 0 0 0 0 0 0 0 0 0 0 0 0 0 0 0 0 0
247 551 146 218 269 410 438 193 108 89 74 63 46 27 26 26 2 0 0 0 0 1 0 0 0 0 0 0 0 0 0 0 0 0 0 0 0 0 0 0 0 0 0
274 234 422 137 206 236 379 345 275 115 94 78 52 37 41 53 56 27 7 10 27 12 0 1 1 0 0 0 0 0 0 0 0 0 0 0 0 0 0 0 0 0 0
400 283 505 312 207 156 216 300 190 284 149 119 68 82 65 53 66 76 48 43 44 26 23 1 8 1 5 2 0 0 0 0 0 0 0 0 0 0 0 0 0 0 0
598 340 172 281 191 138 123 99 79 186 302 206 203 185 138 81 87 92 70 103 39 16 6 11 4 1 1 0 0 0 0 0 0 0 0 0 0 0 0 0 0 0 0
334 462 386 369 323 305 241 201 128 318 313 274 256 197 212 147 85 98 111 44 115 4 19 5 0 1 3 1 0 0 1 1 1 1 0 0 0 0 0 0 0 0 0
106 227 152 126 40 156 261 227 163 122 214 193 225 197 173 187 101 75 135 113 8 202 19 0 0 0 3 1 1 0 1 0 0 0 2 0 0 0 0 0 0 0 0
58 83 111 151 146 182 176 172 198 249 173 207 205 188 217 194 135 47 55 26 39 57 1 1 0 0 0 0 0 0 0 0 0 0 0 0 0 0 0 0 0 0 0
37 82 134 148 185 173 157 195 163 171 213 314 584 399 258 264 204 212 111 88 12 9 5 1 0 0 0 0 0 0 0 0 0 0 0 0 0 0 0 0 0 0 0
89 142 133 168 179 149 122 69 49 103 349 192 188 206 205 217 199 54 9 0 0 0 0 0 0 0 0 0 0 0 0 0 0 0 0 0 0 0 0 0 0 0 0
38 38 82 142 116 37 53 13 6 299 180 109 155 296 154 87 16 43 25 0 0 0 0 0 0 0 0 0 0 0 0 0 0 0 0 0 0 0 0 0 0 0 0
8 0 16 100 132 149 16 11 36 110 137 158 173 195 64 8 1 2 0 0 0 0 0 0 0 0 0 0 0 0 0 0 0 0 0 0 0 0 0 0 0 0 0
64 33 173 124 192 147 68 25 104 135 78 10 6 15 5 0 3 0 0 0 0 0 0 0 0 0 0 0 0 0 0 0 0 0 0 0 0 0 0 0 0 0 0
29 37 89 172 119 45 52 37 40 16 10 29 0 1 3 0 0 0 0 0 3 0 0 0 0 0 0 0 0 0 0 0 0 0 0 0 0 0 0 0 0 0 0
2 1 15 27 4 8 5 0 3 0 1 0 0 0 0 0 0 0 0 0 0 0 0 0 0 0 0 0 0 0 0 0 0 0 0 0 0 0 0 0 0 0 0
0 1 4 0 1 4 2 2 0 0 0 0 0 0 0 0 0 0 0 0 0 0 0 0 0 0 0 0 0 0 0 0 0 0 0 0 0 0 0 0 0 0 0
0 0 0 0 0 0 0 0 0 0 0 0 0 0 0 0 0 0 0 0 0 0 0 0 0 0 0 0 0 0 0 0 0 0 0 0 0 0 0 0 0 0 0

GFSMA_con_mucape_051.txt.gz
CAPE
103 122 92 43 5 59 79 164 100 0 0 0 0 0 0 0 0 0 3 0 10 0 0 0 0 0 0 0 0 0 0 0 0 0 0 0 0 0 0 1 2 2 2
89 128 136 134 83 42 55 67 55 0 0 0 0 0 0 0 0 0 0 0 1 0 0 0 0 0 0 0 0 0 0 0 0 0 0 0 0 0 0 0 0 0 0
98 89 114 158 178 120 52 38 18 0 0 0 0 0 0 0 0 0 0 0 0 0 0 0 0 0 0 0 0 0 0 0 0 0 0 0 0 0 0 0 0 0 0
121 100 113 120 136 186 148 69 33 0 0 0 0 0 0 0 0 0 0 0 0 0 0 0 0 0 0 0 0 0 0 0 0 0 0 0 0 0 0 0 0 0 0
248 143 118 112 94 219 102 104 37 0 0 0 0 0 0 0 0 0 0 0 0 0 0 0 0 0 0 0 0 0 0 0 0 0 0 0 0 0 0 0 0 0 0
594 407 283 176 123 222 167 121 40 0 0 0 0 0 0 0 0 0 0 0 0 0 0 0 0 0 0 0 0 0 0 0 0 0 0 0 0 0 0 0 0 0 0
808 700 526 379 272 257 320 196 65 1 0 0 0 0 0 0 0 0 0 0 0 0 0 0 0 0 0 0 0 0 0 0 0 0 0 0 0 0 0 0 0 0 0
1040 791 774 621 452 321 300 203 94 18 0 0 0 0 0 0 0 0 0 0 0 0 0 0 0 0 0 0 0 0 0 0 0 0 0 0 0 0 0 0 0 0 0
1067 1006 805 775 684 470 391 356 250 81 41 25 15 0 0 0 0 0 0 0 0 0 0 0 0 0 0 0 0 0 0 0 0 0 0 0 0 0 0 0 0 0 0
442 613 731 697 650 634 497 480 348 133 105 45 43 8 7 0 0 0 0 0 0 0 0 0 0 0 0 0 0 0 0 0 0 0 0 0 0 0 0 0 0 0 0
771 431 425 770 609 521 521 529 399 243 185 74 61 48 47 24 13 3 1 12 0 0 0 0 0 0 0 0 0 0 0 0 0 0 0 0 0 0 0 0 0 0 0
690 790 421 752 606 639 510 812 449 219 168 143 60 84 87 58 52 41 46 23 13 2 2 10 1 3 0 0 0 0 0 0 0 0 0 0 0 0 0 0 0 0 0
576 688 350 608 679 602 675 609 601 258 176 179 166 51 69 67 102 71 64 65 55 62 16 19 13 1 2 5 6 15 0 2 0 0 0 0 0 0 1 0 0 0 0
198 481 627 353 511 419 400 694 539 509 357 191 170 141 110 102 104 127 90 85 61 98 41 63 96 8 4 1 6 8 3 0 1 1 0 0 5 6 0 0 0 0 0
8 124 531 533 365 474 526 553 732 579 282 216 177 220 145 147 163 208 169 10 62 57 172 85 49 62 16 7 0 4 1 3 4 4 7 5 0 0 0 0 0 0 0
0 17 161 313 292 463 449 521 534 374 194 178 182 214 167 149 205 207 162 143 160 145 90 24 0 0 4 6 3 4 1 0 0 0 0 0 0 0 0 0 0 0 0
0 1 47 116 192 292 282 154 286 249 245 113 111 123 164 164 153 140 155 153 132 99 98 32 0 3 0 0 1 0 1 0 0 0 0 0 0 0 0 0 0 0 0
0 0 1 43 186 243 223 225 173 215 269 285 126 265 312 358 285 270 224 173 40 69 8 39 0 0 0 0 0 0 0 0 0 0 0 0 0 0 0 0 0 0 0
0 0 1 6 159 160 200 286 314 267 267 221 240 232 249 246 215 204 193 160 109 13 0 1 11 0 0 0 0 0 0 1 0 0 0 0 0 0 0 0 0 0 0
0 2 0 0 8 16 99 178 178 165 261 137 100 356 229 191 152 119 143 66 18 1 1 2 6 0 0 0 0 1 2 0 0 0 0 0 0 0 0 0 0 0 0
0 1 0 0 0 0 2 126 128 29 53 101 111 119 122 125 108 79 23 9 1 2 0 1 0 0 0 0 0 0 0 0 0 0 0 0 0 0 0 0 0 0 0
6 0 0 0 10 4 2 0 43 44 85 78 53 10 20 34 60 45 0 0 0 0 0 0 0 0 0 0 0 0 0 0 0 0 0 0 0 0 0 0 0 0 0
5 2 0 0 6 0 10 14 11 12 70 19 48 27 5 5 0 0 0 0 2 5 0 0 0 0 0 0 0 0 0 0 0 0 0 0 0 0 0 0 0 0 0
0 3 0 0 0 2 0 0 0 0 0 0 0 1 0 0 0 0 0 0 0 0 0 0 0 0 0 0 0 0 0 0 0 0 0 0 0 0 0 0 0 0 0
0 2 0 0 0 0 0 0 0 0 1 0 0 0 0 0 0 0 0 0 0 0 0 0 0 0 0 0 0 0 0 0 0 0 0 0 0 0 0 0 0 0 0
0 0 0 0 0 0 0 0 0 0 0 0 0 0 0 0 0 0 0 0 0 0 0 0 0 0 0 0 0 0 0 0 0 0 0 0 0 0 0 0 0 0 0

GFSMA_con_mucape_054.txt.gz
CAPE
42 55 14 4 2 19 4 67 50 8 0 0 0 0 0 0 0 0 0 0 0 0 0 0 0 0 0 0 0 0 0 0 0 0 0 0 0 0 0 0 1 1 0
49 64 52 34 28 4 34 77 73 43 2 0 0 0 0 0 0 0 0 0 0 0 0 0 0 0 0 0 0 0 0 0 0 0 0 0 0 0 0 0 0 0 0
43 49 55 61 45 47 13 37 36 33 17 0 0 0 0 0 0 0 0 0 0 0 0 0 0 0 0 0 0 0 0 0 0 0 0 0 0 0 0 0 0 0 0
30 29 49 56 67 65 61 23 18 10 7 0 0 0 0 0 0 0 0 0 0 0 0 0 0 0 0 0 0 0 0 0 0 0 0 0 0 0 0 0 0 0 0
299 131 42 44 53 58 68 66 33 15 1 0 0 0 0 0 0 0 0 0 0 0 0 0 0 0 0 0 0 0 0 0 0 0 0 0 0 0 0 0 0 0 0
390 344 253 128 76 47 98 96 72 30 14 0 0 0 0 0 0 0 0 0 0 0 0 0 0 0 0 0 0 0 0 0 0 0 0 0 0 0 0 0 0 0 0
606 414 367 311 178 113 100 137 99 58 33 14 0 0 0 0 0 0 0 0 0 0 0 0 0 0 0 0 0 0 0 0 0 0 0 0 0 0 0 0 0 0 0
847 716 506 359 310 184 162 157 154 94 71 75 25 7 0 0 0 0 0 0 0 0 0 0 0 0 0 0 0 0 0 0 0 0 0 0 0 0 0 0 0 0 0
747 884 775 716 433 305 232 207 231 181 139 86 68 32 14 4 3 0 0 0 0 0 0 0 0 0 0 0 0 0 0 0 0 0 0 0 0 0 0 0 0 0 0
452 503 619 682 748 762 517 344 315 252 200 147 114 80 64 21 15 4 5 2 0 1 9 4 0 0 0 0 0 0 0 0 0 0 0 0 0 0 0 0 0 0 0
621 573 504 451 560 746 847 798 588 614 454 244 166 161 100 44 16 12 30 33 28 19 18 14 8 0 0 0 0 0 0 0 0 0 0 0 0 0 0 0 0 0 0
50 367 560 610 420 719 639 637 911 594 525 356 352 218 201 152 86 54 47 55 58 36 40 33 20 6 5 1 0 1 2 0 0 1 2 0 0 2 3 0 0 0 0
10 133 333 385 383 462 482 694 716 676 617 553 429 448 213 153 132 112 76 54 46 59 54 68 34 27 13 9 6 19 13 3 7 1 5 4 4 7 4 1 0 0 0
0 1 13 149 214 366 489 502 667 560 669 702 606 544 478 258 94 78 100 109 91 105 116 121 59 49 4 3 8 3 5 16 4 8 8 4 3 3 2 0 2 1 0
0 0 0 1 142 312 385 641 656 591 742 780 671 550 493 272 279 281 111 76 73 70 89 5 10 1 1 12 15 4 3 3 3 4 1 1 2 3 1 0 0 0 0
0 0 0 0 43 133 278 426 577 692 836 887 776 650 517 402 273 324 274 154 203 120 63 91 0 0 4 3 1 1 1 4 1 3 1 1 1 0 0 0 0 0 0
0 0 0 0 2 1 17 196 326 459 571 609 596 423 484 196 114 100 128 187 135 102 83 71 18 0 1 0 1 1 5 0 6 1 0 0 2 0 0 0 0 0 0
0 0 0 0 0 3 8 16 123 265 202 253 277 326 190 129 134 174 243 141 15 91 9 32 1 38 7 0 0 0 0 0 0 6 0 0 0 0 0 0 0 0 0
0 0 0 0 0 1 3 7 45 60 155 214 256 328 370 344 273 224 283 226 128 34 39 6 7 3 0 0 0 0 4 0 0 0 0 0 0 0 0 0 0 0 0
0 0 2 2 0 0 0 0 0 47 55 119 92 140 127 236 214 198 130 124 118 60 14 8 1 0 0 0 0 0 4 0 0 0 0 0 0 0 0 0 0 0 0
1 1 1 0 0 0 0 0 0 1 5 7 17 14 28 153 84 68 23 37 40 12 1 0 0 0 0 1 0 0 0 0 0 0 0 0 0 0 0 0 0 0 0
0 0 0 0 0 0 0 0 0 0 3 9 0 0 3 107 32 1 0 6 0 0 0 0 0 0 0 0 0 0 0 0 0 0 0 0 0 0 0 0 0 0 0
0 0 0 0 0 0 0 0 0 0 0 0 4 6 1 9 0 0 0 0 1 2 0 0 0 0 0 0 0 0 0 0 0 0 0 0 0 0 0 0 0 0 0
0 0 0 0 0 0 0 0 0 0 0 0 0 0 0 0 0 0 0 0 0 0 0 0 0 0 0 0 0 0 0 0 0 0 0 0 0 0 0 0 0 0 0
0 0 0 0 0 0 0 0 0 0 0 0 0 0 0 0 0 0 0 0 0 0 0 0 0 0 0 0 0 0 0 0 0 0 0 0 0 0 0 0 0 0 0
0 0 0 0 0 0 0 0 0 0 0 0 0 0 0 0 0 0 0 0 0 0 0 0 0 0 0 0 0 0 0 0 0 0 0 0 0 0 0 0 0 0 0

GFSMA_con_mucape_057.txt.gz
CAPE
0 10 27 4 0 4 25 32 22 2 0 0 0 0 0 0 0 0 0 0 0 0 0 0 0 0 0 0 0 0 0 0 0 0 0 0 0 0 0 0 0 0 1
0 7 29 43 16 16 13 32 47 35 8 0 0 0 0 0 0 0 0 0 0 0 0 0 0 0 0 0 0 0 0 0 0 0 0 0 0 0 0 0 0 0 0
0 0 21 45 49 42 40 23 28 64 65 35 21 0 0 0 0 0 0 0 0 0 0 0 0 0 0 0 1 0 0 0 0 0 0 0 0 0 0 0 0 0 0
86 12 21 34 47 59 52 42 12 52 48 35 28 0 0 0 0 0 0 0 0 0 0 0 0 0 0 0 2 0 0 0 0 0 0 0 0 0 0 0 0 0 0
282 199 72 38 44 47 70 78 66 33 25 32 32 12 0 0 0 0 0 0 0 0 0 0 0 0 0 0 0 0 0 0 0 0 0 0 0 0 0 0 0 0 0
399 353 316 238 115 56 46 85 103 93 59 30 29 19 1 0 0 0 0 0 0 0 0 0 0 0 0 0 0 0 0 0 0 0 0 0 0 0 0 0 0 0 0
436 489 425 406 335 230 158 102 103 133 137 114 35 19 11 3 0 0 0 0 0 0 0 0 0 0 0 0 0 0 0 0 0 0 0 0 0 0 0 0 0 0 0
527 475 387 471 360 329 295 205 137 154 192 190 112 67 15 2 0 6 6 0 0 0 0 0 0 0 0 0 0 0 0 0 0 0 0 0 0 0 0 0 0 0 0
132 144 471 508 527 447 278 240 189 145 146 140 149 87 30 6 15 16 28 36 25 1 0 0 10 12 2 0 0 0 0 0 0 0 0 0 0 0 0 0 0 0 0
253 269 169 264 388 372 502 433 245 157 201 152 130 113 91 64 37 12 25 46 46 30 31 20 20 19 13 8 0 0 0 0 0 0 0 0 0 0 0 0 0 0 0
242 510 494 358 292 184 310 397 541 526 439 286 272 231 186 136 125 54 44 52 54 51 50 72 37 29 24 12 1 8 0 4 4 0 0 0 0 0 0 0 0 1 0
0 0 278 374 402 420 278 223 163 276 452 458 403 401 361 306 366 198 65 60 64 51 55 62 70 53 35 15 20 21 12 8 8 7 0 0 0 0 0 3 3 21 13
0 0 0 20 111 227 279 284 189 229 256 419 408 337 423 417 349 300 327 136 50 62 47 72 62 83 31 53 14 17 16 15 11 9 4 2 1 6 8 1 4 6 8
0 0 0 0 0 21 82 159 194 199 279 301 347 384 309 383 451 302 108 216 169 141 80 60 57 61 75 32 32 30 2 0 14 12 7 3 0 1 5 2 3 4 3
0 0 0 0 0 13 58 75 161 107 199 272 312 402 447 457 523 431 227 259 177 118 95 37 64 73 63 9 0 1 5 1 0 1 6 1 0 1 7 6 6 5 4
0 0 0 0 0 0 0 4 11 19 48 132 273 543 699 688 667 488 85 208 112 210 61 21 65 83 4 7 3 1 1 3 1 3 6 3 3 6 1 4 4 0 4
0 0 0 0 0 0 0 0 0 2 3 11 42 311 479 518 536 419 298 105 0 0 0 61 21 30 1 0 0 4 3 0 2 7 0 2 0 0 0 0 0 0 0
0 0 0 0 0 0 0 0 0 2 3 9 38 132 290 347 298 395 89 93 10 22 37 9 4 1 15 5 2 1 3 1 7 0 0 0 0 0 0 0 0 0 0
0 0 0 0 0 0 0 1 0 0 1 6 68 73 64 125 197 176 190 95 105 118 72 67 21 24 6 8 0 3 0 0 0 0 0 0 0 0 0 0 0 0 0
0 0 0 0 0 0 0 0 0 0 0 2 28 27 29 1 5 10 19 28 14 64 40 24 10 6 0 0 3 1 0 0 0 0 0 0 0 0 0 0 0 0 0
0 0 0 0 0 0 0 0 0 0 0 0 8 15 5 8 0 1 3 9 23 13 5 1 0 0 0 3 0 0 4 0 0 0 0 0 0 0 0 0 0 0 0
0 0 0 0 0 0 0 0 0 0 0 0 0 5 0 0 0 0 4 14 0 6 1 0 0 0 0 0 0 0 0 0 0 0 0 0 0 0 0 0 0 0 0
0 0 0 0 0 0 0 0 0 0 0 0 0 0 0 0 0 0 0 0 0 0 0 0 0 0 0 0 0 0 0 0 0 0 0 0 0 0 0 0 0 0 0
0 0 0 0 0 0 0 0 0 0 0 0 0 0 0 0 0 0 0 0 0 0 0 0 0 0 0 0 0 0 0 0 0 0 0 0 0 0 0 0 0 0 0
0 0 0 0 0 0 0 0 0 0 0 0 0 0 0 0 0 0 0 0 0 0 0 0 0 0 0 0 0 0 0 0 0 0 0 0 0 0 0 0 0 0 0
0 0 0 0 0 0 0 0 0 0 0 0 0 0 0 0 0 0 0 0 0 0 0 0 0 0 0 0 0 0 0 0 0 0 0 0 0 0 0 0 0 0 0

GFSMA_con_mucape_060.txt.gz
CAPE
0 0 3 17 5 13 30 58 25 7 1 0 0 0 0 0 0 0 0 0 36 13 0 1 0 0 0 0 0 0 1 1 0 0 1 1 1 1 0 1 2 2 2
0 0 2 29 36 6 1 20 16 14 14 4 0 0 0 0 0 0 0 0 0 3 0 0 0 0 0 1 1 0 0 0 0 0 0 0 0 0 0 0 0 0 0
32 28 0 12 29 25 17 13 6 19 36 51 42 17 12 0 0 0 0 0 0 0 0 0 0 1 0 0 3 0 0 0 0 0 0 0 0 0 0 0 0 0 0
111 70 27 0 8 8 24 36 48 39 30 63 76 50 37 13 0 0 0 0 0 0 0 0 0 0 0 0 8 0 0 0 0 0 0 0 0 0 0 0 0 0 0
169 153 168 68 3 9 19 28 38 46 56 42 86 27 27 16 0 0 0 0 0 0 0 0 0 0 3 0 0 11 0 0 0 0 0 0 0 0 0 0 0 0 0
211 215 225 207 153 95 56 35 41 58 72 105 96 51 21 26 14 2 0 0 0 0 0 0 0 0 0 0 0 2 3 0 0 0 0 0 0 0 0 0 0 0 0
343 260 210 268 286 158 129 137 121 86 94 127 130 49 68 42 18 29 13 9 7 4 0 0 0 0 0 0 0 0 0 0 0 0 0 0 0 0 0 0 0 0 0
310 345 302 178 225 284 281 195 217 138 100 96 102 86 45 7 17 54 58 29 25 18 16 13 2 0 0 0 0 0 0 0 0 0 0 0 0 0 0 0 0 0 0
356 277 175 108 218 272 291 316 295 243 169 117 125 111 41 0 0 0 21 33 22 17 22 28 47 27 0 3 2 0 0 0 0 0 0 0 0 0 0 0 0 0 0
18 102 156 136 109 161 255 229 209 209 149 104 123 170 194 82 37 16 6 43 51 40 30 33 46 41 22 9 23 10 0 0 0 0 0 0 5 0 0 0 0 0 0
0 0 0 126 229 122 129 106 129 170 202 198 92 111 106 128 109 185 105 58 93 90 76 72 33 22 54 52 60 10 15 0 0 0 0 0 0 1 0 0 1 0 0
0 0 0 0 23 172 95 123 109 79 95 98 92 105 103 117 324 179 178 136 73 117 156 173 39 36 44 61 50 27 22 15 1 4 2 0 10 7 4 0 0 0 0
0 0 0 0 0 0 0 75 104 73 67 69 84 58 62 68 126 230 307 132 132 86 160 105 39 33 67 42 55 32 12 5 4 3 5 7 1 0 1 3 1 1 1
0 0 0 0 0 0 0 0 1 37 46 42 54 66 75 72 113 122 190 228 84 137 20 2 0 22 102 31 76 10 2 3 15 3 1 1 0 0 0 1 1 1 0
0 0 0 0 0 0 0 0 0 13 26 0 2 15 39 58 81 142 139 256 311 148 6 0 0 3 7 7 7 18 49 4 3 0 1 1 0 0 0 2 1 1 2
0 0 0 0 0 0 0 0 0 0 0 0 0 2 12 8 68 140 361 389 374 228 66 1 0 0 0 1 3 1 2 5 5 0 1 4 0 1 8 3 0 0 5
0 0 0 0 0 0 0 0 0 0 0 0 0 4 4 18 29 61 61 166 293 200 104 21 0 0 0 0 2 2 0 1 0 6 2 4 6 7 3 0 0 0 1
0 0 0 0 0 0 0 0 0 0 0 0 0 3 5 12 20 73 42 19 12 45 28 24 75 10 22 0 5 2 0 6 2 5 5 0 0 0 0 0 0 0 0
0 0 0 0 0 0 0 0 0 0 0 0 0 0 4 9 16 14 1 0 2 1 28 7 24 28 13 4 7 1 1 2 4 2 1 0 0 0 0 0 0 0 0
0 0 0 0 0 0 0 0 0 0 0 0 0 0 0 0 6 0 0 0 0 0 11 19 7 2 11 0 0 0 0 1 0 0 0 0 0 0 0 0 0 0 0
0 0 0 0 0 0 0 0 0 0 0 0 0 0 0 1 0 0 2 0 0 0 13 14 3 3 3 0 0 0 0 0 0 0 0 0 0 0 0 0 0 0 0
0 0 0 0 0 0 0 0 0 0 0 0 0 0 0 0 0 0 0 0 0 0 0 0 0 0 0 0 0 0 0 0 0 0 0 0 0 0 0 0 0 0 0
0 0 0 0 0 0 0 0 0 0 0 0 0 0 0 0 0 0 0 0 0 0 0 0 0 0 0 0 0 0 0 0 0 0 0 0 0 0 0 0 0 0 0
0 0 0 0 0 0 0 0 0 0 0 0 0 0 0 0 0 0 0 0 0 0 0 0 0 0 0 0 0 0 0 0 0 0 0 0 0 0 0 0 0 0 0
0 0 0 0 0 0 0 0 0 0 0 0 0 0 0 0 0 0 0 0 0 0 0 0 0 0 0 0 0 0 0 0 0 0 0 0 0 0 0 0 0 0 0
0 0 0 0 0 0 0 0 0 0 0 0 0 0 0 0 0 0 0 0 0 0 0 0 0 0 0 0 0 0 0 0 0 0 0 0 0 0 0 0 0 0 0

GFSMA_con_mucape_063.txt.gz
CAPE
0 0 0 0 0 0 21 37 55 22 9 0 0 0 0 0 0 2 19 56 96 159 32 17 3 0 0 0 0 0 1 1 1 1 3 4 4 4 4 5 5 5 5
0 0 0 0 0 14 4 6 24 23 2 0 0 0 0 0 0 0 0 11 20 103 95 16 1 1 1 1 0 0 2 3 2 3 3 2 2 2 2 3 2 3 3
31 27 28 11 0 14 18 13 1 0 0 0 5 8 5 2 2 0 0 0 9 3 57 0 0 1 2 3 7 0 0 4 3 4 1 0 0 0 0 0 0 0 0
75 89 90 59 42 0 7 22 18 10 11 1 0 19 25 16 10 13 5 0 0 0 0 55 39 1 2 5 7 0 0 2 3 3 0 0 0 0 0 0 0 0 0
98 108 139 137 130 109 49 5 0 0 0 16 22 38 40 56 24 15 19 12 0 0 1 0 16 25 19 0 0 0 0 0 0 0 0 0 0 0 0 0 0 0 0
132 132 162 197 215 228 176 119 63 48 33 29 27 25 50 66 50 39 52 43 45 31 23 12 2 0 0 1 0 0 0 0 0 0 0 0 0 0 0 0 0 0 0
304 270 313 261 248 192 195 143 56 53 47 62 56 40 47 51 40 54 84 98 83 78 67 44 39 21 0 0 1 2 0 28 0 0 0 0 0 0 0 0 0 0 0
324 274 270 250 179 157 115 130 163 178 114 114 84 55 13 0 0 3 29 42 51 58 78 76 36 31 39 6 0 3 12 0 0 0 0 0 0 0 0 0 0 0 0
323 215 286 290 189 139 0 53 170 223 188 163 143 83 47 8 5 4 3 2 8 18 42 48 48 51 50 46 30 1 5 25 0 0 0 0 0 0 0 0 0 0 0
0 0 8 99 127 129 115 71 105 180 142 99 55 35 64 95 52 20 2 0 8 19 60 75 80 57 66 80 80 68 2 15 18 0 7 0 0 0 0 0 0 0 0
0 0 0 0 0 98 191 126 67 61 77 58 43 30 52 73 31 9 7 21 23 11 22 77 95 84 83 104 35 14 5 3 9 9 61 0 0 0 0 0 0 1 0
0 0 0 0 0 0 13 139 105 89 79 65 65 53 72 60 32 28 21 16 26 5 22 20 20 17 25 4 30 13 8 8 6 3 7 2 0 1 2 0 1 1 0
0 0 0 0 0 0 0 14 60 71 65 58 56 73 62 63 50 62 59 32 11 8 8 7 4 32 4 7 3 2 1 4 5 2 4 0 1 1 2 0 1 1 1
0 0 0 0 0 0 0 0 15 29 54 54 31 45 34 28 56 58 82 76 33 14 5 2 0 15 22 0 0 0 1 1 0 0 1 0 0 1 0 0 1 1 0
0 0 0 0 0 0 0 0 3 11 8 10 12 10 0 3 0 9 27 35 63 39 6 5 6 10 17 0 0 0 0 0 0 0 0 0 0 1 1 0 0 1 0
0 0 0 0 0 0 0 0 0 0 0 0 0 0 0 0 0 2 7 17 8 5 13 7 3 10 80 2 0 0 0 0 0 0 0 0 1 0 4 1 5 2 7
0 0 0 0 0 0 0 0 0 0 0 0 0 0 0 0 1 4 5 3 11 5 6 4 6 12 21 0 2 0 0 0 1 1 2 1 0 3 0 0 3 5 5
0 0 0 0 0 0 0 0 0 0 0 0 0 0 0 0 0 4 4 4 3 5 2 0 0 5 7 5 2 3 0 0 1 1 0 5 6 1 0 0 5 7 0
0 0 0 0 0 0 0 0 0 0 0 0 0 0 0 0 0 1 0 0 0 0 0 0 0 0 0 0 2 1 3 6 3 1 2 6 4 3 0 4 0 0 0
0 0 0 0 0 0 0 0 0 0 0 0 0 0 0 0 0 0 0 0 0 0 0 0 0 0 0 4 1 6 4 4 9 1 5 3 1 0 0 0 0 0 0
0 0 0 0 0 0 0 0 0 0 0 0 0 0 0 0 0 0 0 0 0 0 0 0 0 0 0 0 0 0 0 0 0 0 0 0 0 0 0 0 0 0 0
0 0 0 0 0 0 0 0 0 0 0 0 0 0 0 0 0 0 0 0 0 0 0 0 0 0 0 0 0 0 0 0 0 0 0 0 0 0 0 0 0 0 0
0 0 0 0 0 0 0 0 0 0 0 0 0 0 0 0 0 0 0 0 0 0 0 0 0 0 0 0 0 0 0 0 0 0 0 0 0 0 0 0 0 0 0
0 0 0 0 0 0 0 0 0 0 0 0 0 0 0 0 0 0 0 0 0 0 0 0 0 0 0 0 0 0 0 0 0 0 0 0 0 0 0 0 0 0 0
0 0 0 0 0 0 0 0 0 0 0 0 0 0 0 0 0 0 0 0 0 0 0 0 0 0 0 0 0 0 0 0 0 0 0 0 0 0 0 0 0 0 0
0 0 0 0 0 0 0 0 0 0 0 0 0 0 0 0 0 0 0 0 0 0 0 0 0 0 0 0 0 0 0 0 0 0 0 0 0 0 0 0 0 0 0

GFSMA_con_mucape_066.txt.gz
CAPE
0 0 0 0 0 0 0 0 5 13 2 0 0 0 0 0 0 0 0 5 46 176 90 45 28 4 0 0 0 0 0 0 0 0 1 3 3 5 4 6 5 6 6
0 0 0 0 0 0 0 0 0 0 0 0 0 0 0 0 0 0 0 0 9 86 126 41 47 25 2 0 0 0 0 0 2 1 3 2 2 2 3 4 3 4 4
0 0 0 0 0 0 0 0 0 0 0 0 0 0 0 0 0 0 0 0 0 12 69 77 36 47 5 4 0 0 0 0 0 6 6 4 4 4 4 3 3 3 3
29 5 37 50 49 23 3 0 0 0 0 0 2 2 0 3 16 24 3 4 10 3 7 103 159 77 28 8 5 12 0 0 0 10 10 7 6 0 0 0 0 0 0
0 11 38 70 99 94 97 107 118 74 48 35 36 31 22 7 37 51 78 84 69 67 55 42 46 93 132 36 6 13 0 0 0 0 10 7 4 0 0 0 0 0 0
5 0 71 119 134 160 185 197 165 121 62 51 35 22 32 41 42 56 85 109 84 79 78 76 60 48 25 122 13 9 17 0 0 0 0 5 2 0 0 0 0 0 0
214 244 243 195 198 240 189 127 116 104 95 76 41 0 0 0 0 14 13 27 56 107 82 75 52 36 60 16 136 69 4 22 0 5 0 0 0 0 0 0 0 0 0
471 367 351 342 280 225 111 111 104 73 51 70 83 72 15 0 0 0 0 0 0 0 11 17 13 19 24 20 10 47 95 9 39 9 21 0 0 5 0 0 0 0 0
366 337 383 328 289 289 249 170 112 49 21 63 112 70 30 13 8 6 4 5 2 0 0 1 8 22 29 9 10 9 28 84 7 25 5 21 0 17 12 13 12 0 0
0 0 0 0 0 27 146 151 103 89 38 29 52 62 62 70 51 6 10 14 7 4 1 16 4 0 1 50 54 92 31 94 89 36 84 93 2 0 30 25 29 40 22
0 0 0 0 0 3 2 2 134 134 40 41 49 60 41 18 13 16 19 6 7 0 0 8 0 2 0 0 15 27 48 29 22 61 96 102 118 76 0 49 53 52 41
0 0 0 0 0 0 0 1 2 97 76 59 52 64 80 26 49 6 1 8 9 4 0 1 0 1 1 0 0 14 32 97 17 101 112 123 125 11 0 33 3 0 27
0 0 0 0 0 0 0 0 0 6 62 72 59 83 90 67 42 36 51 7 8 3 5 0 0 0 0 0 0 0 0 0 4 89 141 146 0 0 0 93 102 0 72
0 0 0 0 0 0 0 1 2 11 40 47 61 50 9 4 8 10 33 25 9 7 1 3 0 0 0 0 0 0 0 0 0 51 87 109 53 2 0 26 66 109 5
0 0 0 0 0 0 0 0 1 5 29 4 14 8 14 7 3 0 0 13 20 0 0 1 2 2 0 0 1 2 0 0 0 6 76 72 96 13 68 78 0 1 4
0 0 0 0 0 0 0 0 0 0 1 0 1 1 1 0 0 0 0 0 3 5 0 3 1 0 0 2 1 2 0 0 0 0 92 94 0 9 0 0 0 0 4
0 0 0 0 0 0 0 0 0 0 0 0 0 0 0 0 0 0 0 0 2 3 3 0 2 0 0 0 0 0 0 0 0 0 0 0 0 0 0 0 0 0 0
0 0 0 0 0 0 0 0 0 0 0 0 0 0 0 0 0 0 0 0 0 0 0 0 0 0 0 0 0 0 0 0 0 2 0 0 0 0 0 1 3 5 2
0 0 0 0 0 0 0 0 0 0 0 0 0 0 0 0 0 0 0 0 0 0 0 0 0 0 0 0 0 0 0 0 0 0 2 0 0 2 5 12 11 4 8
0 0 0 0 0 0 0 0 0 0 0 0 0 0 0 0 0 0 0 0 0 0 0 0 0 0 0 0 0 0 0 0 0 0 0 4 6 3 4 1 1 4 0
0 0 0 0 0 0 0 0 0 0 0 0 0 0 0 0 0 0 0 0 0 0 0 0 0 0 0 0 0 0 0 0 0 0 0 0 0 1 0 0 0 0 0
0 0 0 0 0 0 0 0 0 0 0 0 0 0 0 0 0 0 0 0 0 0 0 0 0 0 0 0 0 0 0 0 0 0 0 0 0 0 0 0 0 0 0
0 0 0 0 0 0 0 0 0 0 0 0 0 0 0 0 0 0 0 0 0 0 0 0 0 0 0 0 0 0 0 0 0 0 0 0 0 0 0 0 0 0 0
0 0 0 0 0 0 0 0 0 0 0 0 0 0 0 0 0 0 0 0 0 0 0 0 0 0 0 0 0 0 0 0 0 0 0 0 0 0 0 0 0 0 0
0 0 0 0 0 0 0 0 0 0 0 0 0 0 0 0 0 0 0 0 0 0 0 0 0 0 0 0 0 0 0 0 0 0 0 0 0 0 0 0 0 0 0
0 0 0 0 0 0 0 0 0 0 0 0 0 0 0 0 0 0 0 0 0 0 0 0 0 0 0 0 0 0 0 0 0 0 0 0 0 0 0 0 0 0 0

GFSMA_con_mucape_069.txt.gz
CAPE
0 0 0 0 0 0 0 2 2 2 1 0 0 0 0 0 0 0 0 0 0 107 154 86 62 34 2 0 0 0 0 0 0 0 2 3 5 5 5 6 5 7 7
0 0 0 0 0 0 0 0 0 0 0 0 0 0 0 0 0 0 0 0 0 10 138 151 69 57 30 6 4 0 0 0 0 0 3 4 6 6 6 6 5 5 6
0 0 0 0 0 0 0 0 0 0 0 0 0 0 0 0 0 0 0 0 0 0 13 170 136 63 66 24 10 8 0 0 0 0 5 4 2 2 7 4 5 5 5
0 0 0 21 17 12 0 1 2 0 0 0 0 2 2 3 16 27 38 56 61 51 35 35 174 161 107 81 19 15 12 0 0 0 0 6 6 5 4 3 3 4 6
1 0 0 6 38 42 54 50 52 66 91 74 45 26 24 37 50 46 52 63 76 85 92 59 49 98 222 240 63 38 19 19 0 0 0 0 5 8 7 7 6 6 3
79 18 0 27 54 81 104 119 112 106 81 38 32 30 45 48 44 36 44 40 49 53 67 85 57 35 17 110 154 48 49 52 0 0 0 0 0 2 9 10 10 9 0
235 217 106 146 173 96 93 119 99 82 32 35 33 0 0 0 0 0 0 0 0 0 0 10 19 14 2 0 138 279 82 62 68 3 2 0 0 0 10 12 13 12 13
397 374 321 361 304 294 295 237 177 79 47 102 55 6 3 0 0 0 0 0 0 0 0 0 0 0 0 1 0 72 322 102 89 97 38 0 2 0 0 1 19 20 17
249 304 387 374 359 367 265 283 220 184 134 62 0 23 30 10 6 5 0 0 0 0 0 0 0 0 0 4 9 30 9 161 124 111 126 164 0 5 1 2 10 26 25
0 0 0 0 0 2 4 6 141 165 78 54 23 1 23 34 34 7 8 9 2 1 0 0 0 0 0 0 0 0 3 1 78 164 166 248 399 59 0 0 1 5 56
0 0 0 0 0 0 2 2 1 5 99 91 42 23 20 30 23 16 29 7 12 0 0 0 0 0 0 0 0 0 0 10 11 64 359 435 368 317 67 6 1 0 99
0 0 0 0 0 0 1 1 1 2 4 46 50 76 71 71 16 13 8 4 6 2 0 0 0 0 0 0 0 0 0 0 0 2 212 522 540 542 302 149 83 82 34
0 0 0 0 0 0 0 1 2 4 4 41 107 70 68 61 23 9 10 4 12 6 2 0 0 0 0 0 0 0 0 0 0 0 20 352 533 477 93 200 104 101 76
0 0 0 0 0 0 0 0 0 2 20 36 39 65 6 10 2 4 8 5 5 3 6 0 0 0 0 0 0 0 0 0 0 0 0 4 80 419 75 74 91 10 58
0 0 0 0 0 0 0 0 0 1 3 2 8 8 2 2 2 3 2 3 0 0 0 9 0 0 0 0 0 0 0 0 1 0 0 0 0 0 0 0 26 0 0
0 0 0 0 0 0 0 0 0 0 2 2 1 1 1 2 2 1 0 0 0 0 0 0 0 1 0 0 0 0 0 0 0 0 0 0 0 0 0 0 0 0 0
0 0 0 0 0 0 0 0 0 0 0 0 0 0 0 0 0 0 0 0 0 0 0 0 0 0 0 0 0 0 0 0 0 0 0 0 0 0 0 0 0 0 0
0 0 0 0 0 0 0 0 0 0 0 0 0 0 0 0 0 0 0 0 0 0 0 0 0 0 0 0 0 0 0 0 0 0 0 0 0 0 0 0 0 0 1
0 0 0 0 0 0 0 0 0 0 0 0 0 0 0 0 0 0 0 0 0 0 0 0 0 0 0 0 0 0 0 0 0 0 0 0 0 0 2 1 0 0 1
0 0 0 0 0 0 0 0 0 0 0 0 0 0 0 0 0 0 0 0 0 0 0 0 0 0 0 0 0 0 0 0 0 0 0 0 0 0 0 2 7 6 7
0 0 0 0 0 0 0 0 0 0 0 0 0 0 0 0 0 0 0 0 0 0 0 0 0 0 0 0 0 0 0 0 0 0 0 0 0 0 0 0 0 0 0
0 0 0 0 0 0 0 0 0 0 0 0 0 0 0 0 0 0 0 0 0 0 0 0 0 0 0 0 0 0 0 0 0 0 0 0 0 0 0 0 0 0 0
0 0 0 0 0 0 0 0 0 0 0 0 0 0 0 0 0 0 0 0 0 0 0 0 0 0 0 0 0 0 0 0 0 0 0 0 0 0 0 0 0 0 0
0 0 0 0 0 0 0 0 0 0 0 0 0 0 0 0 0 0 0 0 0 0 0 0 0 0 0 0 0 0 0 0 0 0 0 0 0 0 0 0 0 0 0
0 0 0 0 0 0 0 0 0 0 0 0 0 0 0 0 0 0 0 0 0 0 0 0 0 0 0 0 0 0 0 0 0 0 0 0 0 0 0 0 0 0 0
0 0 0 0 0 0 0 0 0 0 0 0 0 0 0 0 0 0 0 0 0 0 0 0 0 0 0 0 0 0 0 0 0 0 0 0 0 0 0 0 0 0 0

GFSMA_con_mucape_072.txt.gz
CAPE
0 0 0 0 0 0 0 0 0 0 0 0 0 0 0 0 0 0 0 0 0 0 114 125 83 87 29 1 1 0 0 0 0 0 0 0 0 0 1 3 4 4 6
2 0 0 0 0 0 0 0 0 0 0 0 0 0 0 0 0 0 0 0 0 0 22 120 127 71 58 43 7 6 1 0 0 0 0 3 1 2 0 0 0 0 1
50 0 0 0 0 0 0 0 0 0 0 0 0 0 0 0 0 5 0 0 0 8 10 2 96 139 88 65 24 14 9 0 0 0 0 0 2 1 3 5 0 1 0
75 53 36 37 10 0 0 0 0 0 2 7 28 44 28 22 34 31 27 9 20 31 42 55 41 108 171 96 113 47 29 0 0 0 0 0 0 0 9 7 5 3 3
211 94 54 56 55 34 11 2 24 32 59 54 50 35 39 56 61 36 46 47 33 41 56 60 67 51 199 235 137 115 64 44 4 0 0 0 0 0 0 8 8 8 8
303 163 117 93 74 65 78 117 100 117 43 58 41 19 49 53 44 50 61 32 0 0 0 0 4 16 37 30 146 143 109 98 64 14 0 0 0 0 0 0 13 13 12
254 158 150 183 199 167 178 174 104 53 54 52 37 63 101 0 0 0 0 0 0 0 0 0 0 0 0 0 24 151 199 173 154 140 37 0 0 0 0 0 0 16 15
354 352 360 359 339 270 298 254 249 186 109 150 124 65 32 1 7 1 0 0 0 0 0 0 0 0 0 0 0 6 84 238 235 200 209 138 31 0 7 2 8 5 21
231 238 347 294 298 338 341 487 400 412 199 52 80 78 80 16 17 16 0 0 0 0 0 0 0 0 0 0 0 4 6 5 58 242 274 221 293 98 10 2 5 10 2
0 0 0 0 0 0 6 9 13 20 10 19 8 13 48 28 41 47 24 8 2 1 0 0 0 0 0 0 0 0 0 2 6 8 166 265 355 485 211 70 3 1 1
0 0 0 0 0 0 0 0 2 5 5 18 25 10 19 33 20 26 23 32 31 8 1 3 0 0 0 0 0 0 0 0 0 3 5 38 233 472 497 206 126 64 39
0 0 0 0 0 0 0 1 1 2 3 7 14 18 39 47 28 11 11 8 16 11 2 1 0 0 0 0 0 0 0 0 0 0 0 22 93 326 603 511 429 155 68
0 0 0 0 0 0 0 0 2 1 9 18 27 28 15 21 33 22 12 8 31 21 3 2 0 0 0 0 0 0 0 0 0 0 0 22 26 42 137 290 517 336 92
0 0 0 0 0 0 0 0 7 15 9 13 16 22 23 11 16 14 21 22 20 6 1 13 0 0 0 0 0 0 0 0 0 0 0 0 0 0 7 52 378 314 153
0 0 0 0 0 0 0 0 0 0 0 6 16 21 21 19 8 4 2 2 13 0 0 0 0 0 2 0 0 0 0 0 0 0 0 0 0 0 0 55 107 62 1
0 0 0 0 0 0 0 0 0 0 0 1 1 3 2 1 0 0 0 1 0 0 0 0 0 0 1 0 0 0 0 0 0 0 0 0 0 0 10 6 1 0 0
0 0 0 0 0 0 0 0 0 0 0 0 0 0 0 0 0 0 0 0 0 0 0 0 0 0 0 0 0 0 0 0 0 0 0 0 0 0 0 1 3 0 0
0 0 0 0 0 0 0 0 0 0 0 0 0 0 0 0 0 0 0 0 0 0 0 0 0 0 0 0 0 0 0 0 0 0 0 0 0 0 0 0 0 0 0
0 0 0 0 0 0 0 0 0 0 0 0 0 0 0 0 0 0 0 0 0 0 0 0 0 0 0 0 0 0 0 0 0 0 0 0 0 0 0 0 0 0 0
0 0 0 0 0 0 0 0 0 0 0 0 0 0 0 0 0 0 0 0 0 0 0 0 0 0 0 0 0 0 0 0 0 0 0 0 0 0 1 0 0 2 1
0 0 0 0 0 0 0 0 0 0 0 0 0 0 0 0 0 0 0 0 0 0 0 0 0 0 0 0 0 0 0 0 0 0 0 0 0 0 0 0 0 0 0
0 0 0 0 0 0 0 0 0 0 0 0 0 0 0 0 0 0 0 0 0 0 0 0 0 0 0 0 0 0 0 0 0 0 0 0 0 0 0 0 0 0 0
0 0 0 0 0 0 0 0 0 0 0 0 0 0 0 0 0 0 0 0 0 0 0 0 0 0 0 0 0 0 0 0 0 0 0 0 0 0 0 0 0 0 0
0 0 0 0 0 0 0 0 0 0 0 0 0 0 0 0 0 0 0 0 0 0 0 0 0 0 0 0 0 0 0 0 0 0 0 0 0 0 0 0 0 0 0
0 0 0 0 0 0 0 0 0 0 0 0 0 0 0 0 0 0 0 0 0 0 0 0 0 0 0 0 0 0 0 0 0 0 0 0 0 0 0 0 0 0 0
0 0 0 0 0 0 0 0 0 0 0 0 0 0 0 0 0 0 0 0 0 0 0 0 0 0 0 0 0 0 0 0 0 0 0 0 0 0 0 0 0 0 0

GFSMA_con_mucape_075.txt.gz
CAPE
0 0 0 0 0 0 0 0 0 0 0 0 0 0 0 0 0 0 0 0 0 0 0 50 44 41 54 2 0 0 0 0 0 0 0 0 0 0 0 1 1 0 2
5 0 0 0 0 0 0 0 0 0 0 0 0 0 0 0 0 0 0 0 0 0 0 4 37 43 28 82 49 5 1 0 0 0 0 0 0 0 0 0 0 0 0
111 0 0 8 0 0 0 0 0 0 0 0 0 0 0 0 0 0 0 9 0 0 0 0 0 29 71 50 17 43 1 0 0 0 0 0 0 0 0 5 3 0 3
148 153 104 97 108 8 3 7 7 0 1 20 27 48 55 31 25 32 47 57 37 0 0 0 0 0 35 117 94 94 84 13 0 0 0 0 0 0 0 0 5 4 3
398 260 156 112 114 181 160 115 101 138 187 129 116 122 99 73 93 42 42 72 89 78 4 0 0 0 6 47 132 117 181 187 51 1 0 0 0 0 0 0 0 6 7
652 509 351 254 192 256 222 275 293 313 257 235 67 56 63 75 126 115 45 2 4 61 38 7 5 0 0 0 14 80 173 235 277 151 25 8 0 0 4 3 0 0 2
640 581 425 368 434 425 453 439 361 284 325 308 153 126 128 197 62 8 3 6 18 25 0 0 0 0 0 0 2 17 35 192 204 218 235 116 31 0 0 0 2 1 2
525 493 385 470 677 453 506 499 382 271 328 286 93 70 39 2 2 42 8 3 2 14 0 0 0 0 0 0 0 0 0 1 73 234 214 235 222 119 48 27 2 7 13
421 395 379 813 642 825 718 344 372 282 164 42 108 82 59 24 31 31 24 8 12 5 0 0 0 0 0 0 0 0 0 1 4 4 27 149 214 336 625 263 79 19 11
0 0 0 0 0 0 6 5 8 16 43 26 55 42 75 70 58 28 22 0 4 1 23 20 12 0 0 0 0 0 0 0 0 0 1 12 54 165 321 588 489 103 16
0 0 0 0 0 0 0 0 0 2 6 3 3 19 30 33 33 49 35 21 52 38 8 4 11 0 0 0 0 0 0 0 0 0 8 12 28 80 197 257 409 211 99
0 0 0 0 0 0 0 0 0 1 3 6 15 19 18 33 14 43 20 41 24 15 9 1 1 0 0 0 0 0 0 0 0 0 0 4 7 19 43 128 327 425 180
0 0 0 0 0 0 0 0 0 4 6 17 29 31 20 24 52 62 22 21 31 4 4 7 2 1 0 0 0 0 0 0 0 0 0 0 0 0 3 12 74 120 152
0 0 0 0 0 0 0 0 0 5 11 7 6 13 39 46 47 56 51 10 23 4 8 14 3 0 0 0 0 0 0 0 0 0 0 0 0 0 0 12 4 18 396
0 0 0 0 0 0 0 0 0 2 4 2 2 14 25 15 47 25 14 6 20 11 0 0 0 0 0 0 0 0 0 0 0 0 0 0 0 0 0 0 27 28 1
0 0 0 0 0 0 0 0 0 0 0 0 0 2 3 4 1 3 5 1 0 0 0 0 0 0 0 0 0 0 0 0 0 0 0 0 0 0 0 1 7 3 12
0 0 0 0 0 0 0 0 0 0 0 0 0 0 0 0 0 0 0 0 0 0 0 0 0 0 0 0 0 0 0 0 0 0 0 0 0 0 0 0 9 2 1
0 0 0 0 0 0 0 0 0 0 0 0 0 0 0 0 0 0 0 0 0 0 0 0 0 0 0 0 0 0 0 0 0 0 0 0 0 0 0 0 0 0 6
0 0 0 0 0 0 0 0 0 0 0 0 0 0 0 0 0 0 0 0 0 0 0 0 0 0 0 0 0 0 0 0 0 0 0 0 0 1 2 2 0 0 0
0 0 0 0 0 0 0 0 0 0 0 0 0 0 0 0 0 0 0 0 0 0 0 0 0 0 0 0 0 0 0 0 0 0 0 0 0 0 1 2 1 4 0
0 0 0 0 0 0 0 0 0 0 0 0 0 0 0 0 0 0 0 0 0 0 0 0 0 0 0 0 0 0 0 0 0 0 0 0 0 0 0 0 0 1 0
0 0 0 0 0 0 0 0 0 0 0 0 0 0 0 0 0 0 0 0 0 0 0 0 0 0 0 0 0 0 0 0 0 0 0 0 0 0 0 0 0 0 0
0 0 0 0 0 0 0 0 0 0 0 0 0 0 0 0 0 0 0 0 0 0 0 0 0 0 0 0 0 0 0 0 0 0 0 0 0 0 0 0 0 0 0
0 0 0 0 0 0 0 0 0 0 0 0 0 0 0 0 0 0 0 0 0 0 0 0 0 0 0 0 0 0 0 0 0 0 0 0 0 0 0 0 0 0 0
0 0 0 0 0 0 0 0 0 0 0 0 0 0 0 0 0 0 0 0 0 0 0 0 0 0 0 0 0 0 0 0 0 0 0 0 0 0 0 0 0 0 0
0 0 0 0 0 0 0 0 0 0 0 0 0 0 0 0 0 0 0 0 0 0 0 0 0 0 0 0 0 0 0 0 0 0 0 0 0 0 0 0 0 0 0

GFSMA_con_mucape_078.txt.gz
CAPE
0 0 0 0 0 0 0 0 0 0 0 0 0 0 0 0 0 0 0 0 0 0 0 0 36 40 73 60 0 0 0 0 0 0 0 0 0 0 0 2 2 1 1
0 0 0 0 0 0 0 0 0 0 0 0 0 0 0 0 0 0 0 0 0 0 0 0 6 48 71 85 182 29 2 0 0 0 0 0 0 0 0 0 0 0 0
21 0 0 0 0 0 0 0 0 0 0 0 0 0 0 0 0 0 0 0 0 0 0 0 0 1 69 132 125 140 17 0 0 0 0 0 0 0 0 0 0 0 0
127 113 10 0 9 0 0 0 0 0 0 0 0 0 9 9 11 3 0 17 29 9 2 0 0 2 0 55 155 148 132 144 5 0 0 0 0 0 0 0 0 0 0
266 179 139 103 114 133 107 58 32 31 42 53 165 112 22 12 30 23 8 18 34 35 39 30 14 1 13 7 30 142 202 305 231 70 1 0 0 0 0 0 3 2 0
567 504 346 254 173 133 125 118 141 167 390 243 75 47 38 2 0 0 8 1 5 9 12 19 27 0 0 10 33 44 76 175 426 258 204 65 10 0 0 0 1 3 5
658 566 659 472 581 410 240 324 290 198 164 109 87 41 17 1 13 33 36 9 0 3 7 0 0 0 0 5 27 9 2 23 58 134 189 241 191 70 14 0 0 0 2
502 471 441 363 300 320 377 331 510 164 284 223 274 37 17 0 0 0 13 23 12 7 3 1 0 0 0 0 0 0 0 0 0 0 20 119 171 259 228 105 78 51 9
556 502 454 782 901 675 607 343 408 159 24 18 45 71 36 8 1 0 11 3 3 4 15 2 6 0 0 0 0 0 0 0 0 0 0 3 19 72 150 397 612 342 113
11 8 0 0 0 0 0 0 4 6 12 14 7 14 86 82 40 10 0 6 13 13 23 18 12 1 0 0 0 0 0 0 0 4 5 8 15 36 56 105 213 544 431
0 0 0 0 0 0 0 0 0 0 0 0 0 2 7 23 28 55 22 1 31 44 44 33 12 3 0 0 0 0 0 0 0 4 8 4 13 27 39 95 158 228 421
0 0 0 0 0 0 0 0 0 0 0 0 1 3 5 18 28 31 24 26 54 36 10 7 3 2 2 0 0 0 0 0 0 0 7 2 8 5 7 6 7 47 308
0 0 0 0 0 0 0 0 0 0 1 4 10 13 18 24 26 51 47 31 61 24 37 4 1 0 0 1 0 0 0 0 0 0 3 0 0 0 8 7 8 4 47
0 0 0 0 0 0 0 0 0 0 2 2 1 4 0 5 17 60 45 51 52 26 6 0 0 2 1 0 2 0 0 0 0 0 0 0 0 0 0 12 12 2 4
0 0 0 0 0 0 0 0 0 0 0 0 2 5 3 7 18 23 6 11 32 2 3 0 0 1 0 0 0 0 0 0 0 0 0 0 0 0 0 0 0 8 16
0 0 0 0 0 0 0 0 0 0 0 0 0 0 0 3 10 4 11 5 0 3 0 0 0 0 0 0 0 0 0 0 0 0 0 0 0 0 0 0 0 0 4
0 0 0 0 0 0 0 0 0 0 0 0 0 0 0 0 0 0 0 1 0 0 0 0 0 0 0 0 0 0 0 0 0 0 0 0 0 0 0 0 2 2 12
0 0 0 0 0 0 0 0 0 0 0 0 0 0 0 0 0 0 0 0 0 0 0 0 0 0 0 0 0 0 0 0 0 0 0 0 0 0 0 0 0 0 0
0 0 0 0 0 0 0 0 0 0 0 0 0 0 0 0 0 0 0 0 0 0 0 0 0 0 0 0 0 0 0 0 0 0 0 0 0 0 0 0 0 0 0
0 0 0 0 0 0 0 0 0 0 0 0 0 0 0 0 0 0 0 0 0 0 0 0 0 0 0 0 0 0 0 0 0 0 0 0 0 0 0 0 0 0 1
0 0 0 0 0 0 0 0 0 0 0 0 0 0 0 0 0 0 0 0 0 0 0 0 0 0 0 0 0 0 0 0 0 0 0 0 0 0 0 0 0 0 0
0 0 0 0 0 0 0 0 0 0 0 0 0 0 0 0 0 0 0 0 0 0 0 0 0 0 0 0 0 0 0 0 0 0 0 0 0 0 0 0 0 0 0
0 0 0 0 0 0 0 0 0 0 0 0 0 0 0 0 0 0 0 0 0 0 0 0 0 0 0 0 0 0 0 0 0 0 0 0 0 0 0 0 0 0 0
0 0 0 0 0 0 0 0 0 0 0 0 0 0 0 0 0 0 0 0 0 0 0 0 0 0 0 0 0 0 0 0 0 0 0 0 0 0 0 0 0 0 0
0 0 0 0 0 0 0 0 0 0 0 0 0 0 0 0 0 0 0 0 0 0 0 0 0 0 0 0 0 0 0 0 0 0 0 0 0 0 0 0 0 0 0
0 0 0 0 0 0 0 0 0 0 0 0 0 0 0 0 0 0 0 0 0 0 0 0 0 0 0 0 0 0 0 0 0 0 0 0 0 0 0 0 0 0 0

GFSMA_con_mucape_081.txt.gz
CAPE
0 0 0 0 0 0 0 0 0 0 0 0 0 0 0 0 0 0 0 0 0 0 0 0 1 50 82 143 30 0 0 0 0 0 0 0 0 0 0 0 0 2 1
0 0 0 0 0 0 0 0 0 0 0 0 0 0 0 0 0 0 0 0 0 0 2 0 0 2 75 133 181 137 18 0 0 0 0 0 0 0 0 0 0 0 0
7 0 0 0 0 0 0 0 0 0 0 0 0 0 0 0 0 0 0 3 0 0 4 3 8 17 51 97 155 159 158 82 0 0 0 0 0 0 0 0 0 0 0
40 13 0 0 0 0 0 0 0 0 0 0 0 3 18 18 14 14 22 33 44 22 20 31 70 63 61 70 73 140 175 187 131 50 1 0 0 0 0 0 0 0 0
152 155 115 52 66 91 74 48 22 11 5 10 31 112 25 41 22 19 24 27 55 50 44 41 47 41 34 39 44 65 63 161 180 165 130 54 4 0 0 0 0 0 0
358 341 311 180 130 103 90 98 96 98 105 71 35 37 39 16 16 0 0 36 64 51 15 18 23 12 2 10 24 37 42 49 81 124 121 151 160 57 5 0 0 0 0
652 624 556 469 355 245 301 284 203 177 75 32 337 28 19 15 5 0 0 20 75 29 10 20 0 0 0 0 0 0 0 0 0 0 3 102 125 225 146 67 31 0 0
617 594 550 417 399 540 486 261 466 113 187 17 25 37 18 1 0 0 0 1 49 16 17 12 10 0 0 0 0 0 0 0 0 3 3 1 2 70 133 257 195 86 72
723 545 409 308 214 162 69 52 87 115 15 16 30 52 32 5 2 0 9 18 17 17 16 13 13 4 0 1 0 0 0 0 1 5 6 6 5 12 15 68 184 512 396
554 481 443 317 129 11 0 0 0 0 1 0 0 0 21 50 26 5 0 0 12 16 16 19 18 13 8 3 0 0 0 0 0 7 9 9 5 18 57 93 93 147 249
10 0 0 0 0 0 0 0 0 0 0 0 0 0 0 0 0 26 10 0 16 37 34 29 27 17 2 2 0 0 0 0 0 0 7 8 11 12 13 5 5 8 144
0 0 0 0 0 0 0 0 0 0 0 0 0 0 0 0 1 15 36 26 17 28 51 41 13 13 2 2 0 0 0 0 0 0 5 9 4 2 2 7 7 5 7
0 0 0 0 0 0 0 0 0 0 0 0 0 0 10 15 14 20 38 42 39 35 41 35 26 8 0 0 0 0 1 0 0 20 46 33 4 0 4 9 15 13 3
0 0 0 0 0 0 0 0 0 0 0 0 0 1 1 1 4 21 44 8 13 27 34 10 2 1 0 0 1 0 0 0 0 0 0 0 0 0 26 29 7 7 8
0 0 0 0 0 0 0 0 0 0 0 0 0 0 3 5 2 5 14 8 27 21 17 5 0 0 0 3 0 0 0 0 0 0 0 0 0 0 0 0 0 6 11
0 0 0 0 0 0 0 0 0 0 0 0 0 0 0 0 0 1 7 27 4 23 5 2 1 1 0 0 0 0 0 0 0 0 0 0 0 0 0 0 0 0 2
0 0 0 0 0 0 0 0 0 0 0 0 0 0 0 0 0 0 0 1 1 1 1 0 0 0 0 0 0 0 0 0 0 0 0 0 0 0 0 0 0 0 3
0 0 0 0 0 0 0 0 0 0 0 0 0 0 0 0 0 0 0 0 0 0 0 0 0 0 0 0 0 0 0 0 0 0 0 0 0 0 0 0 0 0 0
0 0 0 0 0 0 0 0 0 0 0 0 0 0 0 0 0 0 0 0 0 0 0 0 0 0 0 0 0 0 0 0 0 0 0 0 0 0 0 0 0 0 0
0 0 0 0 0 0 0 0 0 0 0 0 0 0 0 0 0 0 0 0 0 0 0 0 0 0 0 0 0 0 0 0 0 0 0 0 0 0 0 0 0 0 0
0 0 0 0 0 0 0 0 0 0 0 0 0 0 0 0 0 0 0 0 0 0 0 0 0 0 0 0 0 0 0 0 0 0 0 0 0 0 0 0 0 0 0
0 0 0 0 0 0 0 0 0 0 0 0 0 0 0 0 0 0 0 0 0 0 0 0 0 0 0 0 0 0 0 0 0 0 0 0 0 0 0 0 0 0 0
0 0 0 0 0 0 0 0 0 0 0 0 0 0 0 0 0 0 0 0 0 0 0 0 0 0 0 0 0 0 0 0 0 0 0 0 0 0 0 0 0 0 0
0 0 0 0 0 0 0 0 0 0 0 0 0 0 0 0 0 0 0 0 0 0 0 0 0 0 0 0 0 0 0 0 0 0 0 0 0 0 0 0 0 0 0
0 0 0 0 0 0 0 0 0 0 0 0 0 0 0 0 0 0 0 0 0 0 0 0 0 0 0 0 0 0 0 0 0 0 0 0 0 0 0 0 0 0 0
0 0 0 0 0 0 0 0 0 0 0 0 0 0 0 0 0 0 0 0 0 0 0 0 0 0 0 0 0 0 0 0 0 0 0 0 0 0 0 0 0 0 0

GFSMA_con_mucape_084.txt.gz
CAPE
54 28 0 0 0 0 0 0 0 0 0 0 0 0 0 0 0 0 0 0 0 21 3 0 0 29 74 141 112 31 21 0 0 0 0 0 0 0 0 0 0 0 1
27 5 0 0 0 0 0 0 0 0 0 0 0 0 0 0 0 0 0 0 0 0 33 19 28 43 61 124 119 121 108 45 21 0 0 0 0 0 0 0 0 0 0
2 0 0 0 0 0 0 0 0 0 0 0 0 0 0 0 0 8 7 7 10 30 21 26 52 84 90 89 114 138 137 117 114 27 6 0 0 0 0 0 0 0 0
18 12 0 0 0 0 0 0 0 0 0 0 0 0 4 10 7 14 12 34 48 29 29 27 94 80 77 64 71 83 110 114 113 132 71 22 1 0 0 0 0 0 0
44 49 27 0 4 40 51 33 41 24 24 11 28 25 20 27 14 19 22 50 46 49 32 40 23 42 43 31 63 80 79 69 87 77 109 164 107 17 0 0 0 0 0
286 181 187 150 149 142 144 136 110 151 112 90 47 87 24 25 21 7 2 0 24 53 62 27 33 3 16 37 41 34 13 0 1 0 14 93 114 171 108 46 8 0 0
376 377 337 311 275 211 293 186 177 145 123 34 36 5 4 0 0 0 0 0 0 50 64 19 16 14 5 0 0 0 0 0 0 3 4 1 5 58 188 276 111 38 1
667 654 595 582 487 263 265 247 181 59 69 23 17 10 4 0 0 0 0 0 2 36 36 20 12 17 2 2 0 0 0 0 0 5 3 2 6 8 6 122 341 339 78
646 697 654 554 394 451 140 41 5 4 5 1 5 14 21 4 0 0 0 5 6 16 11 12 14 20 17 9 1 1 0 0 0 5 8 7 6 8 25 61 108 198 399
569 720 720 525 342 157 143 95 31 3 0 0 0 0 1 41 7 1 0 0 1 9 7 15 33 15 24 19 5 0 0 0 1 5 5 10 5 25 24 13 19 62 132
638 488 343 271 32 0 0 0 0 0 0 0 0 0 0 0 0 7 3 0 0 13 25 22 11 19 18 5 2 1 0 0 1 4 5 31 36 21 7 5 4 6 1
409 96 0 0 0 0 0 0 0 0 0 0 0 0 0 0 0 0 11 14 19 19 23 33 33 28 8 4 0 0 0 0 0 11 22 48 17 13 5 5 13 18 12
57 0 0 0 0 0 0 0 0 0 0 0 0 0 0 0 4 7 10 4 28 30 24 34 47 29 5 2 1 0 0 0 0 0 26 0 0 3 30 24 19 9 7
0 0 0 0 0 0 0 0 0 0 0 0 0 0 0 0 1 6 23 36 12 20 39 46 35 11 11 2 0 0 0 0 0 0 0 0 0 0 0 7 29 38 26
0 0 0 0 0 0 0 0 0 0 0 0 0 0 0 0 5 5 12 16 22 4 24 4 4 16 3 0 0 0 0 0 0 0 0 0 0 0 0 0 0 0 22
0 0 0 0 0 0 0 0 0 0 0 0 0 0 0 0 0 5 7 17 23 19 0 3 6 4 2 0 0 0 0 0 0 0 0 0 0 0 0 0 0 0 1
0 0 0 0 0 0 0 0 0 0 0 0 0 0 0 0 0 0 0 0 4 18 8 3 9 1 0 0 0 0 0 0 0 0 0 0 0 0 0 0 0 0 1
2 2 0 0 0 0 0 0 0 0 0 0 0 0 0 0 0 0 0 0 0 0 0 0 0 0 0 0 0 0 0 0 0 0 0 0 0 0 0 0 0 0 0
10 0 0 0 0 0 0 0 0 0 0 0 0 0 0 0 0 0 0 0 0 0 0 0 0 0 0 0 0 0 0 0 0 0 0 0 0 0 0 0 0 0 0
0 0 0 0 0 0 0 0 0 0 0 0 0 0 0 0 0 0 0 0 0 0 0 0 0 0 0 0 0 0 0 0 0 0 0 0 0 0 0 0 0 0 0
0 0 0 0 0 0 0 0 0 0 0 0 0 0 0 0 0 0 0 0 0 0 0 0 0 0 0 0 0 0 0 0 0 0 0 0 0 0 0 0 0 0 0
0 0 0 0 0 0 0 0 0 0 0 0 0 0 0 0 0 0 0 0 0 0 0 0 0 0 0 0 0 0 0 0 0 0 0 0 0 0 0 0 0 0 0
0 0 0 0 0 0 0 0 0 0 0 0 0 0 0 0 0 0 0 0 0 0 0 0 0 0 0 0 0 0 0 0 0 0 0 0 0 0 0 0 0 0 0
0 0 0 0 0 0 0 0 0 0 0 0 0 0 0 0 0 0 0 0 0 0 0 0 0 0 0 0 0 0 0 0 0 0 0 0 0 0 0 0 0 0 0
0 0 0 0 0 0 0 0 0 0 0 0 0 0 0 0 0 0 0 0 0 0 0 0 0 0 0 0 0 0 0 0 0 0 0 0 0 0 0 0 0 0 0
0 0 0 0 0 0 0 0 0 0 0 0 0 0 0 0 0 0 0 0 0 0 0 0 0 0 0 0 0 0 0 0 0 0 0 0 0 0 0 0 0 0 0

GFSMA_con_mucape_087.txt.gz
CAPE
63 46 23 0 0 0 0 0 0 0 0 0 0 0 0 0 0 0 0 0 0 17 10 7 19 41 77 186 130 105 51 39 13 0 0 0 0 0 0 0 0 0 0
54 48 24 0 0 0 0 0 0 0 0 0 0 0 0 0 0 0 0 0 1 8 28 19 36 67 69 90 106 108 100 94 70 29 6 0 0 0 0 0 0 0 0
49 54 22 0 0 0 0 0 0 0 0 0 0 0 0 0 2 9 12 11 6 28 19 28 50 89 101 77 87 82 85 68 84 135 45 23 0 0 0 0 0 0 0
58 33 14 0 0 0 0 0 0 0 0 0 0 0 5 4 9 8 18 25 35 42 41 26 117 70 58 68 41 66 79 63 85 81 108 71 29 2 0 0 0 0 0
146 70 42 12 0 0 11 9 11 28 21 15 8 12 21 15 15 8 23 31 33 17 38 49 32 26 44 48 60 81 45 1 0 8 39 99 115 110 40 6 0 0 0
243 114 83 77 22 89 140 154 128 119 82 61 56 37 9 5 16 6 3 1 4 2 42 72 24 41 42 64 47 27 17 7 0 1 2 0 17 80 129 135 35 8 3
286 209 227 248 200 219 121 112 114 129 116 54 19 1 0 0 0 0 0 0 0 0 27 72 50 31 7 23 9 0 3 5 0 4 5 4 5 2 3 53 218 165 41
291 320 365 349 330 341 330 244 197 127 54 1 2 6 0 0 0 0 0 0 0 0 23 44 35 17 14 17 1 0 0 0 0 2 6 5 9 9 10 47 60 189 358
201 261 255 284 411 550 238 368 176 69 45 0 0 9 12 0 0 0 0 0 0 6 24 31 12 14 20 33 6 7 0 0 0 0 6 12 5 14 40 36 48 64 143
269 339 410 527 444 549 584 282 129 120 55 7 0 0 0 8 12 0 0 0 0 1 3 8 14 14 27 34 4 21 1 0 0 1 3 7 33 27 24 19 9 4 9
178 158 301 445 523 482 389 108 0 0 0 0 0 0 0 0 0 10 0 0 0 0 8 12 14 21 32 23 15 7 6 0 0 12 10 41 41 22 22 3 4 8 18
63 114 269 197 99 0 0 0 0 0 0 0 0 0 0 0 0 0 0 0 0 4 17 34 10 17 16 19 6 7 2 0 0 2 46 37 11 22 64 38 31 27 14
116 148 95 25 0 0 0 0 0 0 0 0 0 0 0 0 0 4 0 6 8 12 21 9 8 12 29 31 10 2 0 0 0 3 14 0 0 0 28 37 36 37 23
133 78 42 0 0 0 0 0 0 0 0 0 0 0 0 0 0 0 3 22 3 24 46 2 29 6 21 27 0 3 1 0 0 0 0 0 0 0 0 0 0 23 39
70 37 0 0 0 0 0 0 0 0 0 0 0 0 0 0 0 0 0 3 5 0 5 17 11 3 3 5 16 0 0 0 0 0 0 0 0 0 0 0 0 0 0
0 0 0 0 0 0 0 0 0 0 0 0 0 0 0 0 0 0 0 1 6 13 14 3 19 10 6 6 4 1 0 0 0 0 0 0 0 0 0 0 0 0 3
0 0 0 0 1 0 1 0 0 0 0 0 0 0 0 0 0 0 0 0 3 0 0 0 11 8 6 2 0 0 0 0 0 0 0 0 0 0 0 0 0 0 3
0 0 0 6 0 0 0 0 0 0 0 0 0 0 0 0 0 0 0 0 0 0 0 0 7 8 2 1 0 0 0 0 0 0 0 0 0 0 0 0 0 0 1
2 0 1 15 5 0 0 0 0 0 0 0 0 0 0 0 0 0 0 0 0 0 0 0 0 0 0 0 0 0 0 0 0 0 0 0 0 0 0 0 0 0 0
5 11 6 0 0 0 0 0 0 0 0 0 0 0 0 0 0 0 0 0 0 0 0 0 0 0 0 0 0 0 0 0 0 0 0 0 0 0 0 0 0 0 0
1 0 0 0 0 0 0 0 0 0 0 0 0 0 0 0 0 0 0 0 0 0 0 0 0 0 0 0 0 0 0 0 0 0 0 0 0 0 0 0 0 0 0
0 0 0 0 0 0 0 0 0 0 0 0 0 0 0 0 0 0 0 0 0 0 0 0 0 0 0 0 0 0 0 0 0 0 0 0 0 0 0 0 0 0 0
0 0 0 0 0 0 0 0 0 0 0 0 0 0 0 0 0 0 0 0 0 0 0 0 0 0 0 0 0 0 0 0 0 0 0 0 0 0 0 0 0 0 0
0 0 0 0 0 0 0 0 0 0 0 0 0 0 0 0 0 0 0 0 0 0 0 0 0 0 0 0 0 0 0 0 0 0 0 0 0 0 0 0 0 0 0
0 0 0 0 0 0 0 0 0 0 0 0 0 0 0 0 0 0 0 0 0 0 0 0 0 0 0 0 0 0 0 0 0 0 0 0 0 0 0 0 0 0 0
0 0 0 0 0 0 0 0 0 0 0 0 0 0 0 0 0 0 0 0 0 0 0 0 0 0 0 0 0 0 0 0 0 0 0 0 0 0 0 0 0 0 0

GFSMA_con_mucape_090.txt.gz
CAPE
9 24 25 0 0 0 0 0 0 0 0 0 0 0 0 0 0 0 0 0 0 7 27 29 32 39 83 128 98 98 100 54 8 1 0 0 0 0 0 0 0 0 0
90 66 41 16 0 0 0 0 0 0 0 0 0 0 0 0 0 0 0 5 10 12 23 38 49 66 90 86 66 87 75 64 92 94 13 0 0 0 0 0 0 0 0
88 70 45 17 0 0 0 0 0 0 0 0 0 0 0 0 0 3 10 13 22 11 28 35 54 92 96 74 90 79 68 84 73 112 119 64 26 8 0 0 0 0 0
87 61 57 28 0 0 0 0 0 0 0 0 0 0 4 7 10 19 9 22 25 40 47 40 42 100 79 57 70 112 59 9 0 6 60 76 99 52 11 2 0 0 0
160 125 64 43 10 0 1 2 6 19 44 52 45 16 18 22 12 5 9 6 11 14 11 21 43 43 61 71 94 87 35 0 0 0 0 0 39 84 131 90 46 1 0
198 178 110 78 61 29 50 114 135 104 44 18 29 30 2 0 0 0 0 0 0 0 0 7 47 58 41 95 78 43 22 9 8 0 0 3 3 1 39 72 132 77 22
230 237 149 94 111 117 156 192 119 104 80 49 22 0 0 0 0 0 0 0 0 0 0 0 44 45 26 31 15 11 6 0 10 0 0 6 3 5 8 22 36 141 168
211 252 207 216 255 216 222 243 206 126 74 16 3 0 0 0 0 0 0 0 0 0 0 14 42 38 33 18 14 12 15 0 2 1 1 10 19 7 8 20 40 55 82
147 152 141 188 185 288 325 278 178 139 145 64 13 5 4 0 0 0 0 0 0 0 0 17 26 28 21 24 27 32 22 0 1 1 4 6 19 31 40 20 11 22 23
204 228 133 199 187 152 161 245 288 352 173 47 0 0 0 3 1 0 0 0 0 0 0 8 24 12 9 19 32 26 18 11 3 0 14 9 48 47 31 33 22 14 10
99 95 117 86 104 129 100 205 255 13 0 0 0 0 0 0 0 0 0 0 0 0 0 5 13 15 13 29 37 26 17 6 5 4 42 59 52 47 61 21 41 33 21
116 78 69 70 52 71 79 39 0 0 0 0 0 0 0 0 0 0 0 0 0 0 0 7 10 15 23 4 25 35 12 8 2 0 13 34 15 17 41 53 53 46 36
36 23 17 10 8 53 31 0 0 0 0 0 0 0 0 0 0 0 0 0 0 0 2 8 19 16 13 11 35 30 15 1 1 0 3 0 0 0 10 31 26 39 37
52 22 33 32 44 42 3 0 0 0 0 0 0 0 0 0 1 0 0 0 0 0 12 21 13 9 1 23 23 21 17 0 0 0 0 0 0 0 0 0 0 3 39
57 56 39 36 30 0 0 0 0 0 0 0 0 0 0 0 0 0 0 0 0 0 0 16 7 7 4 14 6 6 3 0 0 0 0 0 0 0 0 0 0 0 0
117 68 37 8 0 0 0 0 0 0 0 0 0 0 0 0 0 0 0 0 0 0 0 0 0 8 11 3 1 5 5 3 0 0 0 0 0 0 0 0 0 0 0
7 0 0 0 0 0 1 1 0 0 0 0 0 0 0 0 0 0 0 0 0 0 0 0 0 2 5 6 4 4 0 0 0 0 0 0 0 0 0 0 0 0 0
0 0 2 1 0 0 0 0 0 0 0 0 0 0 0 0 0 0 0 0 0 0 0 0 0 0 6 3 8 1 0 0 0 0 0 0 0 0 0 0 0 0 0
0 0 3 0 2 2 0 0 0 0 0 0 0 0 0 0 0 0 0 0 0 0 0 0 0 0 0 0 0 0 0 0 0 0 0 0 0 0 0 0 0 0 0
5 0 1 3 9 0 0 0 0 0 0 0 0 0 0 0 0 0 0 0 0 0 0 0 0 0 0 0 0 0 0 0 0 0 0 0 0 0 0 0 0 0 0
0 1 0 0 0 0 0 0 0 0 0 0 0 0 0 0 0 0 0 0 0 0 0 0 0 0 0 0 0 0 0 0 0 0 0 0 0 0 0 0 0 0 0
0 0 0 0 0 0 0 0 0 0 0 0 0 0 0 0 0 0 0 0 0 0 0 0 0 0 0 0 0 0 0 0 0 0 0 0 0 0 0 0 0 0 0
0 0 0 0 0 0 0 0 0 0 0 0 0 0 0 0 0 0 0 0 0 0 0 0 0 0 0 0 0 0 0 0 0 0 0 0 0 0 0 0 0 0 0
0 0 0 0 0 0 0 0 0 0 0 0 0 0 0 0 0 0 0 0 0 0 0 0 0 0 0 0 0 0 0 0 0 0 0 0 0 0 0 0 0 0 0
0 0 0 0 0 0 0 0 0 0 0 0 0 0 0 0 0 0 0 0 0 0 0 0 0 0 0 0 0 0 0 0 0 0 0 0 0 0 0 0 0 0 0
0 0 0 0 0 0 0 0 0 0 0 0 0 0 0 0 0 0 0 0 0 0 0 0 0 0 0 0 0 0 0 0 0 0 0 0 0 0 0 0 0 0 0

GFSMA_con_mucape_093.txt.gz
CAPE
0 0 0 0 0 0 0 0 0 0 0 0 0 0 0 0 0 0 0 0 0 5 30 52 55 60 84 106 52 68 79 85 51 17 0 0 0 0 0 0 0 0 0
2 0 21 7 0 0 0 0 0 0 0 0 0 0 0 0 0 0 0 0 1 11 10 36 54 64 81 84 60 64 62 71 81 94 87 6 0 0 0 0 0 0 0
66 61 47 18 0 0 0 0 0 0 0 0 0 0 0 0 0 0 3 7 4 14 16 30 64 99 98 62 70 77 67 32 22 33 84 126 31 1 0 0 0 0 0
73 65 47 44 16 0 0 0 0 0 0 0 0 0 0 0 10 14 16 7 12 9 20 28 26 52 93 72 84 100 40 1 0 0 0 58 73 89 64 29 6 0 0
139 75 52 42 25 0 0 0 0 0 27 63 54 37 35 25 12 6 4 5 3 5 9 4 11 23 54 76 93 74 29 0 0 0 7 10 14 23 69 100 115 60 2
103 98 95 59 43 19 0 21 37 74 69 67 42 54 56 1 0 0 0 0 0 0 0 0 0 13 34 91 82 48 21 7 6 2 0 0 3 5 13 41 69 143 101
100 117 112 97 64 50 22 89 147 85 134 120 180 18 0 0 0 0 0 0 0 0 0 0 0 17 44 31 24 5 18 16 10 8 0 3 4 3 3 5 63 68 121
100 117 165 151 96 97 131 184 164 216 109 54 57 23 13 0 0 0 0 0 0 0 0 0 1 29 44 36 37 7 13 19 11 1 0 4 12 9 25 42 36 33 61
104 80 109 104 116 139 119 153 166 193 200 116 47 85 8 0 0 0 0 0 0 0 0 0 22 38 40 37 28 22 23 12 16 8 1 0 9 47 46 34 21 22 19
123 88 109 90 96 57 49 50 47 83 132 176 90 0 0 2 0 0 0 0 0 0 0 0 4 21 28 18 21 7 46 7 17 10 28 56 46 42 53 26 19 24 20
79 117 97 80 55 19 40 23 37 31 1 0 0 0 0 0 0 0 0 0 0 0 0 0 0 8 13 8 10 35 37 26 9 10 12 12 29 25 35 67 46 42 36
59 83 44 85 45 45 34 38 50 33 0 0 0 0 0 0 0 0 0 0 0 0 0 0 0 2 11 8 19 12 15 26 10 1 9 0 11 17 20 39 23 24 26
70 40 40 61 38 7 5 7 0 0 0 0 0 0 0 0 0 0 0 0 0 0 0 0 0 6 12 19 27 14 11 5 10 4 0 0 0 0 0 9 0 6 34
63 53 32 14 22 0 1 0 1 0 0 0 0 0 0 0 0 0 0 0 0 0 0 0 1 7 16 3 8 2 5 2 5 1 0 0 0 0 0 0 0 0 29
111 67 16 8 1 11 10 17 12 0 0 0 0 0 0 0 0 0 0 0 0 0 0 0 0 6 7 8 13 12 9 3 1 0 3 0 0 0 0 0 0 0 0
131 38 11 4 3 17 26 8 0 0 0 0 0 0 0 0 0 0 0 0 0 0 0 0 0 0 0 15 7 3 13 0 9 4 0 0 0 0 0 0 0 0 0
58 33 29 18 14 21 0 0 1 0 0 0 0 0 0 0 0 0 0 0 0 0 0 0 0 0 0 0 0 7 11 4 3 0 0 0 0 0 0 0 0 0 0
49 50 43 35 1 0 0 0 0 0 0 0 0 0 0 0 0 0 0 0 0 0 0 0 0 0 0 0 16 3 3 4 0 0 0 0 0 0 0 0 0 0 0
0 0 0 0 0 0 1 0 0 0 0 0 0 0 0 0 0 0 0 0 0 0 0 0 0 0 0 0 0 0 3 4 0 0 0 0 0 0 0 0 0 0 0
0 0 0 0 0 0 0 0 0 0 0 0 0 0 0 0 0 0 0 0 0 0 0 0 0 0 0 0 0 0 0 0 0 0 0 0 0 0 0 0 0 0 0
0 0 0 0 2 0 0 0 0 0 0 0 0 0 0 0 0 0 0 0 0 0 0 0 0 0 0 0 0 0 0 0 0 0 0 0 0 0 0 0 0 0 0
0 0 0 0 0 0 0 0 0 0 0 0 0 0 0 0 0 0 0 0 0 0 0 0 0 0 0 0 0 0 0 0 0 0 0 0 0 0 0 0 0 0 0
0 0 0 0 0 0 0 0 0 0 0 0 0 0 0 0 0 0 0 0 0 0 0 0 0 0 0 0 0 0 0 0 0 0 0 0 0 0 0 0 0 0 0
0 0 0 0 0 0 0 0 0 0 0 0 0 0 0 0 0 0 0 0 0 0 0 0 0 0 0 0 0 0 0 0 0 0 0 0 0 0 0 0 0 0 0
0 0 0 0 0 0 0 0 0 0 0 0 0 0 0 0 0 0 0 0 0 0 0 0 0 0 0 0 0 0 0 0 0 0 0 0 0 0 0 0 0 0 0
0 0 0 0 0 0 0 0 0 0 0 0 0 0 0 0 0 0 0 0 0 0 0 0 0 0 0 0 0 0 0 2 0 0 0 0 0 0 0 0 0 0 0

GFSMA_con_mucape_096.txt.gz
CAPE
0 0 0 0 0 0 0 0 0 0 0 0 0 0 0 0 0 0 0 0 0 0 4 40 66 76 113 94 52 67 79 70 65 69 17 0 0 0 0 0 0 0 0
0 0 12 22 1 0 0 0 0 0 0 0 0 0 0 0 0 0 4 10 0 0 2 24 67 95 102 81 73 68 59 52 51 55 84 105 12 0 0 0 0 0 0
57 26 82 77 38 10 0 0 0 0 0 0 0 0 0 5 7 13 15 17 7 0 3 11 45 103 120 81 57 92 90 44 9 0 33 91 120 61 4 2 0 0 0
112 110 166 178 66 42 28 7 0 0 0 0 3 31 47 14 12 19 20 14 18 20 15 9 20 44 76 106 83 104 56 22 12 14 12 0 23 48 72 90 51 11 0
215 165 193 205 119 66 33 23 0 0 12 64 109 139 105 44 17 15 12 4 3 0 4 9 2 1 20 104 104 91 40 14 7 2 1 0 7 7 6 53 89 125 60
396 283 234 213 148 85 10 5 0 4 86 171 81 49 51 23 1 0 0 0 0 0 0 0 1 27 15 49 101 53 21 13 7 6 2 0 0 1 5 8 16 61 117
233 231 212 216 147 70 26 19 20 65 134 188 135 57 21 4 0 0 0 0 0 0 0 0 7 38 2 36 24 14 16 13 22 17 3 6 7 5 7 5 29 66 75
167 170 165 169 187 102 102 87 151 223 192 226 146 156 11 0 0 0 0 0 0 0 0 0 3 4 19 56 46 35 14 6 21 20 6 2 1 4 11 53 34 29 35
178 147 86 110 126 171 212 147 107 143 224 173 147 96 6 0 0 0 0 0 0 0 0 0 0 3 29 52 52 41 11 12 5 15 30 35 31 46 52 41 24 20 9
96 92 103 96 38 50 80 72 65 57 139 177 157 58 79 0 0 0 0 1 0 0 0 0 0 0 10 23 24 19 12 11 30 10 14 29 47 53 59 73 29 31 24
28 39 95 85 81 55 54 49 56 41 21 9 0 0 0 0 0 0 0 0 0 0 0 0 0 0 0 0 3 2 11 21 25 5 4 0 6 7 32 49 62 45 35
85 47 107 88 52 39 26 31 16 0 11 9 3 3 0 0 0 0 0 0 0 0 0 0 0 0 0 0 1 4 13 5 6 12 7 0 0 0 3 23 22 17 23
73 36 46 55 34 51 21 23 2 0 0 0 0 0 0 0 0 0 0 0 0 0 0 0 0 0 0 0 4 14 12 3 14 9 4 1 1 0 0 0 8 0 0
87 55 45 49 33 81 21 3 0 0 0 0 0 0 0 0 0 0 0 0 0 0 0 0 0 0 1 2 9 12 4 10 6 10 2 0 0 0 0 0 0 0 15
102 78 113 114 88 54 17 9 0 0 0 1 0 0 0 0 0 0 0 0 0 0 0 0 0 0 0 0 8 1 3 10 3 12 11 0 4 0 0 0 0 0 0
153 173 132 130 37 20 3 7 8 15 23 0 0 0 0 0 0 0 0 0 0 0 0 0 0 0 0 0 0 0 3 5 3 6 1 6 0 0 0 0 0 0 0
151 192 148 49 39 26 22 18 29 6 0 0 0 0 0 0 0 0 0 0 0 0 0 0 0 0 0 0 0 0 0 9 5 9 3 0 0 0 0 0 0 0 0
79 138 135 35 35 31 21 30 1 0 0 0 0 0 0 0 0 0 0 0 0 0 0 0 0 0 0 0 0 0 0 4 6 2 0 0 0 0 0 0 0 0 0
7 55 79 64 71 41 24 0 0 0 1 0 0 0 0 0 0 0 0 0 0 0 0 0 0 0 0 0 0 0 0 0 2 0 0 0 0 0 0 0 0 0 0
0 0 0 4 0 0 0 0 0 0 0 0 0 0 0 0 0 0 0 0 0 0 0 0 0 0 0 0 0 0 0 0 0 0 0 0 0 0 0 0 0 0 0
0 0 0 0 0 0 0 0 0 0 0 0 0 0 0 0 0 0 0 0 0 0 0 0 0 0 0 0 0 0 0 0 0 0 0 0 0 0 0 0 0 0 0
0 0 0 0 0 0 0 0 0 0 0 0 0 0 0 0 0 0 0 0 0 0 0 0 0 0 0 0 0 0 0 0 0 0 0 0 0 0 0 0 0 0 0
0 0 0 0 0 0 0 0 0 0 0 0 0 0 0 0 0 0 0 0 0 0 0 0 0 0 0 0 0 0 0 0 0 0 0 0 0 0 0 0 0 0 0
0 0 0 0 0 0 0 0 0 0 0 0 0 0 0 0 0 0 0 0 0 0 0 0 0 0 0 0 0 0 0 0 0 0 0 0 0 0 0 0 0 0 0
0 0 0 0 0 0 0 0 0 0 0 0 0 0 0 0 0 0 0 0 0 0 0 0 0 0 0 0 0 0 0 0 0 0 0 0 0 0 0 0 0 0 0
0 0 0 0 0 0 0 0 0 0 0 0 0 0 0 0 0 0 0 0 0 0 0 0 0 0 0 0 0 0 0 0 0 0 0 0 0 0 0 0 0 0 0

GFSMA_con_mucape_099.txt.gz
CAPE
0 0 0 0 0 0 0 0 0 0 0 0 0 0 0 0 0 1 2 0 0 0 0 10 39 82 113 130 62 61 64 94 79 92 102 85 1 0 0 0 0 0 0
0 0 0 0 0 0 0 0 0 0 0 0 0 0 0 0 0 2 11 11 6 0 0 13 41 66 97 39 62 60 55 73 65 35 25 52 114 55 0 0 0 0 0
0 0 27 45 19 0 0 0 0 0 0 0 0 2 0 7 20 15 24 20 9 0 2 16 33 66 130 62 77 77 57 29 1 6 15 13 33 82 86 74 13 0 0
78 66 166 124 57 37 22 2 0 0 0 0 6 28 16 25 12 10 14 2 18 11 5 14 14 13 23 59 72 60 22 2 3 0 2 0 6 0 3 39 65 79 17
199 246 253 241 131 95 53 30 4 0 0 19 53 79 106 95 17 7 6 8 3 3 0 0 0 0 0 16 74 49 1 0 3 0 0 0 0 0 0 2 22 62 95
380 297 263 238 222 187 82 25 15 0 14 53 149 58 40 34 20 3 0 0 0 0 0 0 0 0 0 0 66 46 0 0 2 10 5 4 3 0 0 2 1 32 67
444 481 415 332 312 245 135 34 14 20 99 126 182 54 57 16 3 0 0 0 0 0 0 0 0 30 0 0 0 0 0 0 8 0 0 0 4 1 1 5 35 36 46
366 432 371 343 296 278 199 106 82 220 339 173 130 149 48 3 2 0 0 0 0 0 0 0 1 2 8 4 14 22 14 13 8 3 5 1 4 9 33 49 38 30 15
457 439 341 323 300 232 150 248 259 250 260 224 164 93 21 2 1 0 0 0 0 0 0 0 0 0 2 2 12 21 40 35 9 13 54 54 53 61 69 78 60 39 17
286 332 331 223 220 139 114 103 95 121 134 148 127 119 69 0 0 0 0 0 0 0 0 0 0 0 0 0 7 14 14 15 7 11 23 13 17 46 61 61 61 60 45
223 226 221 190 94 86 82 75 69 51 50 38 39 0 0 0 0 0 0 0 0 0 0 0 0 0 0 0 0 0 0 0 3 12 42 6 3 2 9 32 28 36 41
99 94 119 69 67 109 66 29 53 62 23 28 31 3 2 0 0 0 0 0 0 0 0 0 0 0 0 0 0 0 0 0 6 11 11 3 8 2 0 0 36 45 43
27 17 52 27 58 96 65 8 4 22 42 9 2 2 0 7 3 0 0 0 0 0 0 0 0 0 0 0 0 0 0 4 2 1 4 6 13 5 0 0 3 12 41
62 41 30 29 43 27 49 49 47 33 19 3 0 0 0 0 0 0 0 0 0 0 0 0 0 0 0 0 0 1 3 10 3 2 2 1 0 3 0 0 0 0 0
144 112 91 99 58 66 42 99 71 67 7 0 0 0 0 0 0 0 0 0 0 0 0 0 0 0 0 0 0 0 6 0 0 6 6 14 0 6 0 0 0 0 0
69 96 88 143 95 119 93 101 34 9 3 0 8 10 0 0 0 0 0 0 0 0 0 0 0 0 0 0 0 0 0 0 0 0 0 0 3 0 0 0 0 0 0
55 107 91 182 171 184 167 114 9 20 16 18 6 0 0 0 0 0 0 0 0 0 0 0 0 0 0 0 0 0 0 0 0 0 0 7 2 0 0 0 0 0 0
1 31 128 275 194 244 98 73 23 36 29 9 0 0 0 0 0 0 0 0 0 0 0 0 0 0 0 0 0 0 0 0 0 0 10 0 0 0 0 0 0 0 0
0 6 163 162 294 110 76 56 47 35 37 0 0 0 0 0 0 0 0 0 0 0 0 0 0 0 0 0 0 0 0 0 0 0 0 0 0 0 0 0 0 0 0
0 2 12 114 189 109 83 86 67 61 6 0 0 0 0 0 0 0 0 0 0 0 0 0 0 0 0 0 0 0 0 0 0 0 0 0 0 0 0 0 0 0 0
0 0 3 14 107 94 75 60 55 5 0 0 0 0 0 0 0 0 0 0 0 0 0 0 0 0 0 0 0 0 0 0 0 0 0 0 0 0 0 0 0 0 0
0 0 0 0 0 0 0 0 0 0 0 0 0 0 0 0 0 0 0 0 0 0 0 0 0 0 0 0 0 0 0 0 0 0 0 0 0 0 0 0 0 0 0
0 0 0 0 0 0 0 0 0 0 0 0 0 0 0 0 0 0 0 0 0 0 0 0 0 0 0 0 0 0 0 0 0 0 0 0 0 0 0 0 0 0 0
0 0 0 0 0 0 0 0 0 0 0 0 0 0 0 0 0 0 0 0 0 0 0 0 0 0 0 0 0 0 0 0 0 0 0 0 0 0 0 0 0 0 0
0 0 0 0 0 0 0 0 0 0 0 0 0 0 0 0 0 0 0 0 0 0 0 0 0 0 0 0 0 0 0 0 0 0 0 0 0 0 0 0 0 0 0
0 0 0 0 0 0 0 0 0 0 0 0 0 0 0 0 0 0 0 0 0 0 0 0 0 0 0 0 0 0 0 0 0 0 0 0 0 0 0 0 0 0 0

GFSMA_con_mucape_102.txt.gz
CAPE
0 0 0 0 0 0 0 0 0 0 0 0 0 0 0 0 0 0 0 0 2 1 0 3 16 28 70 53 47 52 43 38 35 38 0 0 48 1 0 0 0 0 0
0 0 0 0 0 0 0 0 0 0 0 0 0 0 0 0 0 0 3 7 5 3 20 25 39 52 93 20 27 38 28 33 8 0 0 0 21 65 60 36 0 0 0
0 0 0 0 0 0 0 0 0 0 0 0 0 0 0 0 3 9 8 15 10 8 16 31 41 32 41 43 24 28 28 1 0 0 0 0 9 14 18 30 48 70 20
0 0 5 22 18 1 0 0 0 0 0 0 0 0 0 0 1 1 0 7 5 4 0 0 10 9 0 0 44 29 17 0 0 0 0 0 0 0 0 2 38 60 72
11 54 107 74 48 38 9 9 0 0 0 0 13 12 27 24 36 5 4 3 0 0 0 0 0 0 0 0 47 49 3 0 0 0 0 0 0 0 0 0 5 9 39
131 137 192 172 125 75 52 28 13 0 0 6 19 43 46 7 1 0 0 0 0 0 0 0 0 0 0 0 143 51 2 0 0 0 2 7 0 1 7 0 27 48 66
238 236 240 199 192 159 82 59 27 12 0 46 71 41 28 0 0 0 0 0 0 0 0 0 0 0 0 0 17 22 10 5 6 7 4 7 1 6 16 33 26 38 18
423 344 324 283 261 247 228 120 23 17 65 131 86 28 4 1 0 0 0 0 0 0 0 0 0 0 5 6 8 11 18 12 8 25 9 13 16 26 49 64 64 49 21
306 400 356 317 276 285 253 199 159 175 179 148 99 66 2 0 0 0 0 0 0 0 0 0 0 0 1 6 6 16 24 9 6 12 7 25 45 52 42 20 15 46 50
343 319 280 305 277 233 184 194 222 199 153 114 72 34 32 29 0 0 0 0 0 0 0 0 0 0 0 0 0 2 5 4 9 13 2 19 23 4 10 11 26 24 24
255 261 271 278 253 227 176 193 189 148 103 36 29 15 9 0 0 1 0 0 0 0 0 0 0 0 0 0 0 0 5 8 6 4 38 40 8 6 5 4 0 14 10
111 151 187 185 163 131 146 153 133 130 86 16 18 18 40 0 0 3 3 0 2 2 0 0 0 0 0 0 0 0 0 2 2 2 9 5 5 2 0 1 0 0 0
34 30 79 68 67 107 140 110 21 12 53 21 25 30 34 20 16 8 10 10 0 1 0 0 0 0 0 0 0 0 3 4 2 8 12 2 0 1 5 1 0 0 0
21 29 31 50 36 42 88 61 7 5 39 72 39 39 13 1 0 6 5 0 0 0 0 0 0 0 0 0 0 0 0 3 0 7 12 11 8 4 2 0 0 0 0
45 61 59 82 69 29 23 23 38 3 2 23 43 14 3 0 0 0 0 0 0 0 0 0 0 0 0 0 0 0 0 0 0 0 0 0 0 0 0 0 0 0 0
119 90 85 64 68 62 53 37 89 23 78 73 18 0 0 3 1 0 0 0 0 0 0 0 0 0 0 0 0 0 0 0 0 0 0 0 0 0 0 0 0 0 0
89 90 92 73 33 116 196 192 145 37 130 60 4 5 9 8 0 0 0 0 0 0 0 0 0 0 0 0 0 0 0 0 0 0 0 0 0 0 0 0 0 0 0
1 2 3 1 22 71 187 200 174 110 82 23 14 15 22 0 0 0 0 0 0 0 0 0 0 0 0 0 0 0 0 0 0 0 0 0 0 0 0 0 0 0 0
0 0 1 2 32 133 319 194 285 167 68 38 30 24 7 0 0 0 0 0 0 0 0 0 0 0 0 0 0 0 0 0 0 0 0 0 0 0 0 0 0 0 0
0 0 1 3 7 105 257 322 265 102 68 56 47 45 14 1 4 0 0 0 0 0 0 0 0 0 0 0 0 0 0 0 0 0 0 0 0 0 0 0 0 0 0
0 0 0 1 3 13 7 200 99 102 57 39 48 43 23 0 4 0 0 0 0 0 0 0 0 0 0 0 0 0 0 0 0 0 0 0 0 0 0 0 0 0 0
0 0 0 0 0 2 10 18 32 102 84 40 53 22 6 0 0 0 0 0 0 0 0 0 0 0 0 0 0 0 0 0 0 0 0 0 0 0 0 0 0 0 0
0 0 0 0 0 0 0 3 14 14 10 7 2 0 0 0 0 0 0 0 0 0 0 0 0 0 0 0 0 0 0 0 0 0 0 0 0 0 0 0 0 0 0
0 0 0 0 0 0 0 0 0 0 0 0 0 0 0 0 0 0 0 0 0 0 0 0 0 0 0 0 0 0 0 0 0 0 0 0 0 0 0 0 0 0 0
0 0 0 0 0 0 0 2 3 2 0 0 1 0 0 4 0 0 0 0 0 0 0 0 0 0 0 0 0 0 0 0 0 0 0 0 0 0 0 0 0 0 0
0 0 0 1 4 1 0 0 0 1 2 5 5 7 5 2 0 0 0 0 0 0 0 0 0 0 0 0 0 0 0 0 0 0 0 0 0 0 0 0 0 0 0

GFSMA_con_mucape_105.txt.gz
CAPE
3 10 2 2 1 0 0 0 0 0 0 0 0 0 0 0 0 0 0 0 0 15 7 0 15 40 57 61 63 54 34 28 30 5 0 0 28 68 6 5 0 0 0
0 3 0 0 0 0 0 0 0 0 0 0 0 0 0 0 0 0 0 3 2 8 28 18 21 48 55 31 45 47 28 26 6 0 0 0 1 37 44 38 45 45 1
0 0 0 0 0 0 0 0 0 0 0 0 0 0 0 0 0 4 4 8 2 7 10 33 32 36 38 30 41 48 32 13 0 0 0 0 0 0 0 0 5 33 68
0 0 0 0 0 0 0 0 0 0 0 0 0 0 0 0 0 14 4 2 6 2 0 0 7 0 0 0 31 57 31 0 0 0 0 0 0 0 0 0 0 1 41
0 0 0 0 0 0 0 0 0 0 0 0 0 0 13 12 44 9 3 1 0 0 0 0 0 0 0 0 6 97 16 0 0 0 0 0 0 0 0 0 10 10 11
0 46 29 56 44 30 16 12 8 9 0 0 0 13 35 42 37 13 0 0 0 0 0 0 0 0 0 0 128 91 5 0 1 0 0 0 0 1 0 24 24 32 30
37 91 171 128 103 86 70 46 36 17 0 0 21 37 35 27 7 11 0 0 0 0 0 0 0 0 0 5 43 47 11 1 2 5 0 7 1 19 25 56 63 58 29
174 169 272 266 236 187 120 93 63 48 19 4 80 69 9 0 4 0 1 0 0 0 0 0 0 0 0 0 17 22 25 23 16 9 16 16 22 25 34 31 25 32 29
300 312 339 299 276 274 239 208 138 106 122 136 126 79 6 0 0 1 7 0 0 0 0 0 0 0 0 0 4 11 25 31 29 18 10 21 23 23 21 30 39 32 26
410 456 409 409 393 356 311 266 202 162 164 164 149 109 19 0 0 0 0 1 0 0 0 0 0 0 0 0 0 0 0 4 3 7 5 23 31 17 4 1 9 15 11
257 370 318 288 268 212 158 175 118 137 153 109 126 63 54 7 8 0 0 2 4 0 2 0 0 0 0 0 0 0 0 0 6 20 36 35 8 4 5 1 3 12 13
133 178 196 180 215 173 150 139 122 114 95 98 89 69 37 23 1 14 4 8 5 9 3 4 2 0 0 0 0 0 0 3 2 5 10 25 7 2 1 0 1 0 0
52 88 118 133 76 55 41 83 98 128 150 172 108 37 43 31 4 9 13 25 11 6 16 5 0 0 0 0 0 0 0 1 4 5 10 1 1 0 0 0 0 0 0
67 31 21 39 58 39 19 40 77 170 67 76 2 11 16 41 46 24 12 2 5 13 4 0 0 0 0 0 0 0 0 0 0 3 7 5 1 1 0 0 0 0 0
25 29 7 11 15 42 37 35 59 10 3 8 9 12 11 28 38 5 0 0 0 0 0 0 0 0 0 0 0 0 0 0 0 0 0 0 0 0 0 0 0 0 0
47 32 20 33 61 38 61 32 42 44 36 1 0 9 29 8 0 0 0 0 0 0 0 0 0 0 0 0 0 0 0 0 0 0 0 0 0 0 0 0 0 0 0
111 82 68 47 78 59 154 148 86 67 47 25 20 32 47 0 0 0 0 0 0 0 0 0 0 0 0 0 0 0 0 0 0 0 0 0 0 0 0 0 0 0 0
0 3 19 51 91 102 145 221 123 100 149 119 40 60 47 9 8 5 8 0 0 0 0 0 0 0 0 0 0 0 0 0 0 0 0 0 0 0 0 0 0 0 0
0 0 0 2 4 32 89 196 264 183 193 183 32 83 46 20 17 25 3 0 0 0 0 0 0 0 0 0 0 0 0 0 0 0 0 0 0 0 0 0 0 0 0
0 0 0 0 0 2 10 106 100 183 113 138 163 122 49 62 42 32 0 0 0 0 0 0 0 0 0 0 0 0 0 0 0 0 0 0 0 0 0 0 0 0 0
0 0 0 0 0 0 1 1 3 33 92 81 73 93 93 86 73 61 33 3 0 0 0 0 0 0 0 0 0 0 0 0 0 0 0 0 0 0 0 0 0 0 0
0 0 0 0 0 0 0 2 5 5 21 104 57 89 62 92 52 25 14 0 3 0 0 0 0 0 0 0 0 0 0 0 0 0 0 0 0 0 0 0 0 0 0
0 0 0 0 0 0 0 0 3 12 7 25 29 45 57 34 62 39 16 15 7 0 0 0 0 0 0 0 0 0 0 0 0 0 0 0 0 0 0 0 0 0 0
0 0 0 0 0 0 0 0 0 0 2 4 7 25 35 35 19 25 15 9 3 0 0 0 0 0 0 0 0 0 0 0 0 0 0 0 0 0 0 0 0 0 0
0 0 0 0 0 0 0 0 0 0 0 0 4 8 11 12 12 10 7 5 3 0 0 0 0 0 0 0 0 0 0 0 0 0 0 0 0 0 0 0 0 0 0
0 0 0 0 0 0 0 4 4 2 5 3 9 5 7 7 21 15 11 10 6 0 0 0 0 0 0 0 0 0 0 0 0 0 0 0 0 0 0 0 0 0 0

GFSMA_con_mucape_108.txt.gz
CAPE
99 84 7 10 22 0 0 0 0 0 0 0 0 0 0 0 0 0 0 0 2 51 58 21 20 31 43 62 68 61 39 30 25 0 0 0 0 19 43 36 43 23 1
172 235 1 3 15 0 0 0 0 0 0 0 0 0 0 0 0 0 0 0 4 21 56 27 20 35 38 32 25 51 34 25 8 0 0 0 0 0 0 0 1 35 62
107 15 0 10 2 11 0 0 0 0 0 0 0 0 0 0 0 0 0 0 0 1 5 15 22 35 24 17 18 43 36 25 0 0 0 0 0 0 0 0 0 0 30
21 1 2 1 10 15 24 0 0 0 0 0 0 0 0 0 0 0 5 3 0 0 0 0 4 0 0 0 0 107 44 8 0 0 0 0 0 0 0 0 3 38 41
14 23 45 92 29 0 0 0 0 0 0 0 0 0 0 0 0 3 0 0 0 0 0 0 0 0 0 0 1 128 66 0 0 0 0 0 0 0 4 24 33 27 21
9 29 39 5 0 0 0 0 0 0 3 15 11 0 11 14 0 7 4 0 0 0 0 0 0 0 0 0 45 197 55 0 4 4 3 2 4 2 26 33 32 28 36
49 65 75 15 0 0 0 19 22 10 30 21 0 9 33 40 17 4 1 0 0 0 0 0 0 0 0 0 80 123 8 7 6 0 6 4 6 20 30 24 15 30 27
79 96 51 50 50 70 61 33 42 52 42 25 70 73 59 60 19 18 6 0 0 0 0 0 0 0 0 0 0 17 17 16 15 3 3 19 21 27 21 30 24 7 12
141 171 225 163 166 172 131 138 122 105 102 75 81 109 75 75 53 8 2 0 0 0 0 0 0 0 0 0 0 3 13 16 13 10 26 9 30 18 15 7 4 21 43
248 227 242 353 382 335 270 276 206 171 120 110 69 109 96 41 26 6 21 6 1 2 0 0 0 0 0 0 0 0 0 4 1 1 5 29 41 22 20 10 7 32 37
194 291 303 390 421 427 356 310 222 163 103 74 74 74 68 52 32 183 0 0 6 9 0 5 0 2 0 0 0 0 0 0 1 10 32 38 26 19 3 9 7 7 0
48 120 201 218 182 192 173 141 126 103 103 83 84 80 69 38 47 35 13 16 10 5 8 1 21 18 10 0 0 0 0 0 0 0 23 43 21 8 6 0 0 0 0
66 62 67 96 134 159 142 116 93 100 78 83 56 64 62 62 66 99 28 18 0 0 6 6 16 3 0 0 0 0 0 0 0 0 15 16 8 9 1 0 0 0 0
65 70 41 45 60 73 85 62 51 55 56 60 61 94 117 123 93 58 23 0 2 5 8 6 4 0 0 0 0 0 0 0 0 0 0 0 1 0 0 0 0 0 0
44 52 38 38 22 29 45 41 26 16 28 62 56 26 7 5 16 7 12 44 27 0 0 0 0 0 0 0 0 0 0 0 0 0 0 0 0 0 0 0 0 0 0
49 38 13 16 24 18 15 13 23 19 40 40 15 18 9 7 6 17 19 27 11 2 0 0 0 0 0 0 0 0 0 0 0 0 0 0 0 0 0 0 0 0 0
100 111 94 60 46 53 49 45 38 38 52 70 59 22 10 6 5 19 9 13 3 0 0 0 0 0 0 0 0 0 0 0 0 0 0 0 0 0 0 0 0 0 0
0 0 0 3 23 68 58 83 54 81 91 107 77 76 41 29 34 18 14 12 0 4 5 4 0 0 0 0 0 0 0 0 0 0 0 0 0 0 0 0 0 0 0
0 0 0 0 0 0 3 3 6 50 62 44 72 80 85 27 53 27 1 15 16 22 21 2 0 0 0 0 0 0 0 0 0 0 0 0 0 0 0 0 0 0 0
0 0 0 0 0 0 0 0 2 8 8 6 29 73 63 48 48 99 13 21 0 21 0 0 0 0 0 0 0 0 0 0 0 0 0 0 0 0 0 0 0 0 0
0 0 0 0 0 0 0 0 0 4 6 7 11 30 19 13 11 3 41 71 7 29 11 7 0 0 0 0 0 0 0 0 0 0 0 0 0 0 0 0 0 0 0
0 0 0 0 0 0 0 0 0 0 2 2 4 9 27 14 23 34 58 69 0 10 0 0 0 0 0 0 0 0 0 0 0 0 0 0 0 0 0 0 0 0 0
0 0 0 0 0 0 0 0 0 0 0 2 1 4 6 18 17 54 38 38 19 1 1 0 4 0 0 0 0 0 0 0 0 0 0 0 0 0 0 0 0 0 0
0 0 0 0 0 0 0 0 0 0 0 0 2 7 9 13 17 25 55 23 20 29 9 10 14 5 0 0 0 0 0 0 0 0 0 0 0 0 0 0 0 0 0
0 0 0 0 0 0 0 0 0 2 0 0 0 4 15 17 14 15 24 17 43 3 20 14 6 0 0 0 0 0 0 0 0 0 0 0 0 0 0 0 0 0 0
0 0 0 0 0 0 0 0 0 0 5 3 10 7 12 10 17 16 17 22 18 17 16 17 13 0 0 0 0 0 0 0 0 0 0 0 0 0 0 0 0 0 0

GFSMA_con_mucape_111.txt.gz
CAPE
39 10 33 18 4 3 9 4 0 0 0 0 0 0 0 0 0 0 0 0 0 46 56 32 38 31 41 48 57 63 64 43 26 3 0 0 0 13 20 16 19 23 35
47 35 82 38 0 0 1 0 0 0 0 0 0 0 0 0 0 0 0 0 0 13 74 41 21 30 36 30 26 41 56 33 19 0 0 0 0 0 0 0 0 0 1
118 40 86 68 4 0 0 1 1 0 0 0 0 0 0 0 0 0 0 0 0 0 2 22 32 39 48 29 22 27 93 34 3 0 0 0 0 0 0 0 0 15 17
151 199 104 28 6 20 0 0 4 0 0 0 0 0 0 0 0 0 0 0 0 0 0 0 17 25 15 0 0 3 126 27 0 0 0 0 0 0 0 1 13 32 28
98 158 132 33 2 29 20 21 1 0 0 0 0 0 0 0 0 0 0 0 0 0 0 0 0 0 0 0 0 9 124 7 0 0 0 0 2 8 4 20 24 37 43
32 10 68 51 40 78 52 31 0 0 0 0 0 10 5 9 6 0 7 9 0 0 0 0 0 0 0 0 21 12 199 0 0 2 2 0 3 3 17 21 9 14 27
4 22 32 74 95 94 50 58 2 0 0 5 15 27 18 15 32 27 31 38 17 11 11 0 0 0 0 0 104 279 93 15 7 1 0 0 1 12 19 13 21 26 43
7 41 28 1 96 53 61 37 0 0 19 26 33 17 16 16 44 47 50 24 15 12 7 0 0 0 0 0 13 39 11 31 14 7 0 11 9 8 20 13 22 23 30
32 42 20 32 103 79 86 48 27 33 58 47 48 48 41 15 33 45 23 21 12 18 1 0 0 0 0 0 0 1 9 4 3 6 28 40 38 29 18 20 18 20 35
71 92 79 73 96 121 94 96 115 76 80 78 66 47 32 13 11 12 23 50 47 22 13 13 12 0 0 0 0 0 0 1 0 0 3 33 50 41 12 14 21 26 18
90 99 96 98 162 191 247 260 202 198 164 136 143 94 24 28 55 49 33 31 32 37 53 22 21 0 0 8 1 11 5 0 0 1 7 36 37 8 8 12 11 14 7
42 49 82 107 217 298 316 303 248 206 175 117 81 70 74 61 10 25 7 1 22 10 19 16 31 10 7 10 7 0 1 0 0 0 5 33 14 18 31 2 2 1 0
59 46 28 63 93 108 150 120 82 116 88 88 83 65 62 32 21 20 34 28 24 13 4 14 5 1 16 3 0 1 0 0 0 0 13 36 6 24 18 6 0 0 0
21 33 56 31 44 48 48 68 64 62 67 67 56 44 66 50 43 50 45 67 6 4 19 9 3 18 6 6 0 0 0 0 0 0 0 0 0 0 0 0 0 0 0
60 60 52 44 25 35 34 45 43 42 44 36 49 14 40 50 60 60 28 4 6 0 0 1 3 1 0 0 0 0 0 0 0 0 0 0 0 0 0 0 0 0 0
46 44 29 30 28 18 32 24 14 23 36 25 32 43 39 37 40 30 6 19 16 19 25 21 27 3 0 0 0 0 0 0 0 0 0 0 0 0 0 0 0 0 0
50 31 36 38 33 32 24 31 17 12 18 11 27 28 33 45 28 23 10 37 36 38 23 46 9 0 0 0 0 0 0 0 0 0 0 0 0 0 0 0 0 0 0
0 0 0 0 3 3 11 40 5 47 68 8 28 15 35 96 69 59 15 42 32 38 58 32 15 8 3 0 0 0 0 0 0 0 0 0 0 0 0 0 0 0 0
0 0 0 0 0 0 0 0 1 0 8 8 5 32 8 7 35 41 16 18 46 42 21 0 0 1 0 0 0 0 0 0 0 0 0 0 0 0 0 0 0 0 0
0 0 0 0 0 0 0 0 0 0 0 0 0 2 3 5 20 21 75 25 29 20 17 1 0 11 1 3 0 0 0 0 0 0 0 0 0 0 0 0 0 0 0
0 0 0 0 0 0 0 0 0 0 0 0 0 1 3 6 7 9 23 14 17 41 19 0 0 3 0 0 0 0 0 0 0 0 0 0 0 0 0 0 0 0 0
0 0 0 0 0 0 0 0 0 0 0 0 0 0 0 2 9 13 3 11 27 38 22 27 2 0 0 0 0 0 0 0 0 0 0 0 0 0 0 0 0 0 0
0 0 0 0 0 0 0 0 0 0 0 0 0 0 1 4 9 10 16 15 22 21 28 35 7 2 0 0 0 2 6 0 0 0 0 0 0 0 0 0 0 0 0
0 0 0 0 0 0 0 0 0 0 0 0 0 0 0 0 6 11 17 11 13 16 7 4 1 0 3 0 0 3 0 0 0 0 0 0 0 0 0 0 0 0 0
0 0 0 0 0 0 0 0 0 0 0 0 0 1 2 3 7 9 5 8 19 11 7 5 2 1 2 2 1 7 2 0 0 0 0 0 0 0 0 0 0 0 0
0 0 0 0 0 0 0 0 0 0 0 0 0 0 7 12 27 29 43 43 21 8 63 2 3 0 5 1 1 10 0 0 0 0 0 0 0 0 0 0 0 0 0

GFSMA_con_mucape_114.txt.gz
CAPE
177 112 4 6 30 18 9 16 4 0 0 0 0 0 0 0 0 0 0 0 0 13 35 46 59 50 52 64 52 76 96 72 38 7 0 0 0 0 0 0 0 0 1
164 184 76 4 80 28 11 18 0 0 0 0 0 0 0 0 0 0 0 0 0 1 13 22 106 27 36 44 38 43 101 65 29 0 0 0 0 0 0 0 0 6 9
138 65 118 34 55 71 6 3 2 0 0 0 0 0 0 0 0 0 0 0 0 0 0 5 78 99 113 97 18 33 114 80 11 0 0 0 0 0 0 0 7 2 5
160 125 58 45 47 131 9 3 1 0 0 0 0 0 0 0 0 0 0 0 0 0 0 2 91 113 87 64 32 15 20 107 0 0 0 0 0 0 0 11 7 16 35
150 153 120 87 94 48 31 21 11 1 0 0 0 0 0 0 0 0 0 0 0 0 0 0 0 0 0 0 2 29 57 141 0 0 0 0 0 0 0 17 24 17 25
129 150 174 100 111 36 24 107 53 66 12 0 0 0 0 0 0 0 0 0 5 10 3 0 0 0 0 0 20 29 47 131 12 0 1 0 0 0 10 18 25 10 9
79 130 182 130 156 106 81 96 131 112 47 5 0 0 0 10 15 10 0 16 25 27 19 11 13 5 0 0 35 255 273 148 29 8 2 0 0 7 25 36 33 33 41
64 84 86 71 59 44 73 82 131 145 44 30 0 8 14 6 23 6 21 36 46 39 21 6 19 0 0 0 36 166 200 156 83 22 1 5 17 10 21 26 33 37 37
76 83 34 27 24 17 15 25 94 151 52 57 16 26 21 7 32 24 35 43 68 59 40 32 39 6 3 9 10 39 67 48 27 8 17 47 46 40 36 27 24 39 31
70 65 82 38 2 0 19 55 126 118 128 90 82 49 52 34 54 23 34 54 81 80 51 43 39 33 25 17 27 1 1 6 6 1 0 17 42 48 23 18 14 19 13
63 84 85 38 40 11 22 78 114 133 137 159 162 127 95 38 49 20 40 50 58 32 27 30 38 26 2 39 27 1 3 24 3 0 0 16 21 28 6 3 3 6 11
37 78 101 105 51 57 40 55 120 133 184 172 139 147 134 99 111 84 79 23 5 2 7 1 15 24 6 9 13 3 12 0 0 0 0 10 38 10 4 6 9 1 0
54 63 23 67 76 48 63 94 95 118 121 115 95 81 100 89 72 57 62 23 0 0 2 21 17 22 15 10 7 8 2 0 0 0 0 1 0 0 2 1 0 0 0
26 39 29 26 32 43 58 69 60 42 56 64 59 50 46 47 53 59 58 59 39 25 10 32 11 21 5 8 4 8 0 0 0 0 0 0 0 0 0 0 0 0 0
12 37 40 47 47 59 67 56 49 34 34 53 49 55 51 51 45 45 43 48 37 36 0 17 1 6 8 0 2 0 0 0 0 0 0 0 0 0 0 0 0 0 0
52 32 36 55 52 61 52 26 10 12 34 26 17 34 41 28 23 36 16 13 17 24 1 0 5 15 15 13 3 0 1 0 0 0 0 0 0 0 0 0 0 0 0
44 46 28 46 38 43 30 14 27 42 32 12 22 21 9 15 28 32 14 16 3 1 5 10 16 22 21 17 1 2 0 0 0 0 0 0 0 0 0 0 0 0 0
13 1 1 16 36 30 76 27 26 20 14 66 93 42 29 12 21 30 9 32 98 30 18 54 9 6 0 1 0 0 0 0 0 0 0 0 0 0 0 0 0 0 0
0 0 0 0 0 0 0 0 0 0 0 0 0 0 0 3 2 2 3 4 27 40 32 8 5 0 0 0 0 0 0 0 0 0 0 0 0 0 0 0 0 0 0
0 0 0 0 0 0 0 0 0 0 0 0 0 0 0 0 0 0 5 9 11 5 8 6 9 0 7 0 0 0 0 0 0 0 0 0 0 0 0 0 0 0 0
0 0 0 0 0 0 0 0 0 0 0 0 0 0 0 0 0 3 7 6 5 8 18 33 7 7 0 0 0 0 0 0 0 0 0 0 0 0 0 0 0 0 0
0 0 0 0 0 0 0 0 0 0 0 0 0 0 0 0 0 0 4 5 15 14 12 24 20 12 14 5 0 0 0 0 0 0 0 0 0 0 0 0 0 0 0
0 0 0 0 0 0 0 0 0 0 0 0 0 0 0 0 0 0 1 5 8 11 18 17 18 19 26 13 5 1 0 0 0 0 0 0 0 0 0 0 0 0 0
0 0 0 0 0 0 0 0 0 0 0 0 0 0 0 0 0 2 8 5 12 14 22 33 35 30 25 22 3 3 0 1 0 0 0 0 0 0 0 0 0 0 0
0 0 0 0 0 0 0 0 0 0 0 0 0 0 0 0 1 2 4 6 17 27 24 41 73 44 34 29 0 20 1 2 0 5 0 0 0 0 0 0 0 0 0
0 0 0 0 0 0 0 0 0 0 0 0 0 0 0 0 3 4 7 12 7 0 33 38 33 0 1 11 0 0 5 2 0 2 0 0 0 0 0 0 0 0 0

GFSMA_con_mucape_117.txt.gz
CAPE
514 286 333 129 205 126 39 35 62 21 0 0 0 0 0 0 0 0 0 0 0 0 23 131 102 80 56 51 59 61 148 105 42 11 0 0 0 0 0 0 0 2 7
214 175 174 112 140 158 93 43 32 13 0 0 0 0 0 0 0 0 0 0 0 0 0 23 96 149 78 66 85 28 113 132 34 0 0 0 0 0 0 0 7 11 3
159 85 115 129 81 144 51 81 33 2 0 0 0 0 0 0 0 0 0 0 0 0 0 0 8 132 140 142 115 54 19 163 42 0 0 0 0 0 0 0 4 13 22
171 153 126 140 131 64 67 62 81 64 0 0 0 0 0 0 0 0 0 0 0 0 0 0 78 129 176 148 115 56 26 187 97 0 0 0 0 0 0 6 12 15 19
136 148 168 134 106 86 61 55 38 32 33 9 0 0 0 0 0 0 0 0 0 0 0 4 0 18 50 60 32 20 28 132 79 0 0 0 0 0 0 4 1 0 1
124 144 173 148 144 107 97 91 95 22 73 91 70 7 0 0 0 0 0 0 0 13 25 23 11 9 10 4 0 37 42 96 102 4 1 0 0 0 0 1 13 7 15
88 157 213 132 101 105 100 130 93 18 56 108 115 31 30 1 0 2 16 10 25 37 50 65 46 23 14 9 0 85 74 107 181 33 0 0 0 0 2 6 16 7 0
64 99 120 88 106 134 196 105 79 29 28 58 95 56 61 54 28 35 39 26 17 48 69 71 65 60 36 24 1 81 369 396 224 70 16 3 1 8 31 23 15 5 7
34 31 89 87 75 65 34 75 29 31 4 5 56 129 88 89 29 42 35 38 51 78 134 115 102 69 61 51 27 59 165 188 200 132 77 20 44 33 26 30 13 7 2
30 7 36 17 41 74 76 59 42 51 21 1 30 61 74 94 108 100 88 108 97 118 174 155 94 64 70 41 45 30 43 80 38 36 81 54 40 44 43 29 17 3 0
52 6 51 70 55 24 9 60 17 9 9 3 18 32 87 105 138 117 121 116 85 73 82 49 68 45 19 20 43 35 15 1 11 2 10 28 20 28 42 25 3 1 0
45 83 45 25 52 48 22 18 18 4 1 8 58 63 76 104 126 101 80 60 62 54 62 36 20 0 8 22 24 34 18 16 3 14 0 11 18 46 39 18 2 1 0
29 15 21 19 26 41 19 6 11 4 10 46 57 56 74 60 68 51 63 55 15 19 2 6 13 31 18 21 26 30 25 15 3 7 0 2 4 26 7 5 1 2 0
27 54 34 40 29 25 33 5 6 5 52 44 51 68 70 78 78 61 50 12 12 12 10 0 0 4 20 11 11 7 5 4 8 1 0 0 21 4 0 0 0 0 0
28 29 22 18 7 28 33 49 41 39 6 40 64 75 72 61 57 50 38 41 47 2 2 0 1 2 4 4 1 0 3 10 10 1 0 0 0 0 0 0 0 0 0
2 3 4 19 31 26 44 37 42 46 45 36 47 49 45 20 18 23 57 36 33 20 7 14 13 12 1 10 9 8 9 10 3 1 0 0 0 0 0 0 0 0 0
39 40 17 5 14 43 44 48 51 33 37 14 28 18 12 12 11 1 8 6 17 15 22 4 7 8 12 7 19 6 3 0 0 0 0 0 0 0 0 0 0 0 0
32 17 8 3 8 13 23 45 26 21 40 7 30 10 23 27 12 7 9 1 1 0 2 4 5 4 3 3 5 3 10 0 0 3 0 0 0 0 0 0 0 0 0
0 0 0 0 0 0 0 0 0 1 7 6 0 0 0 0 0 0 0 0 5 5 9 0 5 4 1 9 1 0 0 0 3 1 2 0 0 0 0 0 0 0 0
0 0 0 0 0 0 0 0 0 0 0 0 0 0 0 0 0 0 0 0 1 2 2 12 7 14 12 11 12 9 3 0 0 1 1 1 0 0 0 0 0 0 0
0 0 0 0 0 0 0 0 0 0 0 0 0 0 0 0 0 0 0 0 0 1 4 11 12 15 10 28 13 35 19 7 2 2 0 0 0 0 0 0 0 0 0
0 0 0 0 0 0 0 0 0 0 0 0 0 0 0 0 0 0 0 0 2 4 8 14 5 13 30 33 33 60 31 0 0 2 0 0 0 0 0 0 0 0 0
0 0 0 0 0 0 0 0 0 0 0 0 0 0 0 0 0 0 0 0 0 1 4 8 18 19 28 21 26 14 16 0 36 5 9 4 0 0 0 0 0 0 0
0 0 0 0 0 0 0 0 0 0 0 0 0 0 0 0 0 0 0 0 0 0 4 10 14 15 32 5 51 57 47 29 8 4 2 10 0 0 0 0 0 0 0
0 0 0 0 0 0 0 0 0 0 0 0 0 0 0 0 0 0 0 0 0 1 2 6 15 38 61 7 1 7 4 14 0 0 4 9 2 0 0 0 0 0 0
0 0 0 0 0 0 0 0 0 0 0 0 0 0 0 0 0 0 0 0 0 0 2 5 14 11 36 17 28 11 31 12 0 18 0 0 0 2 0 0 0 0 0

GFSMA_con_mucape_120.txt.gz
CAPE
737 789 881 814 617 292 120 48 4 0 1 0 0 0 0 0 0 0 0 0 0 0 0 98 236 203 223 169 167 153 133 145 105 39 0 0 0 0 0 0 0 0 0
851 792 787 794 627 314 289 83 48 20 0 0 0 0 0 0 0 0 0 0 0 0 0 0 87 154 244 157 158 160 102 103 165 74 0 0 0 0 0 0 0 0 0
634 503 664 682 593 555 256 125 48 21 43 1 0 0 0 0 0 0 0 0 0 0 0 0 66 121 168 246 217 202 146 146 221 109 0 0 0 0 0 0 0 0 0
552 484 137 413 529 523 429 233 70 99 11 2 0 0 0 0 0 0 0 0 0 0 0 0 45 128 206 241 281 258 176 245 359 165 0 0 0 0 0 0 0 0 0
77 230 284 252 360 426 338 264 132 27 43 10 7 0 0 0 0 0 0 0 0 11 35 22 14 20 98 204 178 165 119 136 280 243 11 0 0 0 0 0 0 0 0
19 48 112 196 237 428 403 272 227 129 55 63 1 6 0 8 0 5 2 0 1 46 81 86 83 45 17 84 107 106 76 94 309 261 64 0 0 0 0 0 2 1 0
74 71 110 178 258 319 266 176 187 191 50 53 80 4 1 13 19 43 29 40 68 85 99 101 94 93 73 46 62 72 123 106 152 321 168 28 0 0 0 3 18 14 8
70 97 110 107 206 146 187 144 165 128 80 32 23 9 0 0 26 67 74 81 97 110 92 120 115 106 129 103 57 49 93 185 127 383 223 63 11 2 5 32 40 25 16
109 114 97 127 218 79 49 92 44 61 33 36 26 31 14 0 16 35 50 74 79 104 125 137 150 146 102 80 50 52 35 163 400 383 316 144 56 44 66 45 45 35 28
103 102 137 81 51 27 57 76 41 72 63 23 49 34 20 12 26 0 30 65 89 130 108 139 96 63 62 72 83 39 6 75 128 317 247 221 135 113 82 64 52 52 26
155 190 175 66 14 88 26 84 45 47 53 76 83 57 41 13 0 3 0 70 76 83 59 71 66 60 76 66 64 27 6 4 19 92 195 138 126 120 72 74 74 44 7
160 189 167 138 97 28 60 46 66 65 61 42 53 21 8 13 1 0 13 90 90 60 76 57 43 33 34 29 20 15 14 19 4 20 19 6 57 27 47 47 39 3 4
210 180 160 92 27 61 35 40 27 3 19 34 68 10 4 21 51 18 62 50 40 16 17 8 12 16 8 15 15 5 16 6 4 9 7 3 3 0 20 55 7 0 0
128 172 154 89 59 11 26 2 4 7 18 20 3 4 63 67 48 45 15 0 0 4 5 8 8 6 7 21 12 4 3 3 22 7 3 3 3 0 0 2 7 0 0
207 175 141 55 42 41 29 10 12 1 9 15 0 46 42 43 36 43 45 54 50 0 0 5 27 5 6 7 0 3 1 0 1 0 0 1 1 0 0 0 0 0 0
35 32 42 18 14 24 8 8 20 42 32 44 47 41 33 38 43 35 28 35 24 0 2 8 8 9 8 4 8 2 5 9 4 1 3 1 8 0 0 0 0 0 0
5 15 8 4 6 10 19 14 37 39 30 49 52 45 38 27 19 12 12 0 12 20 8 1 3 0 0 8 1 0 5 4 3 4 3 4 4 4 0 0 0 0 0
18 25 18 14 14 10 3 23 18 21 0 2 12 2 15 19 18 9 14 15 13 6 3 1 0 0 0 0 1 0 8 23 30 9 11 2 3 0 3 0 0 0 0
0 0 1 4 1 0 6 0 1 6 0 6 6 13 6 4 0 0 0 0 0 0 0 6 1 3 2 4 9 10 5 20 20 5 8 4 4 3 3 2 0 0 0
0 0 0 0 0 0 0 0 0 0 0 0 0 0 0 0 0 0 0 0 0 0 0 0 1 2 5 4 15 19 16 26 40 42 5 26 31 7 3 3 1 1 0
0 0 0 0 0 0 0 0 0 0 0 0 0 0 0 0 0 0 0 0 0 0 0 0 0 0 0 0 0 3 1 14 10 12 15 4 0 2 1 1 1 0 0
0 0 0 0 0 0 0 0 0 0 0 0 0 0 0 0 0 0 0 0 0 0 0 0 0 0 12 10 0 0 5 7 25 0 16 1 23 0 1 0 3 1 0
0 0 0 0 0 0 0 0 0 0 0 0 0 0 0 0 0 0 0 0 0 0 0 0 0 0 0 6 24 7 15 15 12 10 12 18 10 5 1 5 1 4 0
0 0 0 0 0 0 0 0 0 0 0 0 0 0 0 0 0 0 0 0 0 0 0 0 0 8 6 6 9 18 14 17 3 3 12 57 23 19 5 0 0 1 0
0 0 0 0 0 0 0 0 0 0 0 0 0 0 0 0 0 0 0 0 0 0 0 13 27 15 1 1 6 17 9 32 8 17 13 1 0 55 21 19 0 0 0
0 0 0 0 0 0 0 0 0 0 0 0 0 0 0 0 0 0 0 0 0 0 0 0 12 15 4 0 6 9 26 38 42 11 0 6 0 22 0 2 4 0 0